[[{"header":{"parameterUnit":"m.s-1","parameterCategory":1,"la1":30.6,"la2":28.766,"lo1":-90.7593,"lo2":-88.6598,"dx":0.0162,"dy":0.0183,"nx":116,"ny":114,"refTime":"2023-01-21T18:00:00:Z","depth":0,"parameterNumber":2,"parameterNumberName":"U-component_of_WINDS"},"data":[0.0,0.0,0.0,0.0,0.0,0.0,0.0,0.0,0.0,0.0,0.0,0.0,0.0,0.0,0.0,0.0,0.0,0.0,0.0,0.0,0.0,0.0,0.0,0.0,0.0,0.0,0.0,0.0,0.0,0.0,0.0,0.0,0.0,0.0,0.0,0.0,0.0,0.0,0.0,0.0,0.0,0.0,0.0,0.0,0.0,0.0,0.0,0.0,0.0,0.0,0.0,0.0,0.0,0.0,0.0,0.0,0.0,0.0,0.0,0.0,0.0,0.0,0.0,0.0,0.0,0.0,0.0,0.0,0.0,0.0,0.0,0.0,0.0,0.0,0.0,0.0,0.0,0.0,0.0,0.0,0.0,0.0,0.0,0.0,0.0,0.0,0.0,0.0,0.0,0.0,0.0,0.0,0.0,0.0,0.0,0.0,0.0,0.0,0.0,0.0,0.0,0.0,0.0,0.0,0.0,0.0,0.0,0.0,0.0,0.0,0.0,0.0,0.0,0.0,0.0,0.0,0.0,0.0,0.0,0.0,0.0,0.0,0.0,0.0,0.0,0.0,0.0,0.0,0.0,0.0,0.0,0.0,0.0,0.0,0.0,0.0,0.0,0.0,0.0,0.0,0.0,0.0,0.0,0.0,0.0,0.0,0.0,0.0,0.0,0.0,0.0,0.0,0.0,0.0,0.0,0.0,0.0,0.0,0.0,0.0,0.0,0.0,0.0,0.0,0.0,0.0,0.0,0.0,0.0,0.0,0.0,0.0,0.0,0.0,0.0,0.0,0.0,0.0,0.0,0.0,0.0,0.0,0.0,0.0,0.0,0.0,0.0,0.0,0.0,0.0,0.0,0.0,0.0,0.0,0.0,0.0,0.0,0.0,0.0,0.0,0.0,0.0,0.0,0.0,0.0,0.0,0.0,0.0,0.0,0.0,0.0,0.0,0.0,0.0,0.0,0.0,0.0,0.0,0.0,0.0,0.0,0.0,0.0,0.0,0.0,0.0,0.0,0.0,0.0,0.0,0.0,0.0,0.0,0.0,0.0,0.0,0.0,0.0,0.0,0.0,0.0,0.0,0.0,0.0,0.0,0.0,0.0,0.0,0.0,0.0,0.0,0.0,0.0,0.0,0.0,0.0,0.0,0.0,0.0,0.0,0.0,0.0,0.0,0.0,0.0,0.0,0.0,0.0,0.0,0.0,0.0,0.0,0.0,0.0,0.0,0.0,0.0,0.0,0.0,0.0,0.0,0.0,0.0,0.0,0.0,0.0,0.0,0.0,0.0,0.0,0.0,0.0,0.0,0.0,0.0,0.0,0.0,0.0,0.0,0.0,0.0,0.0,0.0,0.0,0.0,0.0,0.0,0.0,0.0,0.0,0.0,0.0,0.0,0.0,0.0,0.0,0.0,0.0,0.0,0.0,0.0,0.0,0.0,0.0,0.0,0.0,0.0,0.0,0.0,0.0,0.0,0.0,0.0,0.0,0.0,0.0,0.0,0.0,0.0,0.0,0.0,0.0,0.0,0.0,0.0,0.0,0.0,0.0,0.0,0.0,0.0,0.0,0.0,0.0,0.0,0.0,0.0,0.0,0.0,0.0,0.0,0.0,0.0,0.0,0.0,0.0,0.0,0.0,0.0,0.0,0.0,0.0,0.0,0.0,0.0,0.0,0.0,0.0,0.0,0.0,0.0,0.0,0.0,0.0,0.0,0.0,0.0,0.0,0.0,0.0,0.0,0.0,0.0,0.0,0.0,0.0,0.0,0.0,0.0,0.0,0.0,0.0,0.0,0.0,0.0,0.0,0.0,0.0,0.0,0.0,0.0,0.0,0.0,0.0,0.0,0.0,0.0,0.0,0.0,0.0,0.0,0.0,0.0,0.0,0.0,0.0,0.0,0.0,0.0,0.0,0.0,0.0,0.0,0.0,0.0,0.0,0.0,0.0,0.0,0.0,0.0,0.0,0.0,0.0,0.0,0.0,0.0,0.0,0.0,0.0,0.0,0.0,0.0,0.0,0.0,0.0,0.0,0.0,0.0,0.0,0.0,0.0,0.0,0.0,0.0,0.0,0.0,0.0,0.0,0.0,0.0,0.0,0.0,0.0,0.0,0.0,0.0,0.0,0.0,0.0,0.0,0.0,0.0,0.0,0.0,0.0,0.0,0.0,0.0,0.0,0.0,0.0,0.0,0.0,0.0,0.0,0.0,0.0,0.0,0.0,0.0,0.0,0.0,0.0,0.0,0.0,0.0,0.0,0.0,0.0,0.0,0.0,0.0,0.0,0.0,0.0,0.0,0.0,0.0,0.0,0.0,0.0,0.0,0.0,0.0,0.0,0.0,0.0,0.0,0.0,0.0,0.0,0.0,0.0,0.0,0.0,0.0,0.0,0.0,0.0,0.0,0.0,0.0,0.0,0.0,0.0,0.0,0.0,0.0,0.0,0.0,0.0,0.0,0.0,0.0,0.0,0.0,0.0,0.0,0.0,0.0,0.0,0.0,0.0,0.0,0.0,0.0,0.0,0.0,0.0,0.0,0.0,0.0,0.0,0.0,0.0,0.0,0.0,0.0,0.0,0.0,0.0,0.0,0.0,0.0,0.0,0.0,0.0,0.0,0.0,0.0,0.0,0.0,0.0,0.0,0.0,0.0,0.0,0.0,0.0,0.0,0.0,0.0,0.0,0.0,0.0,0.0,0.0,0.0,0.0,0.0,0.0,0.0,0.0,0.0,0.0,0.0,0.0,0.0,0.0,0.0,0.0,0.0,0.0,0.0,0.0,0.0,0.0,0.0,0.0,0.0,0.0,0.0,0.0,0.0,0.0,0.0,0.0,0.0,0.0,0.0,0.0,0.0,0.0,0.0,0.0,0.0,0.0,0.0,0.0,0.0,0.0,0.0,0.0,0.0,0.0,0.0,0.0,0.0,0.0,0.0,0.0,0.0,0.0,0.0,0.0,0.0,0.0,0.0,0.0,0.0,0.0,0.0,0.0,0.0,0.0,0.0,0.0,0.0,0.0,0.0,0.0,0.0,0.0,0.0,0.0,0.0,0.0,0.0,0.0,0.0,0.0,0.0,0.0,0.0,0.0,0.0,0.0,0.0,0.0,0.0,0.0,0.0,0.0,0.0,0.0,0.0,0.0,0.0,0.0,0.0,0.0,0.0,0.0,0.0,0.0,0.0,0.0,0.0,0.0,0.0,0.0,0.0,0.0,0.0,0.0,0.0,0.0,0.0,0.0,0.0,0.0,0.0,0.0,0.0,0.0,0.0,0.0,0.0,0.0,0.0,0.0,0.0,0.0,0.0,0.0,0.0,0.0,0.0,0.0,0.0,0.0,0.0,0.0,0.0,0.0,0.0,0.0,0.0,0.0,0.0,0.0,0.0,0.0,0.0,0.0,0.0,0.0,0.0,0.0,0.0,0.0,0.0,0.0,0.0,0.0,0.0,0.0,0.0,0.0,0.0,0.0,0.0,0.0,0.0,0.0,0.0,0.0,0.0,0.0,0.0,0.0,0.0,0.0,0.0,0.0,0.0,0.0,0.0,0.0,0.0,0.0,0.0,0.0,0.0,0.0,0.0,0.0,0.0,0.0,0.0,0.0,0.0,0.0,0.0,0.0,0.0,0.0,0.0,0.0,0.0,0.0,0.0,0.0,0.0,0.0,0.0,0.0,0.0,0.0,0.0,0.0,0.0,0.0,0.0,0.0,0.0,0.0,0.0,0.0,0.0,0.0,0.0,0.0,0.0,0.0,0.0,0.0,0.0,0.0,0.0,0.0,0.0,0.0,0.0,0.0,0.0,0.0,0.0,0.0,0.0,0.0,0.0,0.0,0.0,0.0,0.0,0.0,0.0,0.0,0.0,0.0,0.0,0.0,0.0,0.0,0.0,0.0,0.0,0.0,0.0,0.0,0.0,0.0,0.0,0.0,0.0,0.0,0.0,0.0,0.0,0.0,0.0,0.0,0.0,0.0,0.0,0.0,0.0,0.0,0.0,0.0,0.0,0.0,0.0,0.0,0.0,0.0,0.0,0.0,0.0,0.0,0.0,0.0,0.0,0.0,0.0,0.0,0.0,0.0,0.0,0.0,0.0,0.0,0.0,0.0,0.0,0.0,0.0,0.0,0.0,0.0,0.0,0.0,0.0,0.0,0.0,0.0,0.0,0.0,0.0,0.0,0.0,0.0,0.0,0.0,0.0,0.0,0.0,0.0,0.0,0.0,0.0,0.0,0.0,0.0,0.0,0.0,0.0,0.0,0.0,0.0,0.0,0.0,0.0,0.0,0.0,0.0,0.0,0.0,0.0,0.0,0.0,0.0,0.0,0.0,0.0,0.0,0.0,0.0,0.0,0.0,0.0,0.0,0.0,0.0,0.0,0.0,0.0,0.0,0.0,0.0,0.0,0.0,0.0,0.0,0.0,0.0,0.0,0.0,0.0,0.0,0.0,0.0,0.0,0.0,0.0,0.0,0.0,0.0,0.0,0.0,0.0,0.0,0.0,0.0,0.0,0.0,0.0,0.0,0.0,0.0,0.0,0.0,0.0,0.0,0.0,0.0,0.0,0.0,0.0,0.0,0.0,0.0,0.0,0.0,0.0,0.0,0.0,0.0,0.0,0.0,0.0,0.0,0.0,0.0,0.0,0.0,0.0,0.0,0.0,0.0,0.0,0.0,0.0,0.0,0.0,0.0,0.0,0.0,0.0,0.0,0.0,0.0,0.0,0.0,0.0,0.0,0.0,0.0,0.0,0.0,0.0,0.0,0.0,0.0,0.0,0.0,0.0,0.0,0.0,0.0,0.0,0.0,0.0,0.0,0.0,0.0,0.0,0.0,0.0,0.0,0.0,0.0,0.0,0.0,0.0,0.0,0.0,0.0,0.0,0.0,0.0,0.0,0.0,0.0,0.0,0.0,0.0,0.0,0.0,0.0,0.0,0.0,0.0,0.0,0.0,0.0,0.0,0.0,0.0,0.0,0.0,0.0,0.0,0.0,0.0,0.0,0.0,0.0,0.0,0.0,0.0,0.0,0.0,0.0,0.0,0.0,0.0,0.0,0.0,0.0,0.0,0.0,0.0,0.0,0.0,0.0,0.0,0.0,0.0,0.0,0.0,0.0,0.0,0.0,0.0,0.0,0.0,0.0,0.0,0.0,0.0,0.0,0.0,0.0,0.0,0.0,0.0,0.0,0.0,0.0,0.0,0.0,0.0,0.0,0.0,0.0,0.0,0.0,0.0,0.0,0.0,0.0,0.0,0.0,0.0,0.0,0.0,0.0,0.0,0.0,0.0,0.0,0.0,0.0,0.0,0.0,0.0,0.0,0.0,0.0,0.0,0.0,0.0,0.0,0.0,0.0,0.0,0.0,0.0,0.0,0.0,0.0,0.0,0.0,0.0,0.0,0.0,0.0,0.0,0.0,0.0,0.0,0.0,0.0,0.0,0.0,0.0,0.0,0.0,0.0,0.0,0.0,0.0,0.0,0.0,0.0,0.0,0.0,0.0,0.0,0.0,0.0,0.0,0.0,0.0,0.0,0.0,0.0,0.0,0.0,0.0,0.0,0.0,0.0,0.0,0.0,0.0,0.0,0.0,0.0,0.0,0.0,0.0,0.0,0.0,0.0,0.0,0.0,0.0,0.0,0.0,0.0,0.0,0.0,0.0,0.0,0.0,0.0,0.0,0.0,0.0,0.0,0.0,0.0,0.0,0.0,0.0,0.0,0.0,0.0,0.0,0.0,0.0,0.0,0.0,0.0,0.0,0.0,0.0,0.0,0.0,0.0,0.0,0.0,0.0,0.0,0.0,0.0,0.0,0.0,0.0,0.0,0.0,0.0,0.0,0.0,0.0,0.0,0.0,0.0,0.0,0.0,0.0,0.0,0.0,0.0,0.0,0.0,0.0,0.0,0.0,0.0,0.0,0.0,0.0,0.0,0.0,0.0,0.0,0.0,0.0,0.0,0.0,0.0,0.0,0.0,0.0,0.0,0.0,0.0,0.0,0.0,0.0,0.0,0.0,0.0,0.0,0.0,0.0,0.0,0.0,0.0,0.0,0.0,0.0,0.0,0.0,0.0,0.0,0.0,0.0,0.0,0.0,0.0,0.0,0.0,0.0,0.0,1.261,1.2406,0.0,0.0,0.0,0.0,0.0,0.0,0.0,0.0,0.0,0.0,0.0,0.0,0.0,0.0,0.0,0.0,0.0,0.0,0.0,0.0,0.0,0.0,0.0,0.0,0.0,0.0,0.0,0.0,0.0,0.0,0.0,0.0,0.0,0.0,0.0,0.0,0.0,0.0,0.0,0.0,0.0,0.0,0.0,0.0,0.0,0.0,0.0,0.0,0.0,0.0,0.0,0.0,0.0,0.0,0.0,0.0,0.0,0.0,0.0,0.0,0.0,0.0,0.0,0.0,0.0,0.0,0.0,0.0,0.0,0.0,0.0,0.0,0.0,0.0,0.0,0.0,0.0,0.0,0.0,0.0,0.0,0.0,0.0,0.0,0.0,0.0,0.0,0.0,0.0,0.0,0.0,0.0,0.0,0.0,0.0,0.0,0.0,0.0,0.0,0.0,0.0,0.0,0.0,0.0,0.0,0.0,0.0,0.0,0.0,0.0,0.0,0.0,0.0,0.0,1.3336,1.3003,0.0,0.0,0.0,0.0,0.0,0.0,0.0,0.0,0.0,0.0,0.0,0.0,0.0,0.0,0.0,0.0,0.0,0.0,0.0,0.0,0.0,0.0,0.0,0.0,0.0,0.0,0.0,0.0,0.0,0.0,0.0,0.0,0.0,0.0,0.0,0.0,0.0,0.0,0.0,0.0,0.0,0.0,0.0,0.0,0.0,0.0,0.0,0.0,0.0,0.0,0.0,0.0,0.0,0.0,0.0,0.0,0.0,0.0,0.0,0.0,0.0,0.0,0.0,0.0,0.0,0.0,0.0,0.0,0.0,0.0,0.0,0.0,0.0,0.0,0.0,0.0,0.0,0.0,0.0,0.0,0.0,0.0,0.0,0.0,0.0,0.0,0.0,0.0,0.0,0.0,0.0,0.0,0.0,0.0,0.0,0.0,0.0,0.0,0.0,0.0,0.0,0.0,0.0,0.0,0.0,0.0,0.0,0.0,1.4468,1.455,1.478,1.4692,1.4753,1.4903,1.4312,1.3865,1.3539,1.3295,0.0,0.0,0.0,0.0,0.0,0.0,0.0,0.0,0.0,0.0,0.0,0.0,0.0,0.0,0.0,0.0,0.0,0.0,0.0,0.0,0.0,0.0,1.1335,1.1335,1.1586,1.1762,0.0,0.0,0.0,0.0,0.0,0.0,0.0,0.0,0.0,0.0,0.0,0.0,1.3146,1.3281,1.3302,1.3214,1.2956,0.0,0.0,0.0,0.0,0.0,0.0,0.0,0.0,0.0,0.0,0.0,0.0,0.0,0.0,0.0,0.0,0.0,0.0,0.0,0.0,0.0,0.0,0.0,0.0,0.0,0.0,0.0,0.0,0.0,0.0,0.0,0.0,0.0,0.0,0.0,0.0,0.0,0.0,0.0,0.0,0.0,0.0,0.0,1.3146,1.3146,0.0,0.0,0.0,0.0,0.0,0.0,0.0,0.0,0.0,0.0,0.0,0.0,0.0,1.4903,1.5262,1.5499,1.5628,1.5649,1.5764,1.5839,1.5879,1.5995,1.592,1.571,1.5744,0.0,1.4177,1.4143,0.0,0.0,0.0,0.0,0.0,0.0,0.0,0.0,0.0,0.0,0.0,0.0,0.0,0.0,0.0,0.0,0.0,0.0,0.0,0.0,0.0,1.1592,1.1803,1.1891,1.2088,1.221,1.221,0.0,0.0,0.0,0.0,0.0,0.0,0.0,0.0,0.0,1.3532,1.3682,1.3682,1.3838,1.3858,1.377,1.3641,1.3397,1.3071,1.2996,0.0,0.0,0.0,0.0,0.0,0.0,0.0,0.0,0.0,0.0,0.0,0.0,0.0,0.0,0.0,0.0,0.0,0.0,0.0,0.0,0.0,0.0,0.0,0.0,0.0,0.0,0.0,0.0,0.0,0.0,0.0,0.0,0.0,0.0,0.0,0.0,0.0,0.0,0.0,1.3417,1.3546,1.3546,1.3682,1.3743,0.0,0.0,0.0,0.0,0.0,0.0,0.0,0.0,0.0,1.5506,1.5655,1.5947,1.6408,1.6537,1.6653,1.6734,1.6802,1.6836,1.6836,1.6904,1.6815,1.6612,1.6673,1.6313,1.5628,1.5038,1.4679,1.4482,0.0,0.0,0.0,0.0,1.142,1.0126,0.0,0.0,0.0,0.0,0.0,0.0,0.0,0.0,0.0,0.0,0.0,0.0,1.1769,1.2094,1.2352,1.2501,1.261,1.2671,1.2671,0.0,0.0,0.0,0.0,0.0,0.0,0.0,0.0,1.3804,1.4095,1.4224,1.419,1.438,1.4387,1.4238,1.4204,1.3871,1.3336,1.3193,1.3044,0.0,0.0,0.0,0.0,0.0,0.0,0.0,0.0,0.0,0.0,0.0,0.0,0.0,0.0,0.0,0.0,0.0,0.0,0.0,0.0,0.0,0.0,0.0,0.0,0.0,0.0,0.0,0.0,0.0,0.0,0.0,0.0,0.0,0.0,0.0,0.0,0.0,0.0,1.3851,1.4027,1.4068,1.4272,1.4387,0.0,0.0,0.0,0.0,0.0,0.0,1.5628,1.5784,1.6123,1.6686,1.6748,1.6998,1.7473,1.7514,1.7589,1.7704,1.7738,1.7738,1.7704,1.7704,1.7602,1.7419,1.7419,1.7277,1.6958,1.5981,1.5513,1.5391,1.5167,1.4566,1.366,1.162,1.0085,0.8534,0.0,0.0,0.0,0.0,0.0,0.0,0.0,0.0,0.0,0.0,0.0,1.1925,1.2223,1.2651,1.2976,1.3119,1.3132,1.3139,1.3139,1.2795,1.0775,0.6784,0.8318,0.0,0.0,0.0,0.0,1.4265,1.4563,1.4631,1.4496,1.4794,1.4855,1.4699,1.4557,1.4238,1.3797,1.3654,1.3505,1.3356,0.0,0.0,0.0,0.0,0.0,0.0,0.0,0.0,0.0,0.0,0.0,0.0,0.0,0.0,0.0,0.0,0.0,0.0,0.0,0.0,0.0,0.0,0.0,0.0,0.0,0.0,0.0,0.0,0.0,0.0,0.0,0.0,0.0,0.0,0.0,0.0,0.0,0.0,0.0,1.4679,1.5079,0.0,0.0,0.0,0.0,1.5981,1.6151,1.6429,1.687,1.7026,1.7311,1.7772,1.7935,1.8091,1.8267,1.8389,1.8464,1.8477,1.862,1.862,1.8477,1.8477,1.8321,1.8036,1.8036,1.7948,1.7738,1.6985,1.6422,1.6035,1.6022,1.4244,1.1594,1.1608,0.8296,0.3965,0.0,0.0,0.0,0.0,0.0,0.0,0.0,0.0,0.0,0.9657,1.0109,1.052,1.0769,1.2402,1.3627,1.3878,1.381,1.3668,1.3478,1.0617,0.8212,0.6547,0.5997,0.6902,0.0,0.0,1.4624,1.4869,1.5072,1.5147,1.5092,1.5303,1.5316,1.5167,1.5113,1.495,1.4672,1.4136,1.3824,1.3675,1.3526,1.3315,0.0,0.0,0.0,0.0,0.0,0.0,0.0,0.0,0.0,0.0,0.0,0.0,0.0,0.0,0.0,0.0,0.0,0.0,0.0,0.0,0.0,0.0,0.0,0.0,0.0,0.0,0.0,0.0,0.0,0.0,0.0,0.0,0.0,0.0,0.0,0.0,0.0,1.556,1.5913,0.0,1.6205,1.6517,1.6741,1.6795,1.7297,1.7717,1.7968,1.8213,1.8511,1.8864,1.8918,1.9027,1.9183,1.9237,1.9203,1.9115,1.9169,1.9115,1.8952,1.8952,1.885,1.8674,1.8565,1.8443,1.8147,1.5652,1.4485,1.4062,1.3904,1.1915,0.8969,0.7347,0.5498,0.3635,0.0,0.0,0.0,0.0,0.0,0.0,0.0,0.0,0.0,0.7867,0.8954,0.9881,1.0172,1.2539,1.4245,1.4502,1.3616,1.2942,1.2673,0.8968,0.6356,0.5502,0.5112,0.6943,1.1261,1.3696,1.5167,1.5411,1.5615,1.5689,1.5642,1.5791,1.5784,1.5635,1.5635,1.5581,1.5452,1.4903,1.4468,1.4129,1.3933,1.3702,1.3464,0.0,0.0,0.0,0.0,0.0,0.0,0.0,0.0,0.0,0.0,0.0,0.0,0.0,0.0,0.0,0.0,0.0,0.0,0.0,0.0,0.0,0.0,0.0,0.0,0.0,0.0,0.0,0.0,0.0,0.0,0.0,0.0,0.0,0.0,1.552,1.6029,1.6483,1.6883,1.7148,1.7195,1.7561,1.7792,1.7792,1.8355,1.8776,1.8972,1.9217,1.9501,1.98,1.9766,1.9786,1.9888,1.9841,1.9766,1.9657,1.9657,1.9556,1.9359,1.8148,1.7556,1.7377,1.6109,1.5532,1.5282,1.3068,1.1367,1.0321,1.0912,0.9417,0.6479,0.4742,0.3448,0.2371,0.0,0.0,0.0,0.0,0.0,0.0,0.0,0.8512,0.7914,0.6132,0.8331,1.0143,1.0426,1.2944,1.4631,1.4785,1.2306,1.0699,1.0564,0.794,0.5482,0.3503,0.6136,0.8807,1.1424,1.3985,1.5542,1.5781,1.6078,1.6152,1.611,1.6259,1.6252,1.611,1.611,1.611,1.6096,1.594,1.5459,1.4767,1.4462,1.4238,1.4102,0.0,0.0,0.0,0.0,0.0,0.0,0.0,0.0,0.0,0.0,0.0,0.0,0.0,0.0,0.0,0.0,0.0,0.0,0.0,0.0,0.0,0.0,0.0,0.0,0.0,0.0,0.0,0.0,0.0,0.0,0.0,0.0,0.0,1.5683,1.632,1.6965,1.7412,1.8002,1.8423,1.8565,1.885,1.9027,1.9027,1.9305,1.959,1.9888,2.0051,2.0261,2.0539,2.0417,2.0349,2.0349,2.0187,2.0119,2.0098,2.0098,1.9956,1.9428,1.621,1.4502,1.3931,1.0812,0.9441,0.9373,0.9179,0.7358,0.498,0.7516,0.6757,0.4027,0.4103,0.2325,0.0,0.0,0.0,0.0,0.0,0.0,0.0,0.0,0.6308,0.4345,0.3815,0.6351,0.7488,0.5889,0.9565,1.1527,0.9737,0.8816,0.8247,0.8106,0.5741,0.4158,0.3532,0.6195,0.794,0.8675,0.9528,1.1139,1.3405,1.3554,1.4666,1.6734,1.6775,1.6775,1.6734,1.6734,1.6734,1.6714,1.6449,1.6218,1.5981,1.5357,1.495,1.4726,0.0,0.0,0.0,0.0,0.0,0.0,0.0,0.0,0.0,0.0,0.0,0.0,0.0,0.0,0.0,0.0,0.0,0.0,0.0,0.0,0.0,0.0,0.0,0.0,0.0,0.0,0.0,0.0,0.0,0.0,0.0,1.6076,1.6612,1.6612,1.7256,1.7935,1.8498,1.8993,1.9345,1.9488,1.9786,1.9963,1.9963,2.0241,2.0438,2.0526,2.0668,2.079,2.0878,2.0845,2.077,2.0648,2.0614,2.0471,2.0261,2.0261,1.8905,1.622,1.5392,1.3465,1.0946,0.9973,0.9521,0.9331,0.6886,0.5423,0.4792,0.5403,0.377,0.1141,0.1139,0.0681,0.0,0.0,0.0,0.0,0.0,0.0,0.0,0.0,0.4865,0.261,0.1763,0.4163,0.5383,0.4014,0.7393,0.9241,0.7797,0.6624,0.591,0.5733,0.3451,0.2585,0.3668,0.5253,0.6606,0.766,0.7947,0.8919,1.0686,1.206,1.361,1.5335,1.5335,1.5335,1.5229,1.4047,1.3402,1.3503,1.4528,1.4958,1.4977,1.5815,1.5832,1.5337,1.5337,1.5194,1.4984,1.5011,1.4964,1.4875,1.4814,0.0,0.0,0.0,0.0,0.0,0.0,0.0,0.0,0.0,0.0,0.0,0.0,0.0,0.0,0.0,0.0,0.0,0.0,0.0,0.0,0.0,0.0,0.0,0.0,1.6904,1.7555,1.786,1.8287,1.8776,1.9379,1.98,2.0085,2.0241,2.0471,2.0614,2.0614,2.077,2.0892,2.0946,1.9595,1.9528,2.1177,1.8219,1.7994,2.0878,1.9368,1.9107,2.0417,1.8875,1.7149,1.4997,1.2141,0.9723,0.77,0.6264,0.559,0.5409,0.3474,0.2733,0.2703,0.0,0.0,0.0,0.0,0.0,0.0,0.0,0.0,0.0,0.0,0.0,0.0,0.0,0.3823,0.1917,0.024,0.2243,0.3722,0.3527,0.5866,0.7223,0.6911,0.482,0.3513,0.3414,0.1532,0.1286,0.3239,0.3736,0.4853,0.6839,0.7179,0.7488,0.7871,1.0653,1.2225,1.2551,1.2551,1.2551,1.2442,0.972,0.8518,0.8736,1.1338,1.2374,1.2511,1.5515,1.6417,1.5981,1.5981,1.5893,1.5744,1.5588,1.5527,1.5486,1.5316,0.0,0.0,0.0,0.0,0.0,0.0,0.0,0.0,0.0,0.0,0.0,0.0,0.0,0.0,0.0,0.0,0.0,0.0,0.0,0.0,0.0,0.0,0.0,0.0,1.7738,1.8477,1.9217,1.9345,1.9556,2.0085,2.0417,2.0668,2.0811,2.0967,2.1055,2.1055,2.1055,2.1109,2.1231,1.7785,0.0,0.0,0.0,1.3485,1.9811,1.655,1.6308,1.9255,1.6296,1.4574,1.3836,0.7824,0.4886,0.4229,0.1237,0.0,0.0,0.0,0.0,0.0,0.0,0.0,0.0,0.0,0.0,0.0,0.0,0.0,0.0,0.0,0.0,0.0,0.0,0.1811,0.0464,0.0082,0.225,0.3006,0.0996,0.3041,0.373,0.1698,0.1028,0.0738,0.0727,0.2228,0.2377,0.078,0.2742,0.3134,0.1588,0.1519,0.2747,0.5272,0.5875,0.7342,0.9661,0.9661,0.9661,0.9661,0.9111,0.8778,0.8889,0.9374,0.9484,0.9746,1.2748,1.507,1.6761,1.6761,1.6666,1.6517,1.6361,1.6232,1.6096,1.5818,1.5628,1.5486,1.5364,0.0,0.0,0.0,0.0,0.0,0.0,0.0,0.0,0.0,0.0,0.0,0.0,0.0,0.0,0.0,0.0,0.0,0.0,0.0,0.0,1.7738,1.8498,1.9257,2.001,2.0207,2.0329,2.0438,2.0824,2.1089,2.1123,2.1265,2.1353,2.1353,2.1353,2.1367,2.1387,1.8049,1.6455,1.7147,1.2979,1.1299,1.2462,1.1789,1.1701,1.2319,1.1555,0.0,0.6991,0.5679,0.3639,0.0874,0.0248,0.0,0.0,0.0,0.0,0.0,0.0,0.0,0.0,0.0,0.0,0.0,0.0,0.0,0.0,0.0,0.0,0.0,0.0,0.1274,0.0,0.0,0.1139,0.1417,0.0175,0.115,0.1343,0.0091,0.0,0.0,0.0,0.1227,0.1364,0.0101,0.1248,0.128,0.0,0.0,0.0777,0.2227,0.3799,0.5255,0.6704,0.6704,0.6704,0.6592,0.5167,0.4392,0.4502,0.5961,0.665,0.6896,0.9899,1.1812,1.3315,1.6201,1.727,1.7161,1.6863,1.6707,1.6598,1.6293,1.6096,1.5961,1.5886,1.5608,1.5276,0.0,0.0,0.0,0.0,0.0,0.0,0.0,0.0,0.0,0.0,0.0,0.0,0.0,0.0,1.6042,1.6639,0.0,1.7684,1.8511,1.9217,1.9834,2.0363,2.0682,2.0878,2.0878,2.1068,2.1245,2.1319,2.1387,2.1441,2.1441,2.1441,2.1441,2.1441,1.6332,1.4191,1.6076,0.9119,0.706,1.05,0.8663,0.8604,1.0271,0.848,0.6789,0.5091,0.3286,0.1632,0.0,0.0,0.0,0.0,0.0,0.0,0.0,0.0,0.0,0.0,0.0,0.0,0.0,0.0,0.0,0.0,0.0,0.0,0.0,0.0,0.0,0.0,0.0,0.0,0.0,0.0,0.0,0.0,0.0,0.0,0.0,0.0,0.0,0.0,0.0,0.0,0.0,0.0,0.0,0.0,0.0,0.2465,0.3583,0.3583,0.3583,0.3587,0.3481,0.1132,0.0,0.0114,0.2635,0.3677,0.3911,0.6888,0.8034,0.8698,1.3997,1.6322,1.6782,1.6363,1.6617,1.6978,1.67,1.6497,1.6354,1.6388,1.609,1.5696,1.554,1.5289,0.0,0.0,0.0,0.0,0.0,0.0,0.0,0.0,1.59,1.6137,1.6381,1.6524,1.6842,1.7589,1.7948,1.8409,1.9271,1.9854,2.0295,2.0627,2.0967,2.1177,2.1211,2.1231,2.1299,2.1421,2.1441,2.1441,2.1441,2.1441,2.1163,2.0367,1.4191,1.1786,1.3934,0.4837,0.2671,0.8406,0.5521,0.5478,0.8224,0.5396,0.4097,0.4065,0.1263,0.0,0.0,0.0,0.0,0.0,0.0,0.0,0.0,0.0,0.0,0.0,0.0,0.0,0.0,0.0,0.0,0.0,0.0,0.0,0.0,0.0,0.0,0.0,0.0,0.0,0.0,0.0,0.0,0.0,0.0,0.0,0.0,0.0,0.0,0.0,0.0,0.0,0.0,0.0,0.0,0.0,0.0,0.0337,0.0449,0.0449,0.0449,0.0451,0.0454,0.0114,0.0,0.0,0.0345,0.0462,0.0813,0.3941,0.5212,0.5555,0.8816,1.1689,1.3811,1.358,1.501,1.7148,1.6985,1.6734,1.6524,1.6659,1.6395,1.6001,1.5852,0.0,1.5357,1.5343,0.0,0.0,1.5886,1.5981,1.6144,0.0,1.6829,1.7012,1.7555,1.767,1.7914,1.8674,1.8938,1.9305,2.0085,2.0363,2.0648,2.1068,2.1068,2.1068,2.1197,2.1333,2.1421,2.1441,2.1441,2.1441,2.1441,2.1441,1.9956,1.6875,1.2854,0.9381,0.671,0.2287,0.0401,0.1186,0.0791,0.0785,0.116,0.0769,0.0509,0.0505,0.0125,0.0,0.0,0.0,0.0,0.0,0.0,0.0,0.0,0.0,0.0,0.0,0.0,0.0,0.0,0.0,0.0,0.0,0.0,0.0,0.0,0.0,0.0,0.0,0.0,0.0,0.0,0.0,0.0,0.0,0.0,0.0,0.0,0.0,0.0,0.0,0.0,0.0,0.0,0.0,0.0,0.0,0.0,0.0,0.0,0.0,0.0,0.0,0.0,0.0,0.0,0.0,0.0,0.0,0.0116,0.1395,0.1972,0.2075,0.3411,0.5618,0.8443,0.9956,1.2324,0.0,0.0,1.2989,1.4143,1.4278,1.5076,1.6069,1.6001,1.5778,0.0,1.5649,0.0,0.0,0.0,1.6537,1.6815,1.7161,1.7507,1.786,1.8179,1.8389,1.8694,1.9271,1.9501,1.9746,2.0241,2.0526,2.0736,2.0933,2.098,2.1021,2.1089,2.1143,2.1211,2.1299,2.1299,2.0402,1.8476,1.8355,1.6737,1.3125,0.9514,0.6978,0.5505,0.1875,0.0,0.0,0.0,0.0,0.0,0.0,0.0,0.0,0.0,0.0,0.0,0.0,0.0,0.0,0.0,0.0,0.0,0.0,0.0,0.0,0.0,0.0,0.0,0.0,0.0,0.0,0.0,0.0,0.0,0.0,0.0,0.0,0.0,0.0,0.0,0.0,0.0,0.0,0.0,0.0,0.0,0.0,0.0,0.0,0.0,0.0,0.0,0.0,0.0,0.0,0.0,0.0,0.0,0.0,0.0,0.0,0.0,0.0,0.0,0.0,0.0,0.0,0.0,0.0,0.0,0.0,0.0,0.1871,0.4639,0.6679,0.9261,0.0,0.0,0.9753,1.1441,1.2184,1.3661,1.5164,1.5803,1.5866,1.5723,1.5825,0.0,1.6341,1.6632,1.7046,1.7439,1.767,1.8091,1.8511,1.8728,1.8918,1.9183,1.9644,1.9766,1.9942,2.0329,2.056,2.0736,2.0824,2.0858,2.0878,2.0878,2.0804,2.0424,1.9694,1.9646,1.8295,1.482,1.4563,1.3104,0.9381,0.6844,0.4963,0.3886,0.1335,0.0,0.0,0.0,0.0,0.0,0.0,0.0,0.0,0.0,0.0,0.0,0.0,0.0,0.0,0.0,0.0,0.0,0.0,0.0,0.0,0.0,0.0,0.0,0.0,0.0,0.0,0.0,0.0,0.0,0.0,0.0,0.0,0.0,0.0,0.0,0.0,0.0,0.0,0.0,0.0,0.0,0.0,0.0,0.0,0.0,0.0,0.0,0.0,0.0,0.0,0.0,0.0,0.0,0.0,0.0,0.0,0.0,0.0,0.0,0.0,0.0,0.0,0.0,0.0,0.0,0.0,0.0,0.1704,0.4198,0.4337,0.0,0.0,0.0,0.8454,0.8896,1.1525,1.2308,0.0,1.5224,1.5852,0.0,0.0,0.0,1.6802,1.71,1.7507,1.7948,1.8389,1.862,1.8871,1.9305,1.9291,1.9325,1.9786,1.9752,1.9854,2.0438,2.0539,2.0648,2.0946,2.0736,2.056,2.056,2.0295,1.8968,1.5908,1.5876,1.4603,1.1127,1.0869,0.9312,0.5769,0.5505,0.3752,0.0267,0.0,0.0,0.0,0.0,0.0,0.0,0.0,0.0,0.0,0.0,0.0,0.0,0.0,0.0,0.0,0.0,0.0,0.0,0.0,0.0,0.0,0.0,0.0,0.0,0.0,0.0,0.0,0.0,0.0,0.0,0.0,0.0,0.0,0.0,0.0,0.0,0.0,0.0,0.0,0.0,0.0,0.0,0.0,0.0,0.0,0.0,0.0,0.0,0.0,0.0,0.0,0.0,0.0,0.0,0.0,0.0,0.0,0.0,0.0,0.0,0.0,0.0,0.0,0.0,0.0,0.0,0.0,0.0,0.0618,0.1402,0.0,0.0,0.0,0.0,0.0,0.0,0.8924,0.0,0.0,1.5442,0.0,0.0,0.0,1.6673,1.7019,1.7514,1.7826,1.8111,1.8464,1.8728,1.8918,1.8972,1.8938,1.8959,1.9115,1.9183,1.9345,1.9746,1.9976,2.0207,2.0505,2.0383,2.0295,2.0383,1.8323,1.5597,1.2265,1.6158,1.6625,1.1055,1.0578,0.9029,0.5331,0.3069,0.1202,0.0,0.0,0.0,0.0,0.0,0.0,0.0,0.0,0.0,0.0,0.0,0.0,0.0,0.0,0.0,0.0,0.0,0.0,0.0,0.0,0.0,0.0,0.0,-0.1295,-0.3173,0.0,0.0,0.0,0.0,0.0,0.0,0.0,0.0,0.0,0.0,0.0,0.0,0.0,0.0,0.0,0.0,0.0,0.0,0.0,0.0,0.0,0.0,0.0,0.0,0.0,0.0,0.0,0.0,0.0,0.0,0.0,0.0,0.0,0.0,0.0,0.0,0.0,0.0,0.0,0.0,0.0,0.0,0.0,0.0,0.0,0.0,0.0,0.0,0.0,0.0,0.0,0.0,0.0,0.0,0.0,0.0,0.0,0.0,1.6476,1.6863,1.727,1.7812,1.8091,1.8321,1.8552,1.8762,1.8871,1.8708,1.8511,1.8355,1.8355,1.8409,1.8565,1.8972,1.9379,1.9766,2.0119,2.0085,2.0051,2.0153,1.7151,1.3719,1.0262,1.4032,1.3966,0.729,0.7871,0.6992,0.3444,0.1194,0.0,0.0,0.0,0.0,0.0,0.0,0.0,0.0,0.0,0.0,0.0,0.0,0.0,0.0,0.0,0.0,0.0,0.0,0.0,0.0,0.0,-0.0706,-0.1648,-0.1648,-0.3637,-0.6193,0.0,0.0,0.0,0.0,0.0,0.0,0.0,0.0,0.0,0.0,0.0,0.0,0.0,0.0,0.0,0.0,0.0,0.0,0.0,0.0,0.0,0.0,0.0,0.0,0.0,0.0,0.0,0.0,0.0,0.0,0.0,0.0,0.0,0.0,0.0,0.0,0.0,0.0,0.0,0.0,0.0,0.0,0.0,0.0,0.0,0.0,0.0,0.0,0.0,0.0,0.0,0.0,0.0,0.0,0.0,0.0,1.554,1.6144,1.6307,1.689,1.7548,1.7989,1.8301,1.8552,1.8694,1.8728,1.8674,1.8498,1.8002,1.7589,1.7568,1.7467,1.7582,1.8179,1.8796,1.9345,1.98,1.9875,1.9875,1.9888,1.6656,1.3192,1.0065,0.9766,0.709,0.0515,0.3111,0.3788,0.0658,0.0132,0.0,0.0,0.0,0.0,0.0,0.0,0.0,0.0,0.0,0.0,0.0,0.0,0.0,0.0,0.0,0.0,0.0,0.0,0.0,0.0,-0.0236,-0.2117,-0.4698,-0.4929,-0.6884,-0.9033,0.0,0.0,0.0,0.0,0.0,0.0,0.0,0.0,0.0,0.0,0.0,0.0,0.0,0.0,0.0,0.0,0.0,0.0,0.0,0.0,0.0,0.0,0.0,0.0,0.0,0.0,0.0,0.0,0.0,0.0,0.0,0.0,0.0,0.0,0.0,0.0,0.0,0.0,0.0,0.0,0.0,0.0,0.0,0.0,0.0,0.0,0.0,0.0,0.0,0.0,0.0,0.0,0.0,1.4593,1.5316,1.5689,1.609,1.649,1.6863,1.7351,1.7812,1.8036,1.8233,1.8355,1.8287,1.8179,1.7989,1.7609,1.7148,1.6741,1.6524,1.672,1.7121,1.7717,1.8409,1.9115,1.9786,1.9875,1.9908,2.0031,1.4871,1.0996,1.0144,0.7824,0.4578,0.0384,0.3233,0.5856,0.7557,0.2742,0.0,0.0,0.0,0.0,0.0,0.0,0.0,0.0,0.0,0.0,0.0,0.0,0.0,0.0,0.0,0.0,0.0,0.0,0.0,-0.0236,-0.2587,-0.3996,-0.4929,-0.722,-0.9975,-1.2475,0.0,0.0,0.0,0.0,0.0,0.0,0.0,0.0,0.0,0.0,0.0,0.0,0.0,0.0,0.0,0.0,0.0,0.0,0.0,0.0,0.0,0.0,0.0,0.0,0.0,0.0,0.0,0.0,0.0,0.0,0.0,0.0,0.0,0.0,0.0,0.0,0.0,0.0,0.0,0.0,0.0,0.0,0.0,0.0,0.0,0.0,0.0,0.0,0.0,0.6825,0.9294,1.2746,1.4573,1.5303,1.5655,1.6062,1.6442,1.6809,1.7188,1.7568,1.7901,1.8057,1.8111,1.8023,1.7684,1.7487,1.6869,1.5302,1.5399,1.5451,1.4189,1.512,1.6341,1.6876,1.7806,1.8708,1.94,1.9664,1.9841,1.9976,1.5415,1.1803,1.0179,0.8477,0.5967,0.2538,0.3982,0.5299,0.5796,0.2065,0.0,0.0,0.0,0.0,0.0,0.0,0.0,0.0,0.0,0.0,0.0,0.0,0.0,0.0,0.0,0.0,0.0,0.0,-0.0824,-0.2234,-0.3982,-0.6303,-0.8857,-1.0518,-1.3101,-1.5674,0.0,0.0,0.0,0.0,0.0,0.0,0.0,0.0,0.0,0.0,0.0,0.0,0.0,0.0,0.0,0.0,0.0,0.0,0.0,0.0,0.0,0.0,0.0,0.0,0.0,0.0,0.0,0.0,0.0,0.0,0.0,0.0,0.0,0.0,0.0,0.0,0.0,0.0,0.0,0.0,0.0,0.0,0.0,0.0,0.0,0.0,0.0,0.0,0.0,1.1162,1.2789,1.4652,1.5099,1.5642,1.6151,1.6341,1.6707,1.71,1.7378,1.767,1.7914,1.8002,1.7914,1.765,1.7032,1.6513,1.5303,1.256,1.3343,1.3723,1.1574,1.3419,1.5493,1.6022,1.7175,1.8233,1.8905,1.9359,1.9698,1.9854,1.7134,1.3831,1.044,1.0122,0.8612,0.4661,0.484,0.3839,0.0892,0.0255,0.0,0.0,0.0,0.0,0.0,0.0,0.0,0.0,0.0,0.0,0.0,0.0,0.0,0.0,0.0,0.0,0.0,-0.047,-0.2229,-0.4797,-0.5459,-0.9023,-1.3848,-1.4093,-1.5801,-1.8091,0.0,0.0,0.0,0.0,0.0,0.0,0.0,0.0,0.0,0.0,0.0,0.0,0.0,0.0,0.0,0.0,0.0,0.0,0.0,0.0,0.0,0.0,0.0,0.0,0.0,0.0,0.0,0.0,0.0,0.0,0.0,0.0,0.0,0.0,0.0,0.0,0.0,0.0,0.0,0.0,0.0,0.0,0.0,0.0,0.0,0.0,0.0,0.0,0.0,0.0,1.4216,1.497,1.5418,1.5886,1.6347,1.6748,1.7093,1.7385,1.7561,1.7826,1.8002,1.7772,1.7609,1.7311,1.6592,1.4713,0.0,1.1743,1.146,1.1302,1.0906,1.3004,1.5167,1.6117,1.6985,1.788,1.885,1.9271,1.9569,1.9841,1.7085,1.3939,1.0521,1.0156,0.7482,0.1388,0.3408,0.4672,0.4289,0.1517,0.0,0.0,0.0,0.0,0.0,0.0,0.0,0.0,0.0,0.0,0.0,0.0,0.0,0.0,0.0,0.0,-0.0231,-0.2653,-0.4033,-0.5068,-1.0101,-1.2725,-1.3974,-1.6364,-1.7663,-1.8077,0.0,0.0,0.0,0.0,0.0,0.0,0.0,0.0,0.0,0.0,0.0,0.0,0.0,0.0,0.0,0.0,0.0,0.0,0.0,0.0,0.0,0.0,0.0,0.0,0.0,0.0,0.0,0.0,0.0,0.0,0.0,0.0,0.0,0.0,0.0,0.0,0.0,0.0,0.0,0.0,0.0,0.0,0.0,0.0,0.0,0.0,0.0,0.0,0.0,0.0,1.4428,1.4848,1.5533,1.6008,1.6415,1.6937,1.7249,1.7453,1.7609,1.7806,1.7914,1.7704,1.7358,1.6516,1.4533,0.0,0.0,0.7889,0.8915,0.9933,0.8702,1.175,1.4584,1.5167,1.5886,1.6741,1.7792,1.8267,1.8762,1.9447,1.8476,1.5712,1.0731,1.1737,0.9191,0.0628,0.3121,0.4229,0.2492,0.0867,0.0,0.0,0.0,0.0,0.0,0.0,0.0,0.0,0.0,0.0,0.0,0.0,0.0,0.0,0.0,-0.092,-0.2412,-0.3904,-0.6415,-0.9497,-1.2413,-1.4542,-1.6127,-1.7465,-1.7968,-1.7968,0.0,0.0,0.0,0.0,0.0,0.0,0.0,0.0,0.0,0.0,0.0,0.0,0.0,0.0,0.0,0.0,0.0,0.0,0.0,0.0,0.0,0.0,0.0,0.0,0.0,0.0,0.0,0.0,0.0,0.0,0.0,0.0,0.0,0.0,0.0,0.0,0.0,0.0,0.0,0.0,0.0,0.0,0.0,0.0,0.0,0.0,0.0,0.0,1.3722,1.3878,1.4102,1.4462,1.5269,1.5839,1.6313,1.6809,1.7127,1.7358,1.7507,1.765,1.7724,1.7548,1.7053,1.5727,1.2729,1.1196,0.9219,0.4427,0.6486,0.8693,0.6861,1.0576,1.3973,1.4251,1.4869,1.5669,1.6693,1.7249,1.7686,1.791,1.9026,1.6895,0.9697,1.2704,1.094,0.0744,0.2457,0.2815,0.0123,0.0,0.0,0.0,0.0,0.0,0.0,0.0,0.0,0.0,0.0,0.0,0.0,0.0,0.0,0.0,-0.0686,-0.2285,-0.4563,-0.5928,-0.9221,-1.3649,-1.4119,-1.5889,-1.8023,-1.7914,-1.786,-1.786,0.0,0.0,0.0,0.0,0.0,0.0,0.0,0.0,0.0,0.0,0.0,0.0,0.0,0.0,0.0,0.0,0.0,0.0,0.0,0.0,0.0,0.0,0.0,0.0,0.0,0.0,0.0,0.0,0.0,0.0,0.0,0.0,0.0,0.0,0.0,0.0,0.0,0.0,0.0,0.0,0.0,0.0,0.0,0.0,0.0,0.0,0.0,1.1148,1.3254,1.341,1.3573,1.3797,1.4285,1.5113,1.5934,1.613,1.6578,1.7053,1.7195,1.7344,1.7392,1.7114,1.6592,1.5408,1.2359,0.0,0.693,0.4031,0.5145,0.662,0.6522,1.0249,1.3485,1.4183,1.4699,1.533,1.6246,1.687,1.6487,1.4376,1.7073,1.553,0.6397,1.1158,1.0689,0.0727,0.024,0.036,0.0,0.0,0.0,0.0,0.0,0.0,0.0,0.0,0.0,0.0,0.0,0.0,0.0,0.0,0.0,-0.0112,-0.2919,-0.4264,-0.4933,-1.0404,-1.2864,-1.3642,-1.6434,-1.7652,-1.788,-1.786,-1.786,-1.786,0.0,0.0,0.0,0.0,0.0,0.0,0.0,0.0,0.0,0.0,0.0,0.0,0.0,0.0,0.0,0.0,0.0,0.0,0.0,0.0,0.0,0.0,0.0,0.0,0.0,0.0,0.0,0.0,0.0,0.0,0.0,0.0,0.0,0.0,0.0,0.0,0.0,0.0,0.0,0.0,0.0,0.0,0.0,0.0,0.0,0.0,0.0,0.0,1.3057,1.3119,1.3234,1.337,1.3464,1.4021,1.478,1.5472,1.5974,1.6374,1.67,1.6965,1.708,1.6781,1.632,1.4802,1.0465,0.0,0.6211,0.2155,0.4005,0.6342,0.637,0.9967,1.2594,1.1641,1.1646,1.2131,1.3079,1.368,1.3693,1.3176,1.4636,1.2862,0.5645,0.7257,0.6331,0.0476,0.0,0.0,0.0,0.0,0.0,0.0,0.0,0.0,0.0,0.0,0.0,0.0,0.0,0.0,-0.0112,-0.1905,-0.2689,-0.2911,-0.5815,-0.8157,-1.0047,-1.2385,-1.4503,-1.6176,-1.7405,-1.786,-1.786,-1.786,-1.786,-1.786,0.0,0.0,0.0,0.0,0.0,0.0,0.0,0.0,0.0,0.0,0.0,0.0,0.0,0.0,0.0,0.0,0.0,0.0,0.0,0.0,0.0,0.0,0.0,0.0,0.0,0.0,0.0,0.0,0.0,0.0,0.0,0.0,0.0,0.0,0.0,0.0,0.0,0.0,0.0,0.0,0.0,0.0,0.0,0.0,0.0,0.0,0.0,0.0,0.0,0.0,0.0,1.2949,1.2807,0.0,0.0,1.4638,1.5255,1.5669,1.6029,1.6347,1.6312,1.534,1.4858,1.3175,0.7989,0.6563,0.5075,0.0873,0.3366,0.6332,0.6332,0.9281,1.1233,0.9814,0.9099,0.9284,1.0825,1.079,1.0749,1.1107,1.1779,0.9867,0.4067,0.348,0.2468,0.0117,0.0,0.0,0.0,0.0,0.0,0.0,0.0,0.0,0.0,0.0,0.0,0.0,0.0,-0.0449,-0.1458,-0.3583,-0.4923,-0.5927,-0.8933,-1.1385,-1.35,-1.4392,-1.596,-1.786,-1.786,-1.7846,-1.7792,-1.7792,-1.7792,-1.7792,0.0,0.0,0.0,0.0,0.0,0.0,0.0,0.0,0.0,0.0,0.0,0.0,0.0,0.0,0.0,0.0,0.0,0.0,0.0,0.0,0.0,0.0,0.0,0.0,0.0,0.0,0.0,0.0,0.0,0.0,0.0,0.0,0.0,0.0,0.0,0.0,0.0,0.0,0.0,0.0,0.0,0.0,0.0,0.0,0.0,0.0,0.0,0.0,0.0,0.0,0.0,0.0,0.0,0.0,0.0,0.0,1.4387,1.5011,1.516,1.5418,1.5028,1.2458,1.1684,1.0121,0.5163,0.3805,0.2944,0.0475,0.3366,0.6332,0.6332,0.805,0.9454,0.9609,0.797,0.7631,1.0351,0.9013,0.771,0.7481,0.8296,0.6564,0.0639,0.0,0.0,0.0,0.0,0.0,0.0,0.0,0.0,0.0,0.0,0.0,0.0,0.0,0.0,0.0,0.0,-0.157,-0.4474,-0.4476,-0.6039,-0.9045,-1.2048,-1.3389,-1.3616,-1.6624,-1.786,-1.786,-1.786,-1.7772,-1.765,-1.765,-1.765,-1.765,0.0,0.0,0.0,0.0,0.0,0.0,0.0,0.0,0.0,0.0,0.0,0.0,0.0,0.0,0.0,0.0,0.0,0.0,0.0,0.0,0.0,0.0,0.0,0.0,0.0,0.0,0.0,0.0,0.0,0.0,0.0,0.0,0.0,0.0,0.0,0.0,0.0,0.0,0.0,0.0,0.0,0.0,0.0,0.0,0.0,0.0,0.0,0.0,0.0,0.0,0.0,0.0,0.0,0.0,0.0,0.0,0.0,0.0,1.4027,1.3281,1.2145,1.1298,0.9907,0.7976,0.4637,0.3718,0.2915,0.0474,0.3366,0.5851,0.4415,0.7026,0.8487,0.564,0.4635,0.4585,0.5722,0.5467,0.5104,0.4876,0.3596,0.2056,0.0221,0.0,0.0,0.0,0.0,0.0,0.0,0.0,0.0,0.0,0.0,0.0,0.0,0.0,0.0,0.0,-0.2123,-0.3583,-0.4588,-0.8707,-1.1048,-1.2163,-1.5168,-1.6514,-1.6514,-1.7522,-1.7812,-1.7717,-1.7717,-1.7623,-1.7494,-1.7494,-1.7494,-1.7507,0.0,0.0,0.0,0.0,0.0,0.0,0.0,0.0,0.0,0.0,0.0,0.0,0.0,0.0,0.0,0.0,0.0,0.0,0.0,0.0,0.0,0.0,0.0,0.0,0.0,0.0,0.0,0.0,0.0,0.0,0.0,0.0,0.0,0.0,0.0,0.0,0.0,0.0,0.0,0.0,0.0,0.0,0.0,0.0,0.0,0.0,0.0,0.0,0.0,0.0,0.0,0.0,0.0,0.0,0.0,0.0,0.0,0.0,0.0,1.138,1.0136,0.8484,0.7077,0.5416,0.2961,0.2277,0.1846,0.0315,0.2732,0.4655,0.3313,0.5281,0.6167,0.3491,0.2473,0.2297,0.343,0.2961,0.2408,0.2244,0.0929,0.0,0.0,0.0,0.0,0.0,0.0,0.0,0.0,0.0,-0.0442,-0.1547,-0.0552,0.0,0.0,-0.1098,-0.1543,-0.1653,-0.4644,-0.6645,-0.7852,-1.1497,-1.3816,-1.5035,-1.6911,-1.7704,0.0,-1.7704,-1.765,-1.7561,-1.7561,-1.7467,-1.7331,-1.7331,-1.7331,-1.7358,0.0,0.0,0.0,0.0,0.0,0.0,0.0,0.0,0.0,0.0,0.0,0.0,0.0,0.0,0.0,0.0,0.0,0.0,0.0,0.0,0.0,0.0,0.0,0.0,0.0,0.0,0.0,0.0,0.0,0.0,0.0,0.0,0.0,0.0,0.0,0.0,0.0,0.0,0.0,0.0,0.0,0.0,0.0,0.0,0.0,0.0,0.0,0.0,0.0,0.0,0.0,0.0,0.0,0.0,0.0,0.0,0.0,0.0,0.0,0.0,0.0,0.0,0.3413,0.2743,0.0486,0.0,0.0,0.0,0.1629,0.3074,0.2917,0.2965,0.3081,0.2897,0.1224,0.079,0.2988,0.1454,0.0,0.0,0.0,0.0,0.0,0.0,0.0,0.0,0.0,0.0,0.0,0.0,-0.1304,-0.4084,-0.1627,-0.0436,-0.0655,-0.316,-0.4466,-0.4575,-0.7405,-1.034,-1.3058,-1.3166,-1.4804,-1.7419,-1.7419,-1.7419,-1.7419,-1.7419,-1.7412,-1.7405,-1.7405,-1.7311,-1.7175,-1.7175,-1.7175,-1.7195,0.0,0.0,0.0,0.0,0.0,0.0,0.0,0.0,0.0,0.0,0.0,0.0,0.0,0.0,0.0,0.0,0.0,0.0,0.0,0.0,0.0,0.0,0.0,0.0,0.0,0.0,0.0,0.0,0.0,0.0,0.0,0.0,0.0,0.0,0.0,0.0,0.0,0.0,0.0,0.0,0.0,0.0,0.0,0.0,0.0,0.0,0.0,0.0,0.0,0.0,0.0,0.0,0.0,0.0,0.0,0.0,0.0,0.0,0.0,0.0,0.0,0.0,0.1976,0.0687,0.0,0.0,0.0,0.0,0.1685,0.265,0.1051,0.2017,0.2605,0.0967,0.0304,0.0234,0.08,0.0352,0.0,0.0,0.0,0.0,0.0,0.0,0.0,0.0,0.0,0.0,0.0,0.0,-0.1276,-0.3972,-0.3456,-0.4219,-0.6514,-0.7202,-0.744,-0.7551,-1.0524,-1.23,-1.3058,-1.5344,-1.6766,-1.7419,-1.7419,-1.7419,-1.7419,-1.7419,-1.7351,-1.7249,-1.7249,-1.7154,-1.7032,-1.7032,-1.7032,-1.7362,0.0,0.0,0.0,0.0,0.0,0.0,0.0,0.0,0.0,0.0,0.0,0.0,0.0,0.0,0.0,0.0,0.0,0.0,0.0,0.0,0.0,0.0,0.0,0.0,0.0,0.0,0.0,0.0,0.0,0.0,0.0,0.0,0.0,0.0,0.0,0.0,0.0,0.0,0.0,0.0,0.0,0.0,0.0,0.0,0.0,0.0,0.0,0.0,0.0,1.1382,1.1402,1.1402,0.0,0.0,0.0,0.0,0.0,0.0,0.0,0.0,0.0,0.1997,0.0743,0.0,0.0,0.0,0.0,0.0,0.09,0.1334,0.022,0.0949,0.1313,0.0219,0.0,0.0,0.0,0.0,0.0,0.0,0.0,0.0,0.0,0.0,0.0,0.0,0.0,0.0,0.0,-0.1157,-0.3138,-0.5893,-0.7129,-0.799,-0.8281,-0.9581,-1.0235,-1.0235,-1.3306,-1.4751,-1.4756,-1.6431,-1.7216,-1.7216,-1.7216,-1.7216,-1.7216,-1.7216,-1.7127,-1.6992,-1.6992,-1.6944,-1.6974,-1.8314,-1.8879,-1.9276,0.0,0.0,0.0,0.0,0.0,0.0,0.0,0.0,0.0,0.0,0.0,0.0,0.0,0.0,0.0,0.0,0.0,0.0,0.0,0.0,0.0,0.0,0.0,0.0,0.0,0.0,0.0,0.0,0.0,0.0,0.0,0.0,0.0,0.0,0.0,0.0,0.0,0.0,0.0,0.0,0.0,0.0,0.0,0.0,0.0,0.0,0.0,0.0,0.0,1.1158,1.1233,1.1328,1.1375,0.0,0.0,0.0,0.0,0.0,0.0,0.5389,0.4467,0.0888,0.0,0.0,0.0,0.0,0.0,0.0,0.0,0.0,0.0,0.0,0.0,0.0,0.0,0.0,0.0,0.0,0.0,0.0,0.0,0.0,0.0,0.0,0.0,0.0,0.0,-0.0211,-0.0517,-0.2785,-0.5451,-0.8702,-1.1056,-1.1264,-0.922,-1.1632,-1.2903,-1.3005,-1.5506,-1.6714,-1.672,-1.6849,-1.691,-1.691,-1.691,-1.691,-1.691,-1.691,-1.6836,-1.6714,-1.6714,-1.692,-1.7533,-2.0003,-2.1225,-2.2113,0.0,0.0,0.0,0.0,0.0,0.0,0.0,0.0,0.0,0.0,0.0,0.0,0.0,0.0,0.0,0.0,0.0,0.0,0.0,0.0,0.0,0.0,0.0,0.0,0.0,0.0,0.0,0.0,0.0,0.0,0.0,0.0,0.0,0.0,0.0,0.0,0.0,0.0,0.0,0.0,0.2661,0.0,0.0,0.0,0.0,0.0,0.0,0.0,0.0,1.1124,1.1097,1.1063,1.1314,0.0,0.0,0.0,0.0,0.0,0.3778,0.3324,0.2841,0.0588,0.0,0.0,0.0,0.0,0.0,0.0,0.0,0.0,0.0,0.0,0.0,0.0,0.0,0.0,0.0,0.0,0.0,0.0,0.0,0.0,0.0,0.0,0.0,0.0,0.0,-0.093,-0.3141,-0.3642,-0.6017,-1.0937,-1.1525,-1.2607,-1.4391,-1.5353,-1.5897,-1.5897,-1.6339,-1.6558,-1.6558,-1.6578,-1.6592,-1.6592,-1.6592,-1.6592,-1.6592,-1.6592,-1.6578,-1.6558,-1.6558,-1.7866,-1.9902,-2.0662,-2.2358,-2.4667,0.0,0.0,0.0,0.0,0.0,0.0,0.0,0.0,0.0,0.0,0.0,0.0,0.0,0.0,0.0,0.0,0.0,0.0,0.0,0.0,0.0,0.0,0.0,0.0,0.0,0.0,0.0,0.0,0.0,0.0,0.0,0.0,0.0,0.0,0.0,0.0,0.0,0.0,0.0,0.0,0.0,0.0,0.0,0.0,0.0,0.0,0.0,0.0,0.0,0.0,1.0312,0.9523,0.9641,0.0,0.0,0.0,0.0,0.0,0.3134,0.2157,0.109,0.0219,0.0,0.0,0.0,0.0,0.0,0.0,0.0,0.0,0.0,0.0,0.0,0.0,0.0,0.0,0.0,0.0,0.0,0.0,0.0,0.0,0.0,0.0,-0.0617,-0.1942,-0.2043,-0.3139,-0.5755,-0.7231,-0.9068,-1.1523,-1.2989,-1.4364,-1.5545,-1.5906,-1.6083,-1.6164,-1.6246,-1.6327,-1.6408,-1.6483,-1.6524,-1.6524,-1.6524,-1.6524,-1.6524,-1.6524,-1.6476,-1.6503,-1.8,-1.9195,-2.0728,-2.4034,-2.6966,-2.9682,0.0,0.0,0.0,0.0,0.0,0.0,0.0,0.0,0.0,0.0,0.0,0.0,0.0,0.0,0.0,0.0,0.0,0.0,0.0,0.0,0.0,0.0,0.0,0.0,0.0,0.0,0.0,0.0,0.0,0.0,0.0,0.0,0.0,0.0,0.0,0.0,0.0,0.0,0.0,0.0,0.0,0.0,0.0,0.0,0.0,0.0,0.0,0.0,0.0,0.0,0.0,0.0,0.0,0.0,0.0,0.5093,0.3774,0.224,0.224,0.1126,0.0,0.0,0.0,0.0,0.0,0.0,0.0,0.0,0.0,0.0,0.0,0.0,0.0,0.0,0.0,0.0,0.0,0.0,0.0,0.0,0.0,-0.0202,-0.0819,-0.0916,-0.1919,-0.4504,-0.4702,-0.5755,-0.8383,-1.0413,-1.1859,-1.2411,-1.4456,-1.5533,-1.5533,-1.5533,-1.5622,-1.5805,-1.592,-1.6042,-1.6157,-1.63,-1.6368,-1.6368,-1.6402,-1.6415,-1.6415,-1.6415,-1.6752,-1.7343,-1.941,-2.1036,-2.2836,-2.7878,-3.1264,-3.3454,0.0,0.0,0.0,0.0,0.0,0.0,0.0,0.0,0.0,0.0,0.0,0.0,0.0,0.0,0.0,0.0,0.0,0.0,0.0,0.0,0.0,0.0,0.0,0.0,0.0,0.0,0.0,0.0,0.0,0.0,0.0,0.0,0.0,0.0,0.0,0.0,0.0,0.0,0.0,0.0,0.0,0.0,0.0,0.0,0.0,0.0,0.0,0.0,0.0,0.0,0.0,0.0,0.0,0.0,0.2958,0.3066,0.1751,0.021,0.021,0.0071,0.0,0.0,0.0,0.0,0.0,0.0,0.0,0.0,0.0,0.0,0.0,0.0,0.0,0.0,0.0,0.0,0.0,0.0,0.0,0.0,0.0,-0.0894,-0.3346,-0.3538,-0.4612,-0.7153,-0.7348,-0.848,-1.0989,-1.1266,-1.2472,-1.4838,-1.512,-1.5215,-1.5215,-1.5215,-1.5364,-1.5655,-1.5662,-1.5676,-1.5689,-1.5839,-1.59,-1.5906,-1.6049,-1.611,-1.611,-1.611,-1.7573,-1.9708,-1.9897,-2.3365,-2.8421,-3.1261,-3.2821,-3.3414,0.0,0.0,0.0,0.0,0.0,0.0,0.0,0.0,0.0,0.0,0.0,0.0,0.0,0.0,0.0,0.0,0.0,0.0,0.0,0.0,0.0,0.0,0.0,0.0,0.0,0.0,0.0,0.0,0.0,0.0,0.0,0.0,0.0,0.0,0.0,0.0,0.0,0.0,0.0,0.0,0.0,0.0,0.0,0.0,0.0,0.0,0.0,0.0,0.0,0.0,0.6831,0.5235,0.4117,0.2503,0.1017,0.1091,0.0547,0.0,0.0,0.0,0.0,0.0,0.0,0.0,0.0,0.0,0.0,0.0,0.0,0.0,0.0,0.0,0.0,0.0,0.0,0.0,0.0,0.0,-0.0584,-0.2144,-0.2354,-0.3343,-0.5871,-0.6161,-0.7216,-0.978,-0.9968,-1.108,-1.3642,-1.3731,-1.4191,-1.5181,-1.5181,-1.5181,-1.5181,-1.5181,-1.5242,-1.5357,-1.5452,-1.5547,-1.5642,-1.5696,-1.6584,-1.8013,-1.8083,-1.8971,-2.0421,-2.0536,-2.126,-2.2326,-2.411,-2.7301,-3.1004,-3.2173,-3.2799,-3.3173,0.0,0.0,0.0,0.0,0.0,0.0,0.0,0.0,0.0,0.0,0.0,0.0,0.0,0.0,0.0,0.0,0.0,0.0,0.0,0.0,0.0,0.0,0.0,0.0,0.0,0.0,0.0,0.0,0.0,0.0,0.0,0.0,0.0,0.0,0.0,0.0,0.0,0.0,0.0,0.0,0.0,0.0,0.0,0.0,0.0,0.0,0.0,0.0,0.0,0.0,0.603,0.4225,0.2417,0.1009,0.0,0.0,0.0,0.0,0.0,0.0,0.0,0.0,0.0,0.0,0.0,0.0,0.0,0.0,0.0,0.0,0.0,0.0,0.0,0.0,0.0,-0.0277,-0.1053,-0.1158,-0.2128,-0.4653,-0.4944,-0.5904,-0.8484,-0.8649,-0.9659,-1.225,-1.2467,-1.3311,-1.5026,-1.516,-1.5181,-1.5181,-1.5181,-1.5181,-1.5181,-1.6018,-1.6385,-1.6385,-1.6495,-1.6518,-1.6627,-1.6678,-1.8025,-2.0381,-2.0443,-2.1422,-2.3034,-2.3184,-2.3772,-2.4907,-2.7771,-3.0204,-3.2144,-3.2438,-3.2732,-3.3026,0.0,0.0,0.0,0.0,0.0,0.0,0.0,0.0,0.0,0.0,0.0,0.0,0.0,0.0,0.0,0.0,0.0,0.0,0.0,0.0,0.0,0.0,0.0,0.0,0.0,0.0,0.0,0.0,0.0,0.0,0.0,0.0,0.0,0.0,0.0,0.0,0.0,0.0,0.0,0.0,0.0,0.0,0.0,0.0,0.0,0.0,0.0,0.0,0.0,0.0,0.4225,0.2417,0.0538,0.0,0.0,0.0,0.0,0.0,0.0,0.0,0.0,0.0,0.0,0.0,0.0,0.0,0.0,0.0,0.0,0.0,0.0,0.0,0.0,0.0,0.0,-0.0921,-0.3409,-0.3834,-0.4802,-0.7318,-0.7497,-0.841,-1.0943,-1.1018,-1.1964,-1.4551,-1.4882,-1.497,-1.497,-1.5099,-1.5181,-1.5181,-1.5181,-1.5181,-1.5181,-1.767,-1.8862,-1.8862,-1.8955,-1.8955,-1.8964,-1.9065,-2.0458,-2.2796,-2.2923,-2.3024,-2.3118,-2.3024,-2.4767,-2.7582,-3.0165,-3.1583,-3.2131,-3.2425,-3.2732,-3.3013,0.0,0.0,0.0,0.0,0.0,0.0,0.0,0.0,0.0,0.0,0.0,0.0,0.0,0.0,0.0,0.0,0.0,0.0,0.0,0.0,0.0,0.0,0.0,0.0,0.0,0.0,0.0,0.0,0.0,0.0,0.0,0.0,0.0,0.0,0.0,0.0,0.0,0.0,0.0,0.0,0.0,0.0,0.0,0.0,0.0,0.0,0.0,0.0,0.0,0.0,0.0,0.0,0.0538,0.0,0.0,0.0,0.0,0.0,0.0,0.0,0.0,0.0,0.0,0.0,0.0,0.0,0.0,0.0,0.0,0.0,0.0,0.0,0.0,0.0,-0.1428,-0.2837,-0.3532,-0.5039,-0.709,-0.9662,-0.9847,-1.0854,-1.3419,-1.3651,-1.3906,-1.4649,-1.478,-1.4808,-1.4808,-1.4848,-1.4869,-1.4869,-1.4869,-1.4869,-1.4869,-1.7222,-1.8399,-1.8399,-2.0244,-2.1298,-2.1452,-1.9759,-2.1261,-2.5148,-2.5215,-2.627,-2.7859,-2.8148,-2.8859,-2.9894,-3.0862,-3.133,-3.1543,-3.2051,-3.2425,-3.2719,0.0,0.0,0.0,0.0,0.0,0.0,0.0,0.0,0.0,0.0,0.0,0.0,0.0,0.0,0.0,0.0,0.0,0.0,0.0,0.0,0.0,0.0,0.0,0.0,0.0,0.0,0.0,0.0,0.0,0.0,0.0,0.0,0.0,0.0,0.0,0.0,0.0,0.0,0.0,0.0,0.0,0.0,0.0,0.0,0.0,0.0,0.0,0.0,0.0,0.0,0.0,0.0,0.0604,0.0,0.0,0.0,0.0,0.0,0.0,0.0,0.0,0.0,0.0,0.0,0.0,0.0,0.0,0.0,0.0,0.0,0.0,-0.0783,-0.14,-0.1406,-0.3404,-0.5379,-0.6351,-0.7738,-0.956,-1.1988,-1.2306,-1.2807,-1.4303,-1.4421,-1.4407,-1.4468,-1.4529,-1.459,-1.4645,-1.4706,-1.474,-1.474,-1.474,-1.474,-1.474,-1.7969,-1.9662,-1.9662,-2.2199,-2.405,-2.5026,-2.2841,-2.393,-2.7702,-2.7702,-2.8526,-2.9927,-3.0114,-3.0354,-3.0635,-3.0808,-3.1022,-3.1289,-3.1757,-3.2118,-3.2425,0.0,0.0,0.0,0.0,0.0,0.0,0.0,0.0,0.0,0.0,0.0,0.0,0.0,0.0,0.0,0.0,0.0,0.0,0.0,0.0,0.0,0.0,0.0,0.0,0.0,0.0,0.0,0.0,0.0,0.0,0.0,0.0,0.0,0.0,0.0,0.0,0.0,0.0,0.0,0.0,0.0,0.0,0.0,0.0,0.0,0.0,0.0,0.0,0.0,0.0,0.0,0.0,0.0534,0.0,0.0,0.0,0.0,0.0,0.0,0.0,0.0,0.0,0.0,0.0,0.0,0.0,0.0,0.0,0.0,-0.0088,-0.0265,-0.212,-0.3627,-0.3837,-0.585,-0.8257,-1.0513,-1.1074,-1.1949,-1.4193,-1.434,-1.4204,-1.4061,-1.3926,-1.3899,-1.4041,-1.4352,-1.4578,-1.4709,-1.4847,-1.4923,-1.4923,-1.4749,-1.4658,-1.4658,-1.9374,-2.1777,-2.1886,-2.4405,-2.6834,-2.8931,-2.7047,-2.7497,-2.9913,-2.9913,-2.9913,-2.9913,-2.9913,-3.0074,-3.0327,-3.0354,-3.0675,-3.1183,-3.1517,-3.181,-3.2144,0.0,0.0,0.0,0.0,0.0,0.0,0.0,0.0,0.0,0.0,0.0,0.0,0.0,0.0,0.0,0.0,0.0,0.0,0.0,0.0,0.0,0.0,0.0,0.0,0.0,0.0,0.0,0.0,0.0,0.0,0.0,0.0,0.0,0.0,0.0,0.0,0.0,0.0,0.0,0.0,0.0,0.0,0.0,0.0,0.0,0.0,0.0,0.0,0.0,0.0,0.0,0.0,0.0131,0.0,0.0,0.0,0.0,0.0,0.0,0.0,0.0,0.0,0.0,0.0,0.0,0.0,0.0,0.0,0.0,-0.0536,-0.2499,-0.3211,-0.4182,-0.5919,-0.8217,-0.9888,-1.0349,-1.201,-1.3407,-1.39,-1.396,-1.3926,-1.3892,-1.3858,-1.3858,-1.3885,-1.5537,-1.651,-1.6543,-1.6583,-1.6607,-1.6607,-1.4894,-1.3947,-1.3947,-1.8547,-2.1013,-2.1272,-2.5531,-2.7945,-2.8638,-2.6778,-2.7324,-2.9913,-2.9913,-2.9913,-2.9913,-2.9913,-2.9953,-3.0034,-3.0274,-3.0434,-3.0608,-3.1129,-3.1503,-3.181,0.0,0.0,0.0,0.0,0.0,0.0,0.0,0.0,0.0,0.0,0.0,0.0,0.0,0.0,0.0,0.0,0.0,0.0,0.0,0.0,0.0,0.0,0.0,0.0,0.0,0.0,0.0,0.0,0.0,0.0,0.0,0.0,0.0,0.0,0.0,0.0,0.0,0.0,0.0,0.0,0.0,0.0,0.0,0.0,0.0,0.0,0.0,0.0,0.0,0.0,0.0,0.0,0.0,0.0,0.0,0.0,0.0,0.0,0.0,0.0,0.0,0.0,0.0,0.0,0.0,0.0,-0.034,-0.1395,-0.1584,-0.2029,-0.3261,-0.5283,-0.7199,-0.8379,-1.0508,-1.1921,-1.1857,-1.29,-1.36,-1.3532,-1.3519,-1.3492,-1.3424,-1.4387,-1.5037,-1.5112,-1.727,-1.8531,-1.8632,-1.8641,-1.8135,-1.7137,-1.6959,-1.6451,-1.5361,-1.9893,-2.2215,-2.2335,-2.6024,-2.7949,-2.8404,-2.7659,-2.8079,-2.9499,-2.9499,-2.9579,-2.9713,-2.9713,-2.9793,-2.9927,-3.0087,-3.0234,-3.0394,-3.0702,-3.1089,-3.1679,0.0,0.0,0.0,0.0,0.0,0.0,0.0,0.0,0.0,0.0,0.0,0.0,0.0,0.0,0.0,0.0,0.0,0.0,0.0,0.0,0.0,0.0,0.0,0.0,0.0,0.0,0.0,0.0,0.0,0.0,0.0,0.0,0.0,0.0,0.0,0.0,0.0,0.0,0.0,0.0,0.0,0.0,0.0,0.0,0.0,0.0,0.0,0.0,0.2221,0.0563,0.0,0.0,0.0,0.0,0.0,0.0,0.0,0.0,0.0,0.0,0.0,0.0,0.0,0.0,0.0,0.0,-0.0662,-0.2775,-0.3328,-0.3535,-0.4316,-0.7578,-1.031,-1.0721,-1.2342,-1.3539,-1.3519,-1.3403,-1.3275,-1.3152,-1.3139,-1.3246,-1.3523,-1.5217,-1.6555,-1.6944,-1.9134,-2.0549,-2.0652,-2.0662,-1.9834,-1.8023,-1.9336,-1.9253,-1.7438,-2.1498,-2.361,-2.3704,-2.6126,-2.7522,-2.8087,-2.8511,-2.8845,-2.9045,-2.9045,-2.9179,-2.9406,-2.9406,-2.9579,-2.9847,-2.9847,-3.029,-3.0908,-3.0523,-3.1199,-3.2561,0.0,0.0,0.0,0.0,0.0,0.0,0.0,0.0,0.0,0.0,0.0,0.0,0.0,0.0,0.0,0.0,0.0,0.0,0.0,0.0,0.0,0.0,0.0,0.0,0.0,0.0,0.0,0.0,0.0,0.0,0.0,0.0,0.0,0.0,0.0,0.0,0.0,0.0,0.0,0.0,0.0,0.0,0.0,0.0,0.0,0.0,0.0,0.0,0.0,0.0556,0.0,0.0,0.0,0.0,0.0,0.0,0.0,0.0,0.0,0.0,0.0,0.0,0.0,0.0,0.0,0.0,-0.0563,-0.2735,-0.3135,-0.4394,-0.8344,-0.9562,-1.0471,-1.2453,-1.3077,-1.3193,-1.3071,-1.303,-1.301,-1.299,-1.307,-1.3691,-1.5472,-1.5877,-1.6766,-1.8523,-2.0765,-2.1995,-2.2029,-2.2029,-2.1872,-2.1637,-2.0043,-1.9006,-1.8769,-2.1234,-2.2721,-2.3246,-2.5946,-2.7308,-2.7388,-2.7468,-2.807,-2.9045,-2.9045,-2.9058,-2.9098,-2.9098,-2.9272,-2.9539,-2.9539,-3.0928,-3.2793,-3.1062,-3.2962,-3.625,0.0,0.0,0.0,0.0,0.0,0.0,0.0,0.0,0.0,0.0,0.0,0.0,0.0,0.0,0.0,0.0,0.0,0.0,0.0,0.0,0.0,0.0,0.0,0.0,0.0,0.0,0.0,0.0,0.0,0.0,0.0,0.0,0.0,0.0,0.0,0.0,0.0,0.0,0.0,0.0,0.0,0.0,0.0,0.0,0.0,0.0,0.0,0.0,0.0,-0.0362,-0.0672,0.0,0.0,0.0,0.0,0.0,0.0,0.0,0.0,0.0,0.0,0.0,0.0,0.0,0.0,-0.0833,-0.2226,-0.4475,-0.5633,-0.7009,-0.9221,-1.0611,-1.1752,-1.2661,-1.2732,-1.2657,-1.2596,-1.2508,-1.2909,-1.3969,-1.4045,-1.4911,-1.6986,-1.8402,-1.9598,-2.0583,-2.2834,-2.4099,-2.4099,-2.4099,-2.3547,-2.2299,-2.252,-2.2055,-2.0879,-2.2995,-2.4301,-2.4784,-2.6162,-2.6854,-2.7028,-2.7188,-2.8373,-3.0097,-3.0097,-3.0956,-3.2447,-3.2447,-3.275,-3.3218,-3.3218,-3.4108,-3.5217,-3.4323,-3.5373,-3.7408,0.0,0.0,0.0,0.0,0.0,0.0,0.0,0.0,0.0,0.0,0.0,0.0,0.0,0.0,0.0,0.0,0.0,0.0,0.0,0.0,0.0,0.0,0.0,0.0,0.0,0.0,0.0,0.0,0.0,0.0,0.0,0.0,0.0,0.0,0.0,0.0,0.0,0.0,0.0,0.0,0.0,0.0,0.0,0.0,0.0,0.0,0.0,0.0,0.0,0.0,-0.1497,-0.0489,-0.0121,0.0,0.0,0.0,0.0,0.0,0.0,0.0,0.0,0.0,0.0,0.0,0.0,-0.1439,-0.3425,-0.5656,-0.7543,-0.8984,-0.9742,-1.1361,-1.2522,-1.2406,-1.2298,-1.2457,-1.2903,-1.2871,-1.3527,-1.5424,-1.5644,-1.6434,-1.858,-2.0314,-2.1707,-2.2433,-2.4093,-2.5064,-2.5064,-2.5064,-2.4298,-2.2761,-2.4223,-2.4298,-2.2685,-2.4365,-2.5438,-2.5732,-2.6026,-2.6319,-2.6613,-2.7376,-2.91,-3.1545,-3.0992,-3.2317,-3.4834,-3.4834,-3.5262,-3.5921,-3.6003,-3.6691,-3.7469,-3.6969,-3.7686,-3.9063,0.0,0.0,0.0,0.0,0.0,0.0,0.0,0.0,0.0,0.0,0.0,0.0,0.0,0.0,0.0,0.0,0.0,0.0,0.0,0.0,0.0,0.0,0.0,0.0,0.0,0.0,0.0,0.0,0.0,0.0,0.0,0.0,0.0,0.0,0.0,0.0,0.0,0.0,0.0,0.0,0.0,0.0,0.0,0.0,0.0,0.0,0.0,0.0,0.0,0.0,-0.2138,-0.1862,-0.0415,0.0,0.0,0.0,0.0,0.0,0.0,0.0,0.0,0.0,0.0,0.0,0.0,-0.1284,-0.3095,-0.5224,-0.7082,-0.8894,-1.0772,-1.1635,-1.2094,-1.2088,-1.2081,-1.2731,-1.4482,-1.4769,-1.5424,-1.7321,-1.755,-1.8352,-2.0333,-2.0645,-2.1534,-2.3535,-2.3848,-2.3861,-2.3861,-2.3861,-2.3861,-2.3718,-2.3861,-2.3861,-2.3718,-2.4336,-2.4836,-2.513,-2.5424,-2.5718,-2.6077,-2.8048,-3.0377,-3.2867,-3.1097,-3.1755,-3.4093,-3.4093,-3.4504,-3.5196,-3.5609,-3.7229,-3.9217,-3.7469,-3.9582,-4.3048,0.0,0.0,0.0,0.0,0.0,0.0,0.0,0.0,0.0,0.0,0.0,0.0,0.0,0.0,0.0,0.0,0.0,0.0,0.0,0.0,0.0,0.0,0.0,0.0,0.0,0.0,0.0,0.0,0.0,0.0,0.0,0.0,0.0,-0.0059,-0.1007,-0.1414,-0.1455,-0.2449,0.0,0.0,0.0,0.0,0.0,0.0,0.0,0.0,0.0,0.0,0.0,-0.2177,-0.2836,0.0,0.0,0.0,0.0,-0.0297,0.0,0.0,0.0,-0.0654,-0.1311,-0.1263,-0.2005,-0.2693,-0.2571,-0.4161,-0.5816,-0.6464,-0.8172,-0.9817,-1.0591,-1.1226,-1.1599,-1.1575,-1.1484,-1.2186,-1.392,-1.4201,-1.5359,-1.8519,-1.889,-1.9865,-2.214,-2.239,-2.2763,-2.3754,-2.3768,-2.3768,-2.3768,-2.3768,-2.3768,-2.3768,-2.4862,-2.6029,-2.7115,-2.7645,-2.8044,-2.8309,-2.8704,-2.9041,-2.9379,-3.0112,-3.1787,-3.4219,-3.3532,-3.5012,-3.7825,-3.8084,-3.8527,-3.9062,-3.9449,-4.0509,-4.172,-4.1109,-4.2099,-4.3609,0.0,0.0,0.0,0.0,0.0,0.0,0.0,0.0,0.0,0.0,0.0,0.0,0.0,0.0,0.0,0.0,0.0,0.0,0.0,0.0,0.0,0.0,0.0,0.0,0.0,0.0,0.0,0.0,0.0,0.0,0.0,0.0,0.0,-0.0058,-0.1567,-0.1918,0.0,0.0,0.0,-0.1565,0.0,0.0,-0.2097,0.0,0.0,0.0,-0.4021,-0.4082,-0.3708,-0.412,-0.4931,-0.5297,0.0,0.0,0.0,0.0,0.0,-0.0758,-0.0754,-0.1714,-0.2774,-0.2819,-0.3506,-0.4125,-0.4092,-0.5617,-0.705,-0.6921,-0.8545,-1.0005,-1.01,-1.0568,-1.0975,-1.1077,-1.1563,-1.2596,-1.4479,-1.5227,-1.6766,-1.9995,-2.0423,-2.1057,-2.2696,-2.2873,-2.2953,-2.3153,-2.318,-2.322,-2.3313,-2.3313,-2.3633,-2.4344,-2.6106,-2.7579,-2.8851,-2.9165,-2.9461,-2.9752,-3.0184,-3.0546,-3.0891,-3.1661,-3.3023,-3.4739,-3.554,-3.7364,-3.9687,-3.9961,-4.043,-4.0996,-4.1426,-4.2031,-4.2676,-4.2969,-4.3262,-4.3516,0.0,0.0,0.0,0.0,0.0,0.0,0.0,0.0,0.0,0.0,0.0,0.0,0.0,0.0,0.0,0.0,0.0,0.0,0.0,0.0,0.0,0.0,0.0,0.0,0.0,0.0,0.0,0.0,0.0,0.0,0.0,0.0,0.0,-0.0057,-0.1488,-0.1362,0.0,0.0,-0.0112,-0.0391,0.0,-0.3329,-0.2771,0.0,0.0,-0.4893,-0.7618,-0.7726,-0.6743,-0.7958,-0.8327,-0.8113,0.0,0.0,0.0,0.0,0.0,0.0,0.0,0.0,0.0,-0.4498,-0.4347,-0.415,-0.4273,-0.546,-0.6579,-0.6574,-0.8061,-0.9361,-0.9367,-0.9727,-1.0215,-1.0812,-1.2381,-1.4241,-1.6318,-1.8095,-1.9851,-2.174,-2.1951,-2.1964,-2.1977,-2.1977,-2.1991,-2.1991,-2.1991,-2.2111,-2.2459,-2.2539,-2.3535,-2.5554,-2.737,-2.8411,-2.8742,-2.8759,-2.8873,-2.9152,-2.9583,-3.0016,-3.031,-3.2738,-3.3999,-3.4414,-3.6799,-3.8379,-3.916,-3.9199,-3.9707,-4.0527,-4.0976,-4.1406,-4.1894,-4.2734,-4.3066,-4.3144,0.0,0.0,0.0,0.0,0.0,0.0,0.0,0.0,0.0,0.0,0.0,0.0,0.0,0.0,0.0,0.0,0.0,0.0,0.0,0.0,0.0,0.0,0.0,0.0,0.0,0.0,0.0,0.0,0.0,0.0,0.0,0.0,0.0,0.0,-0.0436,-0.0383,-0.0165,-0.2338,0.0,-0.3462,-0.4218,-0.4822,-0.5331,-0.5495,-0.558,-0.5575,-0.5504,-0.6565,-0.7898,-0.7082,-0.9086,-1.1477,0.0,0.0,0.0,0.0,0.0,0.0,-0.3691,0.0,0.0,0.0,0.0,0.0,-0.6953,-0.7445,-0.793,-0.7836,-0.836,-0.8927,-0.9042,-1.0087,-1.1086,-1.1484,-1.2302,-1.397,-1.6888,-1.7719,-1.8809,-2.0813,-2.1229,-2.143,-2.1722,-2.1857,-2.1991,-2.1991,-2.1991,-2.2531,-2.3767,-2.5282,-2.6954,-2.8867,-2.9643,-3.0696,-3.2067,-3.2431,-3.2656,-3.2702,-3.3095,-3.3524,-3.3954,-3.463,-3.536,-3.6049,-3.6743,-3.75,-3.832,-3.8945,-3.9336,-3.9648,-4.041,-4.0957,-4.1445,-4.2305,-4.2812,-4.3144,0.0,0.0,0.0,0.0,0.0,0.0,0.0,0.0,0.0,0.0,0.0,0.0,0.0,0.0,0.0,0.0,0.0,0.0,0.0,0.0,0.0,0.0,-0.2181,-0.2195,0.0,0.0,0.0,0.0,0.0,0.0,0.0,0.0,0.0,0.0,0.0,0.0,0.0,0.0,0.0,0.0,-0.4195,-0.5235,-0.6467,-0.6216,-0.65,-0.7021,-0.6984,-0.8081,-0.9519,-0.9769,-1.169,-1.3476,-1.0412,0.0,0.0,0.0,0.0,0.0,0.0,0.0,0.0,0.0,0.0,0.0,-0.8008,-0.8174,-0.8255,-0.8113,-0.8316,-0.8554,-0.8642,-1.0069,-1.1496,-1.24,-1.3391,-1.4922,-1.7101,-1.8167,-1.9109,-2.0345,-2.0641,-2.0815,-2.0989,-2.1149,-2.1309,-2.143,-2.2057,-2.329,-2.5121,-2.7189,-2.8939,-3.0194,-3.1128,-3.2194,-3.3418,-3.3672,-3.3809,-3.3809,-3.4238,-3.459,-3.4863,-3.5234,-3.5664,-3.6152,-3.6523,-3.6953,-3.7461,-3.832,-3.8867,-3.9277,-3.998,-4.0527,-4.1035,-4.2051,-4.2578,-4.2891,0.0,0.0,0.0,0.0,0.0,0.0,0.0,0.0,0.0,0.0,-0.2178,-0.148,0.0,0.0,0.0,0.0,0.0,0.0,0.0,0.0,0.0,0.0,-0.2696,-0.2652,-0.2504,-0.2341,-0.2872,-0.4028,-0.4045,-0.3429,-0.2266,0.0,0.0,0.0,0.0,0.0,0.0,0.0,-0.2418,-0.2787,-0.3682,-0.5169,-0.6888,-0.8099,-0.8636,-0.8943,-1.0518,-1.1116,-1.1634,-1.4365,-1.5151,-1.4423,-1.1469,-1.0843,0.0,0.0,-0.6657,0.0,0.0,0.0,0.0,0.0,-0.8235,0.0,-0.7988,-0.7988,-0.7948,-0.7862,-0.8065,-0.832,-0.8473,-1.0018,-1.1792,-1.3345,-1.5108,-1.6544,-1.7245,-1.8898,-2.004,-2.004,-2.0067,-2.0047,-2.0134,-2.0281,-2.0537,-2.0848,-2.2579,-2.4466,-2.6487,-2.8597,-2.9894,-3.0301,-3.197,-3.2969,-3.334,-3.3398,-3.3418,-3.3437,-3.3809,-3.4023,-3.4101,-3.4883,-3.5293,-3.543,-3.6191,-3.6582,-3.6738,-3.748,-3.8281,-3.9121,-3.9893,-4.04,-4.0969,-4.2408,-4.3002,-4.316,0.0,0.0,0.0,0.0,0.0,0.0,0.0,0.0,0.0,0.0,-0.2934,-0.1602,0.0,0.0,0.0,0.0,0.0,0.0,0.0,0.0,-0.6139,-0.5862,-0.5823,-0.5814,-0.5795,-0.4596,-0.4044,-0.416,-0.4174,-0.399,-0.3616,-0.3893,0.0,0.0,0.0,0.0,0.0,0.0,-0.4561,-0.5755,-0.4893,-0.6056,-0.8427,-0.9754,-1.0144,-1.0247,-1.1714,-1.3164,-1.4584,-1.6493,-1.5967,-1.4367,-1.3075,-1.2404,-1.1542,-0.8662,0.0,0.0,0.0,0.0,0.0,-0.8147,-0.8029,0.0,-0.7988,-0.7988,-0.7982,-0.7948,-0.814,-0.8619,-0.9614,-1.1196,-1.278,-1.4185,-1.6036,-1.7538,-1.8134,-1.8559,-1.8838,-1.8838,-1.9038,-1.9279,-1.9519,-2.0824,-2.1788,-2.2138,-2.5054,-2.7064,-2.7517,-2.9789,-3.118,-3.1257,-3.2238,-3.2832,-3.291,-3.3242,-3.3418,-3.3418,-3.3516,-3.373,-3.4082,-3.4258,-3.4726,-3.541,-3.5566,-3.6035,-3.668,-3.6855,-3.7422,-3.8426,-4.1199,-4.2281,-4.2657,-4.5599,-4.6963,-4.7148,0.0,0.0,0.0,0.0,0.0,0.0,0.0,0.0,0.0,-0.5769,-0.4342,-0.2819,0.0,0.0,0.0,0.0,0.0,0.0,0.0,0.0,-0.8244,-0.6755,-0.6704,-0.6642,-0.6586,-0.588,-0.5753,-0.6328,-0.6272,-0.5853,-0.5137,-0.585,-0.5725,0.0,0.0,0.0,0.0,-0.5558,-0.6631,-0.8653,-0.6458,-0.6848,-0.8757,-0.936,-1.0004,-1.0732,-1.2265,-1.4376,-1.652,-1.716,-1.6314,-1.4711,-1.3351,-1.285,-1.2135,-0.9429,-0.9527,-1.0199,0.0,0.0,-0.8235,-0.8029,-0.7988,0.0,0.0,-0.8421,-0.8358,-0.9583,-0.9468,-0.9546,-1.0825,-1.2384,-1.3696,-1.436,-1.5973,-1.7248,-1.7555,-1.8116,-1.849,-1.849,-1.9209,-1.9738,-1.9949,-2.1354,-2.2839,-2.4163,-2.6052,-2.7721,-2.8933,-3.02,-3.1055,-3.1504,-3.1934,-3.2363,-3.2793,-3.3837,-3.4409,-3.4612,-3.5396,-3.5953,-3.6122,-3.6352,-3.6729,-3.719,-3.7651,-3.8112,-3.8507,-3.9034,-3.9621,-4.0354,-4.1578,-4.2941,-4.4438,-4.6522,-4.7805,-4.8423,0.0,0.0,0.0,0.0,0.0,0.0,0.0,0.0,0.0,-0.6856,-0.579,-0.4626,0.0,0.0,0.0,0.0,0.0,0.0,0.0,0.0,-1.0061,-0.7636,-0.7254,-0.7045,-0.6948,-0.6948,-0.7481,-0.8526,-0.8411,-0.7801,-0.6708,-0.7801,-0.7579,-0.6323,0.0,0.0,0.0,-0.7547,-0.8864,-1.1487,-0.9065,-0.8669,-0.954,-0.9632,-1.0464,-1.1756,-1.3331,-1.5474,-1.7527,-1.734,-1.6352,-1.4948,-1.3278,-1.2811,-1.2258,-0.9376,-0.9518,-1.0261,-0.8742,-0.8566,-0.8787,-0.8887,-0.8885,-0.9171,0.0,0.0,0.0,-1.1432,-1.1027,-1.0788,-1.2098,-1.3389,-1.4288,-1.4533,-1.5914,-1.6955,-1.6955,-1.8064,-1.8794,-1.8646,-1.9593,-2.0375,-2.0764,-2.2012,-2.3768,-2.6098,-2.6537,-2.766,-2.9729,-3.0059,-3.0527,-3.125,-3.1426,-3.1956,-3.2949,-3.4469,-3.5483,-3.6146,-3.7522,-3.8223,-3.8223,-3.8589,-3.8813,-3.8947,-3.9842,-4.0204,-4.036,-4.143,-4.2386,-4.3059,-4.2548,-4.3929,-4.6252,-4.7425,-4.8552,-4.9491,0.0,-0.8492,0.0,0.0,0.0,0.0,0.0,0.0,0.0,-0.6866,-0.665,-0.6609,-0.653,0.0,0.0,0.0,0.0,-1.2477,-1.0954,-1.1,0.0,0.0,0.0,-0.865,-0.8637,-0.8637,-0.8674,-0.8682,-0.8669,-0.8474,-0.8064,-0.8217,-0.8197,-0.8004,-0.7921,-0.8901,-1.0571,-1.0117,-1.1606,-1.4227,-1.3893,-1.3237,-1.2585,-1.3502,-1.4173,-1.4879,-1.6518,-1.7173,-1.7286,-1.7462,-1.6251,-1.4441,-1.3508,-1.2799,-1.1808,-0.9398,-0.9421,-0.9975,-0.8782,-0.9436,-1.0699,-1.1846,-1.2033,-1.2273,-1.3607,0.0,-1.1609,-1.2222,0.0,-1.2147,-1.3724,0.0,0.0,-1.5443,-1.6916,-1.7949,-1.7949,-1.9215,-1.9915,-1.9233,-1.9263,-2.0,-2.1752,-2.3152,-2.4736,-2.675,-2.7298,-2.7849,-2.8476,-2.959,-3.0234,-3.0351,-3.1113,-3.2176,-3.3568,-3.4655,-3.5853,-3.7222,-3.7903,-3.8223,-3.8223,-3.8291,-3.8499,-3.8947,-3.9545,-3.9953,-4.036,-4.1495,-4.3169,-4.5178,-4.5865,-4.6967,-4.8463,-5.0651,-5.2208,-5.2918,0.0,0.0,0.0,0.0,0.0,0.0,0.0,0.0,0.0,-0.7011,-0.7738,-0.8402,-0.8476,-0.999,-1.1271,0.0,-1.3994,-1.4468,-1.2698,-1.2633,0.0,0.0,0.0,0.0,-1.0131,-0.932,-0.8851,-0.8845,-0.8662,-0.8513,-0.8391,-0.8214,-0.8092,-0.8054,-0.8735,-1.0422,-1.2694,-1.2542,-1.4626,-1.7938,-1.7064,-1.6977,-1.7105,-1.5067,-1.4623,-1.5395,-1.7866,-1.856,-1.8397,-1.9611,-1.8644,-1.6962,-1.6844,-1.5986,-1.4877,-1.3846,-1.3861,-1.4083,-1.3623,-1.3751,-1.4066,-1.3914,-1.3668,-1.3656,-1.4451,-1.3479,-1.2907,-1.4572,0.0,0.0,0.0,0.0,0.0,0.0,-1.7428,-1.8114,-1.88,-1.9487,-1.9874,-1.9907,-2.0557,-2.1938,-2.4191,-2.4344,-2.5083,-2.7106,-2.6824,-2.7051,-2.8223,-2.8809,-2.9434,-3.0176,-3.1388,-3.2539,-3.3691,-3.6184,-3.7885,-3.8838,-4.0273,-4.1019,-4.1019,-4.1019,-4.1081,-4.1345,-4.216,-4.264,-4.2892,-4.4343,-4.5736,-4.6953,-4.797,-4.9141,-5.0216,-5.1255,-5.2503,-5.3593,0.0,0.0,0.0,0.0,0.0,0.0,0.0,0.0,-0.8966,-0.8795,-1.0054,-1.1255,-1.213,-1.382,-1.5115,-1.5534,-1.6928,-1.7018,-1.5121,-1.4172,-1.3957,-1.4537,-1.1291,0.0,0.0,-1.0601,-0.9856,-1.0655,-0.9251,-0.8941,-0.9607,-0.8917,-0.8704,-0.8985,-1.0081,-1.1901,-1.4112,-1.4485,-1.6843,-2.023,-1.9589,-1.9781,-2.0136,-1.7181,-1.6126,-1.651,-1.9236,-1.9674,-1.9345,-2.1073,-2.0443,-1.895,-1.9255,-1.8326,-1.7103,-1.7133,-1.7144,-1.7103,-1.7133,-1.7214,-1.7114,-1.6301,-1.582,-1.5655,-1.596,-1.4898,-1.4417,-1.6441,-1.6036,0.0,0.0,0.0,-1.7244,-1.8192,0.0,-1.9244,-2.0296,-2.0729,-2.1021,-2.1251,-2.2805,-2.4546,-2.6351,-2.5664,-2.5838,-2.7586,-2.6966,-2.7134,-2.8674,-2.8805,-2.9373,-3.0701,-3.1788,-3.3069,-3.4541,-3.7405,-3.9316,-4.0258,-4.196,-4.2891,-4.2986,-4.2986,-4.2986,-4.3037,-4.4141,-4.4618,-4.4769,-4.6602,-4.7556,-4.8033,-4.9314,-5.0419,-5.1297,-5.1448,-5.2352,-5.3507,0.0,-0.8703,0.0,0.0,0.0,0.0,0.0,-0.9055,-1.0242,-1.3212,-1.4271,-1.5865,-1.8756,-2.1059,-2.1525,-1.9398,-2.0715,-2.0681,-1.8467,-1.5452,-1.4889,-1.7621,-1.3454,-1.2935,-1.7016,-1.3086,-1.238,-1.5105,-1.0782,-0.9989,-1.2433,-1.0848,-1.0703,-1.1794,-1.2037,-1.2932,-1.4384,-1.5729,-1.7706,-2.0027,-2.1625,-2.1592,-2.0603,-2.0753,-2.0056,-1.928,-2.1022,-2.0572,-1.9446,-2.1123,-2.0543,-1.9145,-1.9409,-1.8382,-1.7144,-1.7273,-1.7203,-1.7144,-1.7286,-1.8325,-1.9382,-1.9331,-1.9167,-1.9069,-1.9069,-1.7745,-1.668,-1.7074,-1.6901,-1.7132,-1.8808,-1.885,0.0,0.0,-2.1049,0.0,0.0,-2.3892,-2.4376,-2.3594,-2.5904,-2.7546,-2.7655,-2.7277,-2.7453,-2.8478,-2.8522,-2.8945,-2.99,-3.0027,-3.0691,-3.2117,-3.2319,-3.3737,-3.6583,-3.7762,-3.9334,-4.1272,-4.1907,-4.2514,-4.2986,-4.2986,-4.2986,-4.3037,-4.4141,-4.4618,-4.4794,-4.6979,-4.7883,-4.8083,-4.9741,-5.0745,-5.1348,-5.1875,-5.2452,-5.303,0.0,0.0,0.0,0.0,-0.8885,-0.93,-1.0445,-1.2247,-1.4124,-1.5807,-1.6264,-1.7711,-2.1234,-2.223,-2.2726,-2.2746,-2.2345,-2.1941,-2.1752,-1.7763,-1.7039,-2.0656,-1.6377,-1.5411,-1.8663,-1.557,-1.4775,-1.6625,-1.3049,-1.2184,-1.3909,-1.2153,-1.1521,-1.195,-1.2909,-1.4052,-1.536,-1.754,-1.9369,-2.0958,-2.2314,-2.241,-2.1722,-2.1211,-2.0271,-1.9431,-2.1123,-2.1728,-2.197,-2.3754,-2.3804,-2.3136,-2.3502,-2.3206,-2.2804,-2.2828,-2.2825,-2.2804,-2.2828,-2.2806,-2.2654,-2.2378,-2.1773,-2.1241,-2.0911,-2.1029,-2.0998,-2.0319,-2.1362,-2.2014,-2.0752,-2.1113,0.0,0.0,0.0,-2.3978,0.0,-2.6887,-2.8003,-2.7732,-2.7848,-2.8287,-2.9017,-2.796,-2.7946,-2.9648,-2.8761,-2.8858,-3.0491,-3.0612,-3.1268,-3.2699,-3.4077,-3.5428,-3.6692,-3.8721,-4.0273,-4.13,-4.1882,-4.2489,-4.2986,-4.2986,-4.3162,-4.3564,-4.4292,-4.4844,-4.5347,-4.7154,-4.7908,-4.8109,-5.0193,-5.1096,-5.1348,-5.19,-5.2452,-5.3005,-1.0575,0.0,0.0,-0.8871,-0.9894,-1.1045,-1.2155,-1.5033,-1.77,-1.9437,-1.9965,-2.1262,-2.4226,-2.5168,-2.5603,-2.5645,-2.4688,-2.4187,-2.4552,-1.9861,-1.8932,-2.3029,-1.8597,-1.7825,-2.1594,-1.8485,0.0,0.0,-1.5362,-1.4224,-1.6019,-1.3785,-1.2948,-1.3366,-1.4521,-1.5299,-1.5907,-1.8676,-2.0142,-2.0827,-2.277,-2.3164,-2.2572,-2.21,-2.1163,-2.0342,-2.2381,-2.3175,-2.3486,-2.5139,-2.5547,-2.5352,-2.5596,-2.5693,-2.5693,-2.5693,-2.5693,-2.5693,-2.5693,-2.5646,-2.5357,-2.4549,-2.4248,-2.3965,-2.3135,-2.3601,-2.3926,-2.3143,-2.441,-2.5218,-2.387,-2.4326,-2.4983,0.0,0.0,0.0,0.0,-2.9816,-3.1437,-3.1811,-3.0681,-2.9893,-3.0063,-2.9984,-3.0155,-3.0725,-3.0284,-3.0585,-3.1903,-3.1689,-3.2264,-3.3837,-3.5091,-3.6189,-3.7151,-3.9034,-4.04,-4.1275,-4.1681,-4.2258,-4.3042,-4.3492,-4.4019,-4.4612,-4.5659,-4.6643,-4.7502,-4.8351,-4.8851,-4.9234,-5.0731,-5.1272,-5.1373,-5.2126,-5.2628,-5.3005,0.0,-0.9724,-0.8771,-0.8975,-1.1753,-1.3926,-1.3957,-1.7191,-2.0741,-2.3889,-2.4976,-2.6092,-2.7791,-2.9657,-2.9985,-2.8119,-2.747,-2.7074,-2.6751,-2.1561,-2.0401,-2.4594,-2.0263,-2.0205,-2.5577,-2.1762,0.0,0.0,0.0,-1.6182,-1.8754,-1.5813,-1.4923,-1.5864,-1.6804,-1.6697,-1.6123,-1.9112,-2.014,-2.0048,-2.3183,-2.3956,-2.3184,-2.3748,-2.315,-2.2299,-2.4707,-2.4873,-2.4079,-2.5362,-2.582,-2.5888,-2.5888,-2.5908,-2.5908,-2.5927,-2.5976,-2.5976,-2.5976,-2.6853,-2.741,-2.6088,-2.6676,-2.7181,-2.5889,-2.565,-2.565,-2.5602,-2.6139,-2.6955,-2.8031,-2.8416,-2.8948,0.0,0.0,0.0,-3.0624,-3.2679,-3.4423,-3.5532,-3.4258,-3.266,-3.1088,-3.32,-3.3815,-3.1762,-3.2994,-3.3882,-3.4004,-3.3268,-3.3663,-3.5512,-3.543,-3.6232,-3.8139,-3.8668,-3.9774,-4.149,-4.1436,-4.2016,-4.324,-4.4561,-4.5499,-4.6245,-4.8162,-4.9717,-5.0878,-5.0479,-5.065,-5.1241,-5.1354,-5.1364,-5.1498,-5.2528,-5.2929,-5.3005,-1.0928,-0.9714,-0.9251,-1.062,-1.3287,-1.5441,-1.6217,-1.8924,-2.2409,-2.6456,-2.5123,-2.5343,-2.9655,-2.9474,-2.9167,-2.9527,-2.7164,-2.5973,-2.6621,-2.1526,-2.0382,-2.4594,-2.2125,-2.2248,-2.5645,-2.3665,-2.3448,-2.5167,0.0,-1.8632,-2.0507,-1.7295,-1.6045,-1.6486,-1.6714,-1.7062,-1.7629,-1.9288,-2.1352,-2.3564,-2.4805,-2.5255,-2.5331,-2.6873,-2.6812,-2.5805,-2.4632,-2.5256,-2.6655,-2.6982,-2.772,-2.8513,-2.8907,-2.9063,-2.9128,-2.9546,-2.9633,-2.9633,-2.9633,-2.9657,-2.9695,-2.9598,-2.9639,-2.9628,-2.9554,-3.0287,-3.0665,-2.9715,-3.1458,-3.2779,-3.1774,-3.2665,-3.3258,-3.2274,0.0,0.0,-3.3469,-3.4937,-3.5922,-3.6241,-3.6891,-3.6839,-3.5601,-3.5315,-3.5146,-3.4967,-3.4659,-3.4816,-3.5652,-3.5113,-3.5382,-3.6734,-3.712,-3.8163,-4.0024,-3.9677,-4.1131,-4.4249,-4.3333,-4.3966,-4.6083,-4.6937,-4.7614,-4.8216,-4.9196,-5.0326,-5.1542,-5.1804,-5.1637,-5.1329,-5.2563,-5.2833,-5.2528,-5.2829,-5.2929,-5.2955,-1.2228,-1.0882,-1.0349,-1.1417,-1.4665,-1.7618,-1.9052,-2.1907,-2.5081,-2.8551,-2.6898,-2.679,-3.049,-3.0079,-2.9421,-2.9239,-2.793,-2.696,-2.6751,-2.336,-2.2642,-2.5618,-2.3693,-2.3813,-2.6476,-2.5809,-2.5761,-2.6524,-2.2416,-2.086,-2.1741,-1.8595,-1.7509,-1.8203,-1.8484,-1.8818,-1.9367,-2.0898,-2.3031,-2.5504,-2.6281,-2.6845,0.0,-2.8589,-2.8763,-2.8086,-2.6669,-2.7138,-2.8445,-2.8639,-2.9173,-2.9845,-3.0409,-3.0566,-3.0611,-3.0881,-3.1019,-3.1019,-3.1019,-3.1244,-3.1553,-3.176,-3.2043,-3.2319,-3.2581,-3.3555,-3.4259,-3.3552,-3.5318,-3.671,-3.5614,-3.6284,-3.6428,-3.4692,-3.4626,-3.5021,-3.5737,-3.6601,-3.7571,-3.8623,-3.9219,-3.9445,-3.9079,-3.7892,-3.7035,-3.673,-3.6586,-3.6771,-3.7461,-3.721,-3.7293,-3.7899,-3.8804,-3.9733,-4.0769,-4.0916,-4.232,-4.4863,-4.4443,-4.5091,-4.6735,-4.829,-4.9357,-4.9977,-5.1514,-5.2894,-5.4044,-5.4007,-5.383,-5.3613,-5.3627,-5.3726,-5.392,-5.3179,-5.2929,-5.2955,-1.4105,-1.2695,-1.206,-1.2275,-1.6337,-2.0102,-2.1913,-2.4782,-2.7628,-2.9986,-2.8975,-2.8765,-3.0626,-3.0626,-2.989,-2.8336,-2.8861,-2.8499,-2.6734,-2.554,-2.5511,-2.6793,-2.5133,-2.5315,-2.7767,-2.7814,-2.7814,-2.7814,-2.4567,-2.2925,-2.2848,-1.9845,-1.9051,-2.0237,-2.0719,-2.1028,-2.1264,-2.3169,-2.4982,-2.6755,-2.7831,-2.8649,-2.9281,-2.9715,-2.9943,-3.0011,-3.0011,-2.9874,-2.9805,-3.028,-3.0602,-3.0878,-3.1428,-3.1588,-3.1611,-3.1679,-3.1702,-3.1702,-3.1702,-3.2535,-3.338,-3.3566,-3.4375,-3.5198,-3.5378,-3.6191,-3.695,-3.695,-3.8133,-3.9214,-3.9154,-3.9276,-3.8848,-3.7418,-3.7397,-3.7582,-3.7634,-3.8194,-3.9332,-4.1378,-4.1163,0.0,-4.1607,-4.0457,-3.9164,-3.7884,-3.8557,-3.9088,-3.9187,-3.9156,-3.9158,-3.9263,-4.0341,-4.1051,-4.1405,-4.2356,-4.3471,-4.4849,-4.5365,-4.6005,-4.6879,-4.9402,-5.0904,-5.1672,-5.4247,-5.5987,-5.7049,-5.6355,-5.6443,-5.6709,-5.4724,-5.4649,-5.5551,-5.4122,-5.3614,-5.3742,-1.5288,-1.479,-1.4741,-1.5098,-1.9038,-2.25,-2.3468,-2.4587,-2.6621,-3.0296,-2.8253,-2.7432,-3.0064,-2.9141,-2.8607,-2.9257,-2.8033,-2.6939,-2.6263,-2.5217,-2.5117,-2.6129,-2.6536,-2.7458,-2.9028,-2.9096,-2.9096,-2.9096,-2.6119,-2.4598,-2.441,-2.1531,-2.0394,-2.0802,-2.0589,-2.1419,-2.3074,-2.5031,-2.6846,-2.8519,-2.9663,-3.0735,-3.1649,-3.2216,-3.2709,-3.3104,-3.3104,-3.2499,-3.1616,-3.171,-3.2729,-3.4016,-3.4533,-3.4706,-3.4804,-3.5295,-3.5466,-3.5466,-3.5466,-3.5633,-3.5984,-3.6954,-3.7365,-3.7772,-3.8753,-3.9147,-3.9321,-3.9321,-3.9845,-4.0478,-4.0999,-4.1146,-4.1053,-4.0772,-4.0003,-3.9441,-3.947,-4.032,-4.114,-4.1545,-4.1909,-4.2326,-4.2901,-4.1803,-4.0733,-3.995,-4.0099,-4.0285,-4.031,-3.9956,-4.0184,-4.1169,-4.1452,-4.2534,-4.4549,-4.3761,-4.4808,-4.7613,-4.7207,-4.818,-5.036,-5.1932,-5.301,-5.3724,-5.5317,-5.6406,-5.7154,-5.7547,-5.7918,-5.8057,-5.6404,-5.6491,-5.7496,-5.724,-5.7476,-5.7716,-1.6866,-1.6143,-1.6174,-1.8009,-2.1575,-2.4934,-2.7149,-2.8404,-2.9372,-3.0098,-2.889,-2.8758,-3.0706,-3.0883,-3.066,-3.0194,-2.9769,-2.9059,-2.7845,-2.7542,-2.7603,-2.8049,-2.8297,-2.9054,-3.0305,-3.0305,-3.0305,-3.0305,-2.8092,-2.6626,-2.5878,-2.3636,-2.2797,-2.3118,-2.3521,-2.4722,-2.6581,-2.7569,-2.8812,-3.0148,-3.1053,-3.2431,-3.4004,-3.4288,-3.5113,-3.6141,-3.6141,-3.5956,-3.5466,-3.4268,-3.44,-3.5319,-3.6493,-3.6831,-3.7019,-3.7964,-3.8225,-3.8225,-3.8225,-3.8225,-3.836,-3.8872,-3.905,-3.9183,-3.9782,-4.0361,-4.0788,-4.0788,-4.1439,-4.2085,-4.2408,-4.2208,-4.1919,-4.1645,-4.0871,-4.0392,-4.076,-4.1666,-4.2562,-4.318,-4.3945,-4.4328,-4.4297,-4.4054,-4.3334,-4.2,-4.2141,-4.2177,-4.2008,-4.1802,-4.1938,-4.2552,-4.3226,-4.431,-4.5924,-4.5999,-4.694,-4.8805,-4.9212,-4.9981,-5.1289,-5.2965,-5.4072,-5.479,-5.6077,-5.7034,-5.7693,-5.871,-5.9436,-5.9711,-5.842,-5.8499,-5.9166,-5.832,-5.8455,-5.8944,-1.9879,-1.9081,-1.9017,-2.1528,-2.4578,-2.7598,-3.0089,-3.1897,-3.2385,-3.0669,-3.0509,-3.0953,-3.1782,-3.2774,-3.2655,-3.1028,-3.1484,-3.1174,-2.9572,-3.0065,-3.0208,-2.9885,-3.0057,-3.0485,-3.1178,-3.1444,-3.1577,-3.1577,-3.0062,-2.8567,-2.7128,-2.5929,-2.5493,-2.5791,-2.6789,-2.8109,-2.9511,-2.9816,-3.0501,-3.1496,-3.2531,-3.3979,-3.5632,-3.6033,-3.7066,-3.8353,-3.8353,-3.8726,-3.8882,-3.7071,-3.6462,-3.665,-3.8066,-3.8469,-3.8693,-3.9623,-3.9913,-3.9913,-3.9913,-3.9913,-3.9956,-4.0189,-4.0275,-4.0318,-4.0575,-4.1295,-4.1947,-4.1947,-4.267,-4.3319,-4.3469,-4.3125,-4.2718,-4.2453,-4.1853,-4.171,-4.2357,-4.3011,-4.3731,-4.475,-4.552,-4.5693,-4.5024,-4.5741,-4.5524,-4.38,-4.4081,-4.4192,-4.3944,-4.3853,-4.3907,-4.4089,-4.5179,-4.6073,-4.6799,-4.8059,-4.8955,-4.9494,-5.081,-5.1498,-5.1678,-5.3414,-5.464,-5.5478,-5.6585,-5.7633,-5.862,-5.9668,-6.0565,-6.1261,-6.0355,-6.0438,-6.0899,-5.9707,-5.9724,-6.0343,-2.5703,-2.6041,-2.6053,-2.6381,-2.899,-3.0827,-2.9955,-3.1607,-3.3042,-3.3215,-3.325,-3.3149,-3.2894,-3.2552,-3.2062,-3.1451,-3.1083,-3.0593,-2.9986,-3.1067,-3.1065,-2.9531,-3.1581,-3.2283,-3.1223,-3.2326,-3.2939,-3.2939,-3.1616,-2.9927,-2.7985,-2.8233,-2.8166,-2.7876,-2.8767,-2.9373,-2.9849,-3.068,-3.1433,-3.2281,-3.4422,-3.5416,-3.5785,-3.7344,-3.8338,-3.8906,-3.8906,-3.932,-3.9759,-3.9541,-3.9497,-3.9525,-3.9667,-3.9711,-3.9754,-3.9869,-3.9913,-3.9913,-3.9913,-3.9913,-4.0145,-4.1169,-4.142,-4.1711,-4.2739,-4.3061,-4.317,-4.317,-4.325,-4.3469,-4.4067,-4.4176,-4.4303,-4.484,-4.44,-4.4267,-4.5178,-4.4925,-4.4719,-4.5062,-4.5141,-4.492,-4.4186,-4.5537,-4.6026,-4.5002,-4.5582,-4.5968,-4.5925,-4.5647,-4.575,-4.6379,-4.6833,-4.7445,-4.8134,-4.9418,-5.0046,-5.0106,-5.1468,-5.2426,-5.3025,-5.3832,-5.491,-5.6107,-5.6795,-5.8171,-5.9907,-6.0027,-6.0835,-6.2002,-6.1891,-6.2251,-6.2877,-6.3326,-6.3892,-6.4516,-2.84,-2.7754,-2.7592,-2.9479,-3.0865,-3.1886,-3.2423,-3.3946,-3.4791,-3.4133,-3.4282,-3.4282,-3.3873,-3.4049,-3.3815,-3.2905,-3.2723,-3.2245,-3.1321,-3.2106,-3.2328,-3.1669,-3.2568,-3.2853,-3.2326,-3.2853,-3.3111,-3.3111,-3.2612,-3.1516,-2.9969,-2.9831,-2.9669,-2.9506,-2.9857,-3.0656,-3.184,-3.2895,-3.37,-3.4412,-3.6354,-3.7772,-3.8794,-3.9499,-4.0543,-4.157,-4.157,-4.1744,-4.1947,-4.1947,-4.1029,-4.0015,-4.0703,-4.0916,-4.1042,-4.174,-4.1947,-4.207,-4.2662,-4.2832,-4.3071,-4.4129,-4.4356,-4.4469,-4.4943,-4.5048,-4.5048,-4.5048,-4.5397,-4.5897,-4.6622,-4.6747,-4.6841,-4.7122,-4.6934,-4.6743,-4.6671,-4.6933,-4.6851,-4.6057,-4.6421,-4.6677,-4.6379,-4.7326,-4.8055,-4.81,-4.7439,-4.6994,-4.6853,-4.6707,-4.715,-4.8295,-4.933,-5.004,-5.0398,-5.1801,-5.2321,-5.2007,-5.2965,-5.3743,-5.4401,-5.5089,-5.6107,-5.7393,-5.8022,-5.8979,-6.0116,-6.0535,-6.1253,-6.2121,-6.254,-6.3079,-6.3647,-6.3917,-6.4695,-6.5652,-3.0986,-2.9721,-2.9373,-3.2033,-3.2515,-3.292,-3.4216,-3.5523,-3.6048,-3.5114,-3.5065,-3.5041,-3.4727,-3.5046,-3.4721,-3.3337,-3.3162,-3.2714,-3.1884,-3.2284,-3.2568,-3.2568,-3.2896,-3.2939,-3.2568,-3.2896,-3.3111,-3.3111,-3.3111,-3.2383,-3.1029,-3.0628,-3.0778,-3.1438,-3.1761,-3.2728,-3.4169,-3.5345,-3.6016,-3.653,-3.8269,-3.9707,-4.0828,-4.1342,-4.2286,-4.329,-4.329,-4.3488,-4.3732,-4.3732,-4.2892,-4.1802,-4.2041,-4.2286,-4.2691,-4.3506,-4.3935,-4.4289,-4.5042,-4.5227,-4.5342,-4.6032,-4.6208,-4.6208,-4.6208,-4.6208,-4.6272,-4.6497,-4.7109,-4.7814,-4.8556,-4.8684,-4.8748,-4.8973,-4.8812,-4.8501,-4.8078,-4.8415,-4.8266,-4.7038,-4.7704,-4.8041,-4.7631,-4.8443,-4.912,-4.9424,-4.8753,-4.8365,-4.8442,-4.8583,-4.9083,-5.0084,-5.1701,-5.2586,-5.2633,-5.4285,-5.4853,-5.4346,-5.4994,-5.5491,-5.5777,-5.6436,-5.7244,-5.8171,-5.9009,-5.9757,-6.0446,-6.1134,-6.1792,-6.245,-6.3109,-6.3617,-6.4036,-6.4455,-6.5203,-6.6041,-3.4068,-3.3181,-3.2682,-3.4117,-3.4385,-3.4385,-3.4385,-3.5523,-3.6405,-3.6358,-3.5859,-3.5462,-3.5508,-3.5006,-3.4004,-3.2285,-3.16,-3.1223,-3.1223,-3.1223,-3.1223,-3.1223,-3.2413,-3.2525,-3.1267,-3.2481,-3.3111,-3.3111,-3.3111,-3.2253,-3.0615,-3.0592,-3.1777,-3.3916,-3.5011,-3.5854,-3.6538,-3.7701,-3.8159,-3.8338,-4.0053,-4.0787,-4.0966,-4.2634,-4.329,-4.329,-4.329,-4.3927,-4.4774,-4.4774,-4.5379,-4.5782,-4.3897,-4.3966,-4.4774,-4.4774,-4.5416,-4.6173,-4.6173,-4.6173,-4.6173,-4.6208,-4.6208,-4.6208,-4.6208,-4.6208,-4.6401,-4.7137,-4.7882,-4.8588,-4.9293,-4.9384,-4.9609,-5.0269,-4.9795,-4.9425,-4.9637,-4.9087,-4.8497,-4.795,-4.8514,-4.8409,-4.6955,-4.8139,-4.8714,-4.7973,-4.9255,-5.0373,-5.1085,-5.1587,-5.1852,-5.1852,-5.3686,-5.4649,-5.4681,-5.6723,-5.7462,-5.696,-5.7625,-5.7645,-5.7094,-5.7782,-5.8112,-5.8201,-5.9518,-6.0475,-6.1164,-6.1822,-6.248,-6.3139,-6.3737,-6.3977,-6.4156,-6.5503,-6.6011,-6.6101,-3.5667,-3.5403,-3.5259,-3.5667,-3.5763,-3.5475,-3.4532,-3.5523,-3.5924,-3.4604,-3.5071,-3.5207,-3.45,-3.4274,-3.3628,-3.2237,-3.2337,-3.2152,-3.1267,-3.1996,-3.2525,-3.2525,-3.2896,-3.3258,-3.3581,-3.3969,-3.4526,-3.5238,-3.4526,-3.3949,-3.3518,-3.5042,-3.5957,-3.6317,-3.7056,-3.7495,-3.7756,-3.9335,-3.9955,-4.0122,-4.1799,-4.2495,-4.2564,-4.3081,-4.329,-4.3409,-4.4082,-4.451,-4.4924,-4.5525,-4.5925,-4.6103,-4.5457,-4.5525,-4.5778,-4.5778,-4.5961,-4.6349,-4.697,-4.7172,-4.7306,-4.7933,-4.8129,-4.8129,-4.8129,-4.8495,-4.9227,-5.0459,-5.0892,-5.1292,-5.2058,-5.2224,-5.2256,-5.2489,-5.2774,-5.2598,-5.16,-5.1319,-5.0553,-4.8799,-4.8843,-4.8815,-4.8342,-4.9627,-5.0608,-5.0879,-5.186,-5.2266,-5.1961,-5.2606,-5.3443,-5.445,-5.6538,-5.7231,-5.6409,-5.8605,-5.9478,-5.9012,-5.9188,-5.9251,-5.9175,-5.8866,-5.88,-5.883,-5.9697,-6.0475,-6.1164,-6.1822,-6.248,-6.3139,-6.3767,-6.4276,-6.4814,-6.5682,-6.6281,-6.67,-3.6405,-3.6001,-3.5667,-3.5667,-3.5998,-3.6021,-3.5185,-3.5987,-3.6319,-3.5084,-3.4898,-3.463,-3.3972,-3.3721,-3.3088,-3.1857,-3.2147,-3.2064,-3.1267,-3.2321,-3.3207,-3.3658,-3.4053,-3.4568,-3.5238,-3.5238,-3.571,-3.661,-3.6212,-3.6033,-3.6101,-3.7538,-3.8145,-3.8047,-3.8848,-3.9281,-3.9589,-4.1082,-4.173,-4.184,-4.3277,-4.3849,-4.3888,-4.4251,-4.4403,-4.4479,-4.5116,-4.5525,-4.5957,-4.6555,-4.6936,-4.7239,-4.7239,-4.7239,-4.7172,-4.6833,-4.7002,-4.7373,-4.7966,-4.8129,-4.8257,-4.8861,-4.9018,-4.9086,-4.9357,-5.0202,-5.1183,-5.2097,-5.2536,-5.2909,-5.3416,-5.3717,-5.3913,-5.3913,-5.4513,-5.4575,-5.3317,-5.2729,-5.1859,-5.0402,-4.9949,-4.9932,-5.0202,-5.1605,-5.2588,-5.2739,-5.3749,-5.4123,-5.3585,-5.4059,-5.5006,-5.6494,-5.8423,-5.9199,-5.874,-6.0444,-6.1198,-6.0935,-6.1041,-6.109,-6.115,-6.0763,-6.069,-6.1019,-6.1726,-6.2349,-6.3079,-6.3756,-6.4463,-6.5109,-6.5786,-6.6405,-6.7139,-6.7758,-6.828,-6.8649,-3.6405,-3.5427,-3.4532,-3.4532,-3.5471,-3.6222,-3.6197,-3.6871,-3.7387,-3.7307,-3.545,-3.4091,-3.4041,-3.3629,-3.2846,-3.1641,-3.1444,-3.1311,-3.1311,-3.2352,-3.3462,-3.4729,-3.5736,-3.6334,-3.6441,-3.6441,-3.6785,-3.7368,-3.8142,-3.8449,-3.8366,-3.8476,-3.8811,-3.9368,-4.0449,-4.1244,-4.1794,-4.2911,-4.3409,-4.3488,-4.4472,-4.4924,-4.4968,-4.5885,-4.6208,-4.6208,-4.6279,-4.6833,-4.7638,-4.7704,-4.8289,-4.9018,-4.9018,-4.9018,-4.8829,-4.7933,-4.8321,-4.9018,-4.9018,-4.9018,-4.9018,-4.9018,-4.9052,-4.9255,-4.9999,-5.1285,-5.2334,-5.2367,-5.301,-5.3584,-5.3584,-5.4203,-5.4665,-5.4665,-5.5291,-5.5525,-5.48,-5.3506,-5.2625,-5.2555,-5.1943,-5.1817,-5.2496,-5.4015,-5.4623,-5.3887,-5.5154,-5.5943,-5.5856,-5.5888,-5.6566,-5.7915,-5.9404,-6.0554,-6.1298,-6.2076,-6.2635,-6.2903,-6.307,-6.3148,-6.3148,-6.3084,-6.3469,-6.4158,-6.4828,-6.5582,-6.6222,-6.6927,-6.7631,-6.8368,-6.902,-6.9777,-7.0503,-7.1132,-7.1388,-7.1388,-3.6405,-3.6168,-3.593,-3.593,-3.6866,-3.7469,-3.6936,-3.7819,-3.8191,-3.729,-3.6687,-3.6169,-3.5724,-3.5534,-3.5332,-3.5035,-3.3564,-3.2655,-3.2655,-3.3649,-3.4585,-3.5352,-3.6402,-3.7594,-3.891,-3.8978,-3.9036,-3.9207,-4.0665,-4.0985,-4.0232,-4.1481,-4.2166,-4.2273,-4.2583,-4.2792,-4.2981,-4.4013,-4.4434,-4.4548,-4.5488,-4.5885,-4.5889,-4.6103,-4.6208,-4.6279,-4.7036,-4.7406,-4.7704,-4.845,-4.8829,-4.9018,-4.9018,-4.9018,-4.8954,-4.8736,-4.8829,-4.9018,-4.9018,-4.9018,-4.9018,-4.9018,-4.9424,-5.0033,-5.0777,-5.1657,-5.2469,-5.3078,-5.3809,-5.4359,-5.4359,-5.4939,-5.5437,-5.5437,-5.6122,-5.6328,-5.5564,-5.5173,-5.4773,-5.4138,-5.4421,-5.4805,-5.4946,-5.6423,-5.7298,-5.7118,-5.7444,-5.7592,-5.746,-5.7979,-5.8426,-5.8727,-6.0216,-6.1129,-6.1298,-6.2584,-6.385,-6.4976,-6.4607,-6.446,-6.4414,-6.3997,-6.3917,-6.419,-6.539,-6.603,-6.6222,-6.6927,-6.7631,-6.8368,-6.902,-6.9777,-7.0503,-7.1132,-7.1388,-7.1388,-3.6405,-3.6803,-3.7196,-3.7196,-3.8318,-3.9118,-3.8745,-3.8769,-3.8633,-3.7957,-3.7183,-3.6531,-3.6239,-3.6212,-3.6212,-3.6212,-3.5156,-3.4526,-3.4526,-3.5832,-3.6711,-3.7042,-3.8394,-3.9566,-4.049,-4.0529,-4.0676,-4.0969,-4.2227,-4.2515,-4.1938,-4.2872,-4.329,-4.329,-4.329,-4.3566,-4.4043,-4.4548,-4.5042,-4.5525,-4.6454,-4.6833,-4.69,-4.7306,-4.7473,-4.7572,-4.8064,-4.8225,-4.8321,-4.8829,-4.9018,-4.9018,-4.9018,-4.9018,-4.9018,-4.9018,-4.9018,-4.9018,-4.9018,-4.9226,-4.9619,-5.031,-5.0556,-5.0873,-5.1999,-5.256,-5.3075,-5.3844,-5.4328,-5.4695,-5.5024,-5.5724,-5.6259,-5.6259,-5.6902,-5.7255,-5.6819,-5.6514,-5.6303,-5.6216,-5.6286,-5.6652,-5.7333,-5.8538,-5.9238,-5.9182,-5.9543,-5.9716,-5.966,-5.9972,-5.9941,-5.9543,-6.0689,-6.1467,-6.1806,-6.326,-6.458,-6.5696,-6.5737,-6.5767,-6.5767,-6.5841,-6.6061,-6.6456,-6.7575,-6.8233,-6.8594,-6.8908,-6.9697,-7.0733,-7.1078,-7.1867,-7.2871,-7.3248,-7.3379,-7.3379,-3.6896,-3.7723,-3.8379,-3.8379,-3.9617,-4.0567,-4.0481,-3.9661,-3.9035,-3.888,-3.7603,-3.6682,-3.6682,-3.6766,-3.6822,-3.6822,-3.6945,-3.6788,-3.6389,-3.799,-3.9005,-3.9092,-4.0681,-4.1564,-4.1654,-4.1836,-4.219,-4.2762,-4.3421,-4.3732,-4.3732,-4.3732,-4.3732,-4.3732,-4.3732,-4.4205,-4.5005,-4.5153,-4.567,-4.6488,-4.744,-4.7803,-4.7901,-4.8671,-4.9018,-4.9018,-4.9018,-4.9018,-4.9018,-4.9018,-4.9018,-4.9018,-4.9018,-4.9077,-4.9168,-4.9168,-4.9226,-4.9286,-4.9165,-4.9737,-5.0656,-5.1979,-5.201,-5.2062,-5.3385,-5.3779,-5.4011,-5.4668,-5.4848,-5.5149,-5.578,-5.6527,-5.7065,-5.7065,-5.757,-5.8033,-5.8143,-5.7704,-5.7612,-5.8358,-5.799,-5.8203,-5.9536,-6.0356,-6.0899,-6.0962,-6.1587,-6.1968,-6.1951,-6.1967,-6.1571,-6.0703,-6.1181,-6.1873,-6.2719,-6.4072,-6.5121,-6.5865,-6.6508,-6.6812,-6.6846,-6.7692,-6.8436,-6.9147,-6.9992,-7.0737,-7.1312,-7.1312,-7.2157,-7.3477,-7.3477,-7.439,-7.5709,-7.5709,-7.5709,-7.5709,-3.9139,-3.9492,-3.9623,-3.9623,-4.0154,-4.0423,-3.9865,-3.9982,-3.9966,-3.9364,-3.9076,-3.8907,-3.8907,-3.9417,-3.9742,-3.9742,-4.0246,-3.9586,-3.7201,-3.8683,-3.9881,-4.0469,-4.1636,-4.2462,-4.2991,-4.3854,-4.4339,-4.4432,-4.5316,-4.5746,-4.5746,-4.5746,-4.5746,-4.5746,-4.5746,-4.5818,-4.6032,-4.6831,-4.7239,-4.7473,-4.8385,-4.8798,-4.8798,-4.8923,-4.9018,-4.9018,-4.9018,-4.9018,-4.9018,-4.9018,-4.9018,-4.9018,-4.9018,-4.9372,-4.9833,-4.9833,-5.0314,-5.0635,-5.0004,-5.0879,-5.2006,-5.2219,-5.318,-5.4127,-5.438,-5.4902,-5.5379,-5.5524,-5.6095,-5.6589,-5.6695,-5.7351,-5.7821,-5.7821,-5.7927,-5.8253,-5.8914,-5.893,-5.9139,-5.9944,-6.053,-6.0991,-6.1222,-6.1981,-6.275,-6.345,-6.3628,-6.3683,-6.3646,-6.4196,-6.4131,-6.3361,-6.2616,-6.2888,-6.4241,-6.5087,-6.5899,-6.6643,-6.6779,-6.6812,-6.688,-6.8267,-6.8977,-6.918,-7.0534,-7.121,-7.1312,-7.1312,-7.2157,-7.3477,-7.3477,-7.439,-7.5709,-7.5709,-7.5709,-7.5709,-3.9798,-4.0404,-4.0675,-4.0336,-4.07,-4.0803,-4.0118,-3.9914,-3.9768,-3.9469,-3.9373,-3.9373,-3.9373,-4.0008,-4.0397,-4.0397,-4.1789,-4.2145,-4.0846,-4.1047,-4.1322,-4.1656,-4.2436,-4.3274,-4.409,-4.5079,-4.5561,-4.5561,-4.5961,-4.6208,-4.6208,-4.6208,-4.6208,-4.6208,-4.6208,-4.6488,-4.697,-4.7406,-4.7901,-4.8385,-4.8829,-4.9018,-4.9018,-4.9018,-4.9018,-4.9018,-4.9018,-4.9226,-4.9551,-4.9551,-4.9809,-5.0118,-5.0118,-5.0342,-5.0581,-5.0581,-5.0823,-5.1218,-5.166,-5.2024,-5.2678,-5.4312,-5.4675,-5.4934,-5.6206,-5.6415,-5.6574,-5.7457,-5.7954,-5.8306,-5.8699,-5.9054,-5.9281,-5.9281,-5.9281,-5.9428,-5.9795,-6.0236,-6.0639,-6.1006,-6.1777,-6.2438,-6.2879,-6.3282,-6.3833,-6.4677,-6.4751,-6.4914,-6.5323,-6.5192,-6.5143,-6.5238,-6.4216,-6.4427,-6.5936,-6.5746,-6.6068,-6.6812,-6.6812,-6.6812,-6.688,-6.8402,-6.939,-6.9982,-7.149,-7.2099,-7.2133,-7.251,-7.3014,-7.3544,-7.395,-7.4762,-7.5709,-7.5709,-7.5709,-7.5771,-4.0618,-4.1264,-4.161,-4.1116,-4.1085,-4.0995,-4.0487,-3.9828,-3.9373,-3.9373,-3.9373,-3.9433,-3.9619,-4.0437,-4.1036,-4.1187,-4.3112,-4.4377,-4.4377,-4.3673,-4.329,-4.329,-4.3739,-4.4358,-4.5116,-4.6064,-4.6523,-4.6523,-4.673,-4.6833,-4.6833,-4.6833,-4.6833,-4.6833,-4.6833,-4.7239,-4.7933,-4.7933,-4.8321,-4.9018,-4.9018,-4.9018,-4.9018,-4.9018,-4.9107,-4.9226,-4.9226,-4.9664,-5.0286,-5.0286,-5.0635,-5.1086,-5.1086,-5.1357,-5.1592,-5.1592,-5.1861,-5.2373,-5.3532,-5.3603,-5.3957,-5.6447,-5.6369,-5.6187,-5.8187,-5.8187,-5.8052,-5.9299,-5.9548,-5.9739,-6.0286,-6.0419,-6.0419,-6.0419,-6.0419,-6.0456,-6.0639,-6.119,-6.1667,-6.1851,-6.2438,-6.3135,-6.4016,-6.409,-6.4494,-6.5521,-6.5595,-6.5925,-6.6733,-6.6106,-6.6163,-6.7244,-6.6031,-6.6027,-6.7422,-6.6897,-6.6913,-6.7454,-6.7454,-6.7597,-6.7803,-6.9172,-7.0278,-7.1294,-7.2579,-7.3235,-7.3485,-7.4036,-7.4333,-7.4545,-7.5127,-7.5812,-7.6496,-7.6496,-7.6496,-7.6634,-4.286,-4.2693,-4.2324,-4.2294,-4.1257,-4.0457,-4.0397,-3.9828,-3.9373,-3.9373,-3.9373,-3.9649,-4.0277,-4.1693,-4.2886,-4.3505,-4.5061,-4.6039,-4.6039,-4.5968,-4.5932,-4.5932,-4.5964,-4.6032,-4.6103,-4.7036,-4.7473,-4.7473,-4.8353,-4.8798,-4.8798,-4.8798,-4.8798,-4.8798,-4.8798,-4.8829,-4.8892,-4.8892,-4.8923,-4.9018,-4.9018,-4.9018,-4.9018,-4.9018,-4.9406,-4.9919,-4.9919,-5.039,-5.1008,-5.1008,-5.106,-5.1086,-5.1086,-5.2044,-5.3147,-5.3147,-5.4153,-5.528,-5.5397,-5.5925,-5.6708,-5.768,-5.8404,-5.9102,-5.9993,-6.0152,-6.0188,-6.031,-6.031,-6.0334,-6.0395,-6.0419,-6.0419,-6.0419,-6.0419,-6.0676,-6.141,-6.1557,-6.1887,-6.2622,-6.2768,-6.3135,-6.4016,-6.409,-6.4751,-6.6292,-6.6402,-6.6769,-6.7577,-6.755,-6.822,-6.9769,-6.8059,-6.7585,-6.8469,-6.9106,-6.9423,-6.9493,-6.9493,-6.9882,-7.0625,-7.1399,-7.225,-7.3032,-7.3843,-7.462,-7.5295,-7.5366,-7.6211,-7.751,-7.7545,-7.8075,-7.874,-7.874,-7.874,-7.8887,-4.2712,-4.256,-4.2141,-4.1294,-4.0726,-4.0277,-3.9858,-3.9589,-3.9373,-3.9373,-3.9373,-3.9866,-4.1117,-4.2191,-4.3305,-4.4563,-4.6138,-4.707,-4.707,-4.7605,-4.7406,-4.6244,-4.6765,-4.707,-4.707,-4.7966,-4.8482,-4.8482,-4.8829,-4.9018,-4.9018,-4.9018,-4.9018,-4.9018,-4.9018,-4.9226,-4.9605,-4.9605,-4.9896,-5.0314,-5.0314,-5.0314,-5.0314,-5.0314,-5.0445,-5.0689,-5.0689,-5.1138,-5.1716,-5.1716,-5.2342,-5.3142,-5.3142,-5.3849,-5.4889,-5.5668,-5.6684,-5.7749,-5.8536,-5.8185,-5.774,-5.8547,-5.9355,-6.0162,-6.097,-6.1153,-6.13,-6.1814,-6.1887,-6.1887,-6.1887,-6.1887,-6.1887,-6.1887,-6.1887,-6.1998,-6.2291,-6.2365,-6.2475,-6.2768,-6.278,-6.3135,-6.4016,-6.453,-6.5301,-6.6402,-6.6953,-6.7357,-6.7677,-6.7687,-6.8421,-7.0036,-6.9391,-6.9389,-7.0135,-6.9846,-6.992,-7.0451,-7.0451,-7.0841,-7.1657,-7.24,-7.326,-7.4151,-7.4905,-7.5693,-7.6482,-7.6983,-7.7399,-7.7854,-7.835,-7.87,-7.8983,-7.8983,-7.9241,-7.9746,-4.25,-4.2081,-4.1558,-4.0921,-4.0625,-4.043,-4.0226,-4.0235,-4.0235,-4.0235,-4.0235,-4.0786,-4.2347,-4.3195,-4.4275,-4.5819,-4.7243,-4.8031,-4.8031,-4.8639,-4.8511,-4.7441,-4.7995,-4.844,-4.8686,-4.9334,-4.9669,-4.9669,-4.9669,-4.9669,-4.9669,-4.9669,-4.9669,-4.9669,-4.9669,-4.989,-5.0335,-5.0335,-5.0635,-5.1086,-5.1086,-5.1086,-5.1086,-5.1086,-5.1241,-5.1419,-5.1419,-5.1874,-5.2463,-5.2717,-5.3521,-5.4436,-5.4693,-5.5411,-5.6499,-5.8049,-5.8933,-5.9628,-6.0787,-6.0356,-5.9743,-6.0277,-6.0714,-6.1241,-6.2053,-6.2238,-6.2385,-6.2951,-6.3191,-6.3294,-6.3294,-6.3294,-6.3294,-6.3294,-6.3294,-6.3294,-6.3294,-6.3294,-6.3294,-6.3294,-6.3294,-6.3595,-6.423,-6.5053,-6.5789,-6.6465,-6.7247,-6.7687,-6.7687,-6.7944,-6.8678,-7.0036,-7.0541,-7.1103,-7.1829,-7.1243,-7.1247,-7.1785,-7.207,-7.2608,-7.3361,-7.3864,-7.4604,-7.5567,-7.6333,-7.7132,-7.793,-7.8731,-7.9142,-7.928,-8.0007,-8.0333,-8.0334,-8.055,-8.0891,-8.1521,-4.2381,-4.1332,-4.0697,-4.1533,-4.1155,-4.0997,-4.1853,-4.1981,-4.1981,-4.1981,-4.1981,-4.2525,-4.3965,-4.4919,-4.6055,-4.7507,-4.8482,-4.9018,-4.9018,-4.9049,-4.9316,-4.9976,-5.0004,-5.0335,-5.1086,-5.1086,-5.1086,-5.1086,-5.1086,-5.1086,-5.1086,-5.1086,-5.1086,-5.1086,-5.1086,-5.1112,-5.1112,-5.1112,-5.1112,-5.1112,-5.1112,-5.1112,-5.1112,-5.1112,-5.1519,-5.2112,-5.2112,-5.2576,-5.3335,-5.4142,-5.4399,-5.4546,-5.5376,-5.652,-5.7937,-6.0093,-6.0725,-6.0914,-6.1707,-6.25,-6.3124,-6.3124,-6.2761,-6.2609,-6.3407,-6.3631,-6.3631,-6.3631,-6.4019,-6.4389,-6.4389,-6.4389,-6.4389,-6.4389,-6.4389,-6.4389,-6.4389,-6.4389,-6.4389,-6.4389,-6.4426,-6.4516,-6.4793,-6.5545,-6.6145,-6.6518,-6.7273,-6.7714,-6.7714,-6.8485,-6.9293,-7.0101,-7.1461,-7.2597,-7.3417,-7.3591,-7.3736,-7.3736,-7.4515,-7.5322,-7.613,-7.613,-7.657,-7.7347,-7.8222,-7.9066,-7.9837,-8.0681,-8.1489,-8.2247,-8.2935,-8.3218,-8.3303,-8.3953,-8.4203,-8.4467,-4.199,-4.2093,-4.2176,-4.1939,-4.1752,-4.1691,-4.1949,-4.1981,-4.1981,-4.1981,-4.1981,-4.2784,-4.4852,-4.5335,-4.6341,-4.8411,-4.9248,-4.989,-5.0452,-5.0445,-5.077,-5.1444,-5.0527,-5.0335,-5.1086,-5.1086,-5.1086,-5.1086,-5.1086,-5.1086,-5.1086,-5.1086,-5.1086,-5.1086,-5.1086,-5.1368,-5.179,-5.179,-5.2089,-5.2554,-5.2554,-5.2554,-5.2554,-5.2554,-5.2702,-5.2893,-5.2893,-5.3368,-5.4069,-5.4326,-5.5376,-5.6766,-5.7921,-5.8934,-5.9942,-6.0893,-6.2008,-6.3077,-6.3638,-6.4398,-6.4764,-6.3437,-6.3446,-6.3857,-6.4121,-6.4138,-6.4138,-6.4138,-6.4275,-6.4389,-6.4389,-6.4389,-6.4389,-6.4389,-6.4389,-6.4389,-6.4389,-6.4389,-6.4389,-6.4389,-6.4917,-6.5275,-6.5362,-6.664,-6.7518,-6.761,-6.8375,-6.9065,-6.9687,-6.9949,-7.0736,-7.2084,-7.2568,-7.3184,-7.4026,-7.4652,-7.5269,-7.5807,-7.6693,-7.7263,-7.7645,-7.7645,-7.7546,-7.7347,-7.8222,-7.9066,-7.99,-8.1185,-8.2171,-8.2965,-8.3651,-8.3876,-8.394,-8.4104,-8.4869,-8.5915,-4.2291,-4.2417,-4.2591,-4.2522,-4.252,-4.2614,-4.2984,-4.3015,-4.3103,-4.3337,-4.3367,-4.4286,-4.6583,-4.681,-4.7626,-4.9642,-5.0202,-5.0635,-5.106,-5.1086,-5.1393,-5.2089,-5.1256,-5.1189,-5.1898,-5.1922,-5.1922,-5.1922,-5.1922,-5.1922,-5.1922,-5.1922,-5.1922,-5.1922,-5.1922,-5.2172,-5.2531,-5.2531,-5.2791,-5.3203,-5.3203,-5.3203,-5.3203,-5.3203,-5.3314,-5.3461,-5.3813,-5.438,-5.502,-5.5671,-5.6965,-5.8484,-5.9791,-6.0546,-6.1213,-6.2347,-6.3364,-6.4301,-6.4923,-6.5513,-6.5615,-6.4504,-6.4436,-6.4661,-6.4661,-6.4661,-6.4661,-6.4661,-6.4854,-6.4971,-6.4971,-6.5237,-6.5482,-6.5482,-6.5748,-6.5977,-6.5977,-6.5977,-6.5977,-6.5977,-6.6434,-6.6615,-6.6402,-6.7598,-6.8565,-6.9051,-6.9559,-7.0201,-7.1014,-7.1392,-7.2012,-7.2994,-7.3543,-7.4061,-7.4591,-7.5987,-7.6686,-7.6685,-7.7915,-7.8558,-7.8653,-7.8653,-7.842,-7.81,-7.9316,-8.0097,-8.0682,-8.2237,-8.3147,-8.3677,-8.4325,-8.456,-8.4583,-8.4866,-8.5734,-8.693,-4.3073,-4.2655,-4.2582,-4.3436,-4.3555,-4.3852,-4.4631,-4.4776,-4.4961,-4.5494,-4.5571,-4.6384,-4.8558,-4.881,-4.9412,-5.0944,-5.1164,-5.1215,-5.1266,-5.1266,-5.1544,-5.2159,-5.2183,-5.2531,-5.3203,-5.3203,-5.3203,-5.3203,-5.3203,-5.3203,-5.3203,-5.323,-5.3251,-5.3251,-5.3293,-5.3334,-5.3334,-5.3334,-5.3334,-5.3334,-5.3334,-5.3334,-5.3334,-5.3334,-5.3563,-5.3963,-5.482,-5.5463,-5.6064,-5.7796,-5.8908,-5.9807,-6.105,-6.1549,-6.208,-6.404,-6.4666,-6.4897,-6.5667,-6.5897,-6.5897,-6.5897,-6.558,-6.5276,-6.5199,-6.5161,-6.5199,-6.5276,-6.5671,-6.6013,-6.609,-6.6705,-6.7205,-6.7205,-6.7898,-6.8385,-6.8385,-6.8385,-6.8385,-6.8385,-6.8475,-6.8339,-6.7958,-6.8711,-6.967,-7.076,-7.0853,-7.1194,-7.2008,-7.2745,-7.3178,-7.3254,-7.46,-7.5277,-7.5277,-7.7499,-7.8049,-7.69,-7.8564,-7.9335,-7.929,-7.929,-7.9305,-7.9387,-8.1009,-8.1726,-8.1915,-8.361,-8.4276,-8.4325,-8.4974,-8.5182,-8.5242,-8.5864,-8.6709,-8.7632,-4.3856,-4.4356,-4.4952,-4.5594,-4.572,-4.5805,-4.5989,-4.6014,-4.6063,-4.6209,-4.6174,-4.6881,-4.8608,-4.881,-4.9412,-5.0944,-5.1569,-5.2112,-5.2702,-5.2725,-5.2828,-5.2959,-5.2959,-5.306,-5.3203,-5.3203,-5.3203,-5.3203,-5.3203,-5.3203,-5.3225,-5.3506,-5.3663,-5.3683,-5.4031,-5.4242,-5.4242,-5.4242,-5.4242,-5.4242,-5.4242,-5.4242,-5.4242,-5.4242,-5.4255,-5.4451,-5.5275,-5.604,-5.6949,-5.9003,-6.0251,-6.1088,-6.1735,-6.2836,-6.4001,-6.4449,-6.5089,-6.5667,-6.5859,-6.5897,-6.5897,-6.5897,-6.6307,-6.6485,-6.587,-6.5717,-6.5909,-6.6523,-6.6769,-6.7051,-6.7744,-6.8013,-6.8129,-6.8129,-6.8282,-6.8385,-6.8385,-6.8385,-6.8385,-6.8385,-6.9013,-6.964,-7.0134,-7.1579,-7.2586,-7.2839,-7.2878,-7.3223,-7.4028,-7.4258,-7.4641,-7.5331,-7.6309,-7.6817,-7.6817,-7.8623,-7.9038,-7.813,-7.9855,-8.0427,-7.9908,-7.9908,-8.0022,-8.0278,-8.1273,-8.2066,-8.2779,-8.43,-8.4893,-8.4995,-8.5645,-8.5864,-8.5919,-8.606,-8.7094,-8.8632,-4.5191,-4.562,-4.6039,-4.6342,-4.6389,-4.6389,-4.6389,-4.6389,-4.6507,-4.6842,-4.7209,-4.8038,-4.9591,-5.0105,-5.0826,-5.1993,-5.244,-5.2791,-5.3167,-5.3203,-5.3293,-5.3484,-5.3484,-5.3565,-5.3833,-5.3833,-5.3701,-5.3484,-5.3701,-5.3833,-5.3833,-5.405,-5.4135,-5.4135,-5.4387,-5.4484,-5.4484,-5.4484,-5.4484,-5.4484,-5.4484,-5.4484,-5.4484,-5.4484,-5.4609,-5.4927,-5.6156,-5.7543,-5.8935,-6.0045,-6.107,-6.1932,-6.2618,-6.3757,-6.4938,-6.5364,-6.578,-6.6129,-6.6129,-6.6448,-6.6758,-6.6758,-6.7348,-6.7704,-6.6716,-6.688,-6.7382,-6.7757,-6.7916,-6.8084,-6.8539,-6.8965,-6.9391,-6.9827,-7.0214,-7.064,-7.1028,-7.1026,-7.0961,-7.0961,-7.1274,-7.1668,-7.2091,-7.2976,-7.3654,-7.4053,-7.4091,-7.4437,-7.5284,-7.5707,-7.613,-7.6592,-7.7438,-7.7861,-7.7861,-7.9169,-7.9592,-7.9131,-8.0477,-8.0943,-8.0591,-8.0974,-8.123,-8.144,-8.2698,-8.3478,-8.3938,-8.5112,-8.557,-8.5589,-8.5954,-8.6094,-8.6094,-8.6094,-8.7209,-8.8863,-4.653,-4.6553,-4.6577,-4.6692,-4.6715,-4.6715,-4.6715,-4.6858,-4.7169,-4.7708,-4.8475,-4.9501,-5.0872,-5.172,-5.2495,-5.324,-5.3277,-5.3318,-5.342,-5.342,-5.3583,-5.3887,-5.3905,-5.4101,-5.4484,-5.4563,-5.4387,-5.3905,-5.4305,-5.4484,-5.4484,-5.4563,-5.467,-5.4836,-5.4898,-5.5004,-5.5117,-5.5004,-5.4928,-5.489,-5.4776,-5.4701,-5.4701,-5.4737,-5.504,-5.5644,-5.7238,-5.9119,-6.0899,-6.1053,-6.1756,-6.2701,-6.3585,-6.452,-6.5459,-6.6192,-6.6387,-6.6426,-6.6581,-6.7133,-6.7723,-6.7878,-6.8501,-6.8893,-6.8055,-6.8323,-6.8828,-6.91,-6.9251,-6.9442,-6.9714,-7.0369,-7.107,-7.1816,-7.2549,-7.3243,-7.3911,-7.392,-7.382,-7.382,-7.3837,-7.3819,-7.3819,-7.3908,-7.4266,-7.4921,-7.5082,-7.5476,-7.6169,-7.7053,-7.7515,-7.7515,-7.8284,-7.8707,-7.8707,-7.9592,-8.0015,-8.0015,-8.0938,-8.1353,-8.1392,-8.2047,-8.2554,-8.2921,-8.4387,-8.5081,-8.5259,-8.5915,-8.6168,-8.6153,-8.6126,-8.6094,-8.6132,-8.6286,-8.7325,-8.8825,-4.7132,-4.7277,-4.7428,-4.7939,-4.8055,-4.8055,-4.8055,-4.8696,-4.9192,-4.9272,-5.0004,-5.0831,-5.1756,-5.2564,-5.3228,-5.3683,-5.372,-5.3906,-5.4288,-5.4305,-5.4338,-5.4387,-5.4404,-5.442,-5.4484,-5.4833,-5.4819,-5.4404,-5.4452,-5.4484,-5.45,-5.4848,-5.5421,-5.6172,-5.651,-5.709,-5.7731,-5.6975,-5.6668,-5.6591,-5.5861,-5.5554,-5.5538,-5.5663,-5.62,-5.7074,-5.8147,-5.9724,-6.1337,-6.2082,-6.2912,-6.3748,-6.461,-6.5518,-6.6231,-6.6387,-6.6387,-6.6543,-6.7327,-6.7606,-6.7878,-6.8546,-6.9396,-7.0162,-7.0781,-6.9855,-6.9292,-7.0809,-7.1141,-7.1583,-7.3055,-7.3405,-7.3522,-7.3639,-7.3755,-7.3872,-7.3989,-7.3968,-7.3953,-7.3953,-7.4623,-7.5066,-7.5066,-7.5575,-7.5968,-7.6084,-7.6621,-7.6976,-7.713,-7.79,-7.8323,-7.8323,-7.9169,-7.9631,-7.9631,-8.0477,-8.0939,-8.0939,-8.1993,-8.2482,-8.2482,-8.2598,-8.3524,-8.5096,-8.5329,-8.5834,-8.6545,-8.6451,-8.6442,-8.6416,-8.62,-8.6094,-8.6209,-8.694,-8.7863,-8.8825,-4.8159,-4.8254,-4.8366,-4.8878,-4.9372,-4.9687,-4.9687,-5.0413,-5.0953,-5.0953,-5.1628,-5.2283,-5.2618,-5.3439,-5.3997,-5.417,-5.4187,-5.4272,-5.4468,-5.4484,-5.4594,-5.4819,-5.4833,-5.4933,-5.5173,-5.5822,-5.6052,-5.5912,-5.5402,-5.5173,-5.5173,-5.586,-5.6355,-5.675,-5.7417,-5.7934,-5.828,-5.7896,-5.7492,-5.7081,-5.6695,-5.6313,-5.6009,-5.653,-5.6991,-5.7509,-5.8898,-6.0556,-6.2067,-6.2463,-6.353,-6.4762,-6.5152,-6.5932,-6.6787,-6.7255,-6.7412,-6.7607,-6.8468,-6.9015,-6.9561,-7.0423,-7.1282,-7.2177,-7.3038,-7.2648,-7.2285,-7.2929,-7.3161,-7.3468,-7.4207,-7.4324,-7.448,-7.4987,-7.5065,-7.5222,-7.5729,-7.5681,-7.5569,-7.5475,-7.5811,-7.6239,-7.6706,-7.701,-7.7322,-7.7672,-7.7959,-7.8089,-7.7992,-7.8784,-7.9438,-7.9939,-8.0746,-8.1484,-8.2082,-8.2482,-8.2729,-8.2882,-8.3359,-8.3261,-8.2759,-8.3804,-8.4707,-8.5541,-8.5999,-8.6427,-8.6808,-8.67,-8.6651,-8.6708,-8.6932,-8.6917,-8.6863,-8.7248,-8.794,-8.8748]},{"header":{"parameterUnit":"m.s-1","parameterCategory":1,"la1":30.6,"la2":28.766,"lo1":-90.7593,"lo2":-88.6598,"dx":0.0162,"dy":0.0183,"nx":116,"ny":114,"refTime":"2023-01-21T18:00:00:Z","depth":0,"parameterNumber":3,"parameterNumberName":"V-component_of_WINDS"},"data":[0.0,0.0,0.0,0.0,0.0,0.0,0.0,0.0,0.0,0.0,0.0,0.0,0.0,0.0,0.0,0.0,0.0,0.0,0.0,0.0,0.0,0.0,0.0,0.0,0.0,0.0,0.0,0.0,0.0,0.0,0.0,0.0,0.0,0.0,0.0,0.0,0.0,0.0,0.0,0.0,0.0,0.0,0.0,0.0,0.0,0.0,0.0,0.0,0.0,0.0,0.0,0.0,0.0,0.0,0.0,0.0,0.0,0.0,0.0,0.0,0.0,0.0,0.0,0.0,0.0,0.0,0.0,0.0,0.0,0.0,0.0,0.0,0.0,0.0,0.0,0.0,0.0,0.0,0.0,0.0,0.0,0.0,0.0,0.0,0.0,0.0,0.0,0.0,0.0,0.0,0.0,0.0,0.0,0.0,0.0,0.0,0.0,0.0,0.0,0.0,0.0,0.0,0.0,0.0,0.0,0.0,0.0,0.0,0.0,0.0,0.0,0.0,0.0,0.0,0.0,0.0,0.0,0.0,0.0,0.0,0.0,0.0,0.0,0.0,0.0,0.0,0.0,0.0,0.0,0.0,0.0,0.0,0.0,0.0,0.0,0.0,0.0,0.0,0.0,0.0,0.0,0.0,0.0,0.0,0.0,0.0,0.0,0.0,0.0,0.0,0.0,0.0,0.0,0.0,0.0,0.0,0.0,0.0,0.0,0.0,0.0,0.0,0.0,0.0,0.0,0.0,0.0,0.0,0.0,0.0,0.0,0.0,0.0,0.0,0.0,0.0,0.0,0.0,0.0,0.0,0.0,0.0,0.0,0.0,0.0,0.0,0.0,0.0,0.0,0.0,0.0,0.0,0.0,0.0,0.0,0.0,0.0,0.0,0.0,0.0,0.0,0.0,0.0,0.0,0.0,0.0,0.0,0.0,0.0,0.0,0.0,0.0,0.0,0.0,0.0,0.0,0.0,0.0,0.0,0.0,0.0,0.0,0.0,0.0,0.0,0.0,0.0,0.0,0.0,0.0,0.0,0.0,0.0,0.0,0.0,0.0,0.0,0.0,0.0,0.0,0.0,0.0,0.0,0.0,0.0,0.0,0.0,0.0,0.0,0.0,0.0,0.0,0.0,0.0,0.0,0.0,0.0,0.0,0.0,0.0,0.0,0.0,0.0,0.0,0.0,0.0,0.0,0.0,0.0,0.0,0.0,0.0,0.0,0.0,0.0,0.0,0.0,0.0,0.0,0.0,0.0,0.0,0.0,0.0,0.0,0.0,0.0,0.0,0.0,0.0,0.0,0.0,0.0,0.0,0.0,0.0,0.0,0.0,0.0,0.0,0.0,0.0,0.0,0.0,0.0,0.0,0.0,0.0,0.0,0.0,0.0,0.0,0.0,0.0,0.0,0.0,0.0,0.0,0.0,0.0,0.0,0.0,0.0,0.0,0.0,0.0,0.0,0.0,0.0,0.0,0.0,0.0,0.0,0.0,0.0,0.0,0.0,0.0,0.0,0.0,0.0,0.0,0.0,0.0,0.0,0.0,0.0,0.0,0.0,0.0,0.0,0.0,0.0,0.0,0.0,0.0,0.0,0.0,0.0,0.0,0.0,0.0,0.0,0.0,0.0,0.0,0.0,0.0,0.0,0.0,0.0,0.0,0.0,0.0,0.0,0.0,0.0,0.0,0.0,0.0,0.0,0.0,0.0,0.0,0.0,0.0,0.0,0.0,0.0,0.0,0.0,0.0,0.0,0.0,0.0,0.0,0.0,0.0,0.0,0.0,0.0,0.0,0.0,0.0,0.0,0.0,0.0,0.0,0.0,0.0,0.0,0.0,0.0,0.0,0.0,0.0,0.0,0.0,0.0,0.0,0.0,0.0,0.0,0.0,0.0,0.0,0.0,0.0,0.0,0.0,0.0,0.0,0.0,0.0,0.0,0.0,0.0,0.0,0.0,0.0,0.0,0.0,0.0,0.0,0.0,0.0,0.0,0.0,0.0,0.0,0.0,0.0,0.0,0.0,0.0,0.0,0.0,0.0,0.0,0.0,0.0,0.0,0.0,0.0,0.0,0.0,0.0,0.0,0.0,0.0,0.0,0.0,0.0,0.0,0.0,0.0,0.0,0.0,0.0,0.0,0.0,0.0,0.0,0.0,0.0,0.0,0.0,0.0,0.0,0.0,0.0,0.0,0.0,0.0,0.0,0.0,0.0,0.0,0.0,0.0,0.0,0.0,0.0,0.0,0.0,0.0,0.0,0.0,0.0,0.0,0.0,0.0,0.0,0.0,0.0,0.0,0.0,0.0,0.0,0.0,0.0,0.0,0.0,0.0,0.0,0.0,0.0,0.0,0.0,0.0,0.0,0.0,0.0,0.0,0.0,0.0,0.0,0.0,0.0,0.0,0.0,0.0,0.0,0.0,0.0,0.0,0.0,0.0,0.0,0.0,0.0,0.0,0.0,0.0,0.0,0.0,0.0,0.0,0.0,0.0,0.0,0.0,0.0,0.0,0.0,0.0,0.0,0.0,0.0,0.0,0.0,0.0,0.0,0.0,0.0,0.0,0.0,0.0,0.0,0.0,0.0,0.0,0.0,0.0,0.0,0.0,0.0,0.0,0.0,0.0,0.0,0.0,0.0,0.0,0.0,0.0,0.0,0.0,0.0,0.0,0.0,0.0,0.0,0.0,0.0,0.0,0.0,0.0,0.0,0.0,0.0,0.0,0.0,0.0,0.0,0.0,0.0,0.0,0.0,0.0,0.0,0.0,0.0,0.0,0.0,0.0,0.0,0.0,0.0,0.0,0.0,0.0,0.0,0.0,0.0,0.0,0.0,0.0,0.0,0.0,0.0,0.0,0.0,0.0,0.0,0.0,0.0,0.0,0.0,0.0,0.0,0.0,0.0,0.0,0.0,0.0,0.0,0.0,0.0,0.0,0.0,0.0,0.0,0.0,0.0,0.0,0.0,0.0,0.0,0.0,0.0,0.0,0.0,0.0,0.0,0.0,0.0,0.0,0.0,0.0,0.0,0.0,0.0,0.0,0.0,0.0,0.0,0.0,0.0,0.0,0.0,0.0,0.0,0.0,0.0,0.0,0.0,0.0,0.0,0.0,0.0,0.0,0.0,0.0,0.0,0.0,0.0,0.0,0.0,0.0,0.0,0.0,0.0,0.0,0.0,0.0,0.0,0.0,0.0,0.0,0.0,0.0,0.0,0.0,0.0,0.0,0.0,0.0,0.0,0.0,0.0,0.0,0.0,0.0,0.0,0.0,0.0,0.0,0.0,0.0,0.0,0.0,0.0,0.0,0.0,0.0,0.0,0.0,0.0,0.0,0.0,0.0,0.0,0.0,0.0,0.0,0.0,0.0,0.0,0.0,0.0,0.0,0.0,0.0,0.0,0.0,0.0,0.0,0.0,0.0,0.0,0.0,0.0,0.0,0.0,0.0,0.0,0.0,0.0,0.0,0.0,0.0,0.0,0.0,0.0,0.0,0.0,0.0,0.0,0.0,0.0,0.0,0.0,0.0,0.0,0.0,0.0,0.0,0.0,0.0,0.0,0.0,0.0,0.0,0.0,0.0,0.0,0.0,0.0,0.0,0.0,0.0,0.0,0.0,0.0,0.0,0.0,0.0,0.0,0.0,0.0,0.0,0.0,0.0,0.0,0.0,0.0,0.0,0.0,0.0,0.0,0.0,0.0,0.0,0.0,0.0,0.0,0.0,0.0,0.0,0.0,0.0,0.0,0.0,0.0,0.0,0.0,0.0,0.0,0.0,0.0,0.0,0.0,0.0,0.0,0.0,0.0,0.0,0.0,0.0,0.0,0.0,0.0,0.0,0.0,0.0,0.0,0.0,0.0,0.0,0.0,0.0,0.0,0.0,0.0,0.0,0.0,0.0,0.0,0.0,0.0,0.0,0.0,0.0,0.0,0.0,0.0,0.0,0.0,0.0,0.0,0.0,0.0,0.0,0.0,0.0,0.0,0.0,0.0,0.0,0.0,0.0,0.0,0.0,0.0,0.0,0.0,0.0,0.0,0.0,0.0,0.0,0.0,0.0,0.0,0.0,0.0,0.0,0.0,0.0,0.0,0.0,0.0,0.0,0.0,0.0,0.0,0.0,0.0,0.0,0.0,0.0,0.0,0.0,0.0,0.0,0.0,0.0,0.0,0.0,0.0,0.0,0.0,0.0,0.0,0.0,0.0,0.0,0.0,0.0,0.0,0.0,0.0,0.0,0.0,0.0,0.0,0.0,0.0,0.0,0.0,0.0,0.0,0.0,0.0,0.0,0.0,0.0,0.0,0.0,0.0,0.0,0.0,0.0,0.0,0.0,0.0,0.0,0.0,0.0,0.0,0.0,0.0,0.0,0.0,0.0,0.0,0.0,0.0,0.0,0.0,0.0,0.0,0.0,0.0,0.0,0.0,0.0,0.0,0.0,0.0,0.0,0.0,0.0,0.0,0.0,0.0,0.0,0.0,0.0,0.0,0.0,0.0,0.0,0.0,0.0,0.0,0.0,0.0,0.0,0.0,0.0,0.0,0.0,0.0,0.0,0.0,0.0,0.0,0.0,0.0,0.0,0.0,0.0,0.0,0.0,0.0,0.0,0.0,0.0,0.0,0.0,0.0,0.0,0.0,0.0,0.0,0.0,0.0,0.0,0.0,0.0,0.0,0.0,0.0,0.0,0.0,0.0,0.0,0.0,0.0,0.0,0.0,0.0,0.0,0.0,0.0,0.0,0.0,0.0,0.0,0.0,0.0,0.0,0.0,0.0,0.0,0.0,0.0,0.0,0.0,0.0,0.0,0.0,0.0,0.0,0.0,0.0,0.0,0.0,0.0,0.0,0.0,0.0,0.0,0.0,0.0,0.0,0.0,0.0,0.0,0.0,0.0,0.0,0.0,0.0,0.0,0.0,0.0,0.0,0.0,0.0,0.0,0.0,0.0,0.0,0.0,0.0,0.0,0.0,0.0,0.0,0.0,0.0,0.0,0.0,0.0,0.0,0.0,0.0,0.0,0.0,0.0,0.0,0.0,0.0,0.0,0.0,0.0,0.0,0.0,0.0,0.0,0.0,0.0,0.0,0.0,0.0,0.0,0.0,0.0,0.0,0.0,0.0,0.0,0.0,0.0,0.0,0.0,0.0,0.0,0.0,0.0,0.0,0.0,0.0,0.0,0.0,0.0,0.0,0.0,0.0,0.0,0.0,0.0,0.0,0.0,0.0,0.0,0.0,0.0,0.0,0.0,0.0,0.0,0.0,0.0,0.0,0.0,0.0,0.0,0.0,0.0,0.0,0.0,0.0,0.0,0.0,0.0,0.0,0.0,0.0,0.0,0.0,0.0,0.0,0.0,0.0,0.0,0.0,0.0,0.0,0.0,0.0,0.0,0.0,0.0,0.0,0.0,0.0,0.0,0.0,0.0,0.0,0.0,0.0,0.0,0.0,0.0,0.0,0.0,0.0,0.0,0.0,0.0,0.0,0.0,0.0,0.0,0.0,0.0,0.0,0.0,0.0,0.0,0.0,0.0,0.0,0.0,0.0,0.0,0.0,0.0,0.0,0.0,0.0,0.0,0.0,0.0,0.0,0.0,0.0,0.0,0.0,0.0,0.0,0.0,0.0,0.0,0.0,0.0,0.0,0.0,0.0,0.0,0.0,0.0,0.0,0.0,0.0,0.0,0.0,0.0,0.0,0.0,0.0,0.0,0.0,0.0,0.0,0.0,0.0,0.0,0.0,0.0,0.0,0.0,0.0,0.0,0.0,0.0,0.0,0.0,0.0,0.0,0.0,0.0,0.0,0.0,0.0,0.0,0.0,0.0,0.0,0.0,0.0,0.0,0.0,0.0,0.0,0.0,0.0,0.0,0.0,0.0,0.0,0.0,0.0,0.0,0.0,0.0,0.0,0.0,0.0,0.0,0.0,0.0,0.0,0.0,0.0,0.0,0.0,0.0,0.0,0.0,0.0,0.0,0.0,0.0,0.0,0.0,0.0,0.0,0.0,0.0,0.0,0.0,0.0,0.0,0.0,0.0,0.0,0.0,0.0,0.0,0.0,0.0,0.0,0.0,0.0,0.0,0.0,0.0,0.0,0.0,0.0,0.0,0.0,0.0,0.0,7.1514,7.036,0.0,0.0,0.0,0.0,0.0,0.0,0.0,0.0,0.0,0.0,0.0,0.0,0.0,0.0,0.0,0.0,0.0,0.0,0.0,0.0,0.0,0.0,0.0,0.0,0.0,0.0,0.0,0.0,0.0,0.0,0.0,0.0,0.0,0.0,0.0,0.0,0.0,0.0,0.0,0.0,0.0,0.0,0.0,0.0,0.0,0.0,0.0,0.0,0.0,0.0,0.0,0.0,0.0,0.0,0.0,0.0,0.0,0.0,0.0,0.0,0.0,0.0,0.0,0.0,0.0,0.0,0.0,0.0,0.0,0.0,0.0,0.0,0.0,0.0,0.0,0.0,0.0,0.0,0.0,0.0,0.0,0.0,0.0,0.0,0.0,0.0,0.0,0.0,0.0,0.0,0.0,0.0,0.0,0.0,0.0,0.0,0.0,0.0,0.0,0.0,0.0,0.0,0.0,0.0,0.0,0.0,0.0,0.0,0.0,0.0,0.0,0.0,0.0,0.0,7.563,7.3745,0.0,0.0,0.0,0.0,0.0,0.0,0.0,0.0,0.0,0.0,0.0,0.0,0.0,0.0,0.0,0.0,0.0,0.0,0.0,0.0,0.0,0.0,0.0,0.0,0.0,0.0,0.0,0.0,0.0,0.0,0.0,0.0,0.0,0.0,0.0,0.0,0.0,0.0,0.0,0.0,0.0,0.0,0.0,0.0,0.0,0.0,0.0,0.0,0.0,0.0,0.0,0.0,0.0,0.0,0.0,0.0,0.0,0.0,0.0,0.0,0.0,0.0,0.0,0.0,0.0,0.0,0.0,0.0,0.0,0.0,0.0,0.0,0.0,0.0,0.0,0.0,0.0,0.0,0.0,0.0,0.0,0.0,0.0,0.0,0.0,0.0,0.0,0.0,0.0,0.0,0.0,0.0,0.0,0.0,0.0,0.0,0.0,0.0,0.0,0.0,0.0,0.0,0.0,0.0,0.0,0.0,0.0,0.0,8.2054,8.2516,8.3824,8.3324,8.367,8.4516,8.117,7.8631,7.6784,7.5399,0.0,0.0,0.0,0.0,0.0,0.0,0.0,0.0,0.0,0.0,0.0,0.0,0.0,0.0,0.0,0.0,0.0,0.0,0.0,0.0,0.0,0.0,6.4282,6.4282,6.5705,6.6705,0.0,0.0,0.0,0.0,0.0,0.0,0.0,0.0,0.0,0.0,0.0,0.0,7.4553,7.5322,7.5438,7.4938,7.3476,0.0,0.0,0.0,0.0,0.0,0.0,0.0,0.0,0.0,0.0,0.0,0.0,0.0,0.0,0.0,0.0,0.0,0.0,0.0,0.0,0.0,0.0,0.0,0.0,0.0,0.0,0.0,0.0,0.0,0.0,0.0,0.0,0.0,0.0,0.0,0.0,0.0,0.0,0.0,0.0,0.0,0.0,0.0,7.4553,7.4553,0.0,0.0,0.0,0.0,0.0,0.0,0.0,0.0,0.0,0.0,0.0,0.0,0.0,8.4516,8.6555,8.7902,8.8632,8.8748,8.9402,8.9825,9.0056,9.071,9.0287,8.9094,8.9286,0.0,8.04,8.0208,0.0,0.0,0.0,0.0,0.0,0.0,0.0,0.0,0.0,0.0,0.0,0.0,0.0,0.0,0.0,0.0,0.0,0.0,0.0,0.0,0.0,6.5743,6.6936,6.7436,6.8552,6.9244,6.9244,0.0,0.0,0.0,0.0,0.0,0.0,0.0,0.0,0.0,7.6746,7.7592,7.7592,7.8477,7.8592,7.8092,7.7361,7.5976,7.413,7.3707,0.0,0.0,0.0,0.0,0.0,0.0,0.0,0.0,0.0,0.0,0.0,0.0,0.0,0.0,0.0,0.0,0.0,0.0,0.0,0.0,0.0,0.0,0.0,0.0,0.0,0.0,0.0,0.0,0.0,0.0,0.0,0.0,0.0,0.0,0.0,0.0,0.0,0.0,0.0,7.6092,7.6823,7.6823,7.7592,7.7938,0.0,0.0,0.0,0.0,0.0,0.0,0.0,0.0,0.0,8.794,8.8786,9.0441,9.3056,9.3787,9.4441,9.4903,9.5288,9.548,9.548,9.5865,9.5365,9.421,9.4557,9.2518,8.8632,8.5286,8.3247,8.2131,0.0,0.0,0.0,0.0,8.1903,8.2466,0.0,0.0,0.0,0.0,0.0,0.0,0.0,0.0,0.0,0.0,0.0,0.0,6.6744,6.859,7.0052,7.0898,7.1514,7.186,7.186,0.0,0.0,0.0,0.0,0.0,0.0,0.0,0.0,7.8284,7.9939,8.0669,8.0477,8.1554,8.1593,8.0746,8.0554,7.8669,7.563,7.4822,7.3976,0.0,0.0,0.0,0.0,0.0,0.0,0.0,0.0,0.0,0.0,0.0,0.0,0.0,0.0,0.0,0.0,0.0,0.0,0.0,0.0,0.0,0.0,0.0,0.0,0.0,0.0,0.0,0.0,0.0,0.0,0.0,0.0,0.0,0.0,0.0,0.0,0.0,0.0,7.8554,7.9554,7.9785,8.0939,8.1593,0.0,0.0,0.0,0.0,0.0,0.0,8.8632,8.9517,9.1441,9.4634,9.498,9.6403,9.9096,9.9327,9.975,10.0404,10.0596,10.0596,10.0404,10.0404,9.9827,9.8788,9.8788,9.798,9.6172,9.0633,8.7979,8.7286,8.6017,8.5328,8.5043,8.5385,8.6012,8.6651,0.0,0.0,0.0,0.0,0.0,0.0,0.0,0.0,0.0,0.0,0.0,6.7628,6.9321,7.1745,7.3591,7.4399,7.4476,7.4514,7.4514,7.3028,7.2642,7.3829,7.3004,0.0,0.0,0.0,0.0,8.09,8.2593,8.2978,8.2208,8.3901,8.4247,8.3362,8.2554,8.0746,7.8246,7.7438,7.6592,7.5745,0.0,0.0,0.0,0.0,0.0,0.0,0.0,0.0,0.0,0.0,0.0,0.0,0.0,0.0,0.0,0.0,0.0,0.0,0.0,0.0,0.0,0.0,0.0,0.0,0.0,0.0,0.0,0.0,0.0,0.0,0.0,0.0,0.0,0.0,0.0,0.0,0.0,0.0,0.0,8.3247,8.5517,0.0,0.0,0.0,0.0,9.0633,9.1595,9.3172,9.5672,9.6557,9.8173,10.0789,10.1712,10.2597,10.3597,10.4289,10.4713,10.4789,10.5597,10.5597,10.4789,10.4789,10.3905,10.2289,10.2289,10.1789,10.0596,9.6326,9.3133,9.0941,9.0864,8.9933,8.8817,8.9681,9.0284,9.0812,0.0,0.0,0.0,0.0,0.0,0.0,0.0,0.0,0.0,6.7121,6.9187,7.1456,7.3709,7.563,7.7284,7.8707,7.8323,7.7515,7.6438,7.5546,7.4981,7.4831,7.5152,7.6957,0.0,0.0,8.2939,8.4324,8.5478,8.5901,8.5593,8.6786,8.6863,8.6017,8.5709,8.4786,8.3208,8.0169,7.84,7.7553,7.6707,7.5515,0.0,0.0,0.0,0.0,0.0,0.0,0.0,0.0,0.0,0.0,0.0,0.0,0.0,0.0,0.0,0.0,0.0,0.0,0.0,0.0,0.0,0.0,0.0,0.0,0.0,0.0,0.0,0.0,0.0,0.0,0.0,0.0,0.0,0.0,0.0,0.0,0.0,8.8248,9.0248,0.0,9.1902,9.3672,9.4941,9.5249,9.8096,10.0481,10.1904,10.3289,10.4982,10.6982,10.729,10.7905,10.879,10.9098,10.8906,10.8406,10.8713,10.8406,10.7482,10.7482,10.6905,10.5905,10.529,10.4597,10.3578,10.1693,9.9142,9.6244,9.5161,9.4486,9.4222,9.4676,9.4997,9.5165,0.0,0.0,0.0,0.0,0.0,0.0,0.0,0.0,0.0,6.9045,7.163,7.4425,7.7263,7.9169,8.0785,8.2247,8.1368,8.0015,7.8357,7.7215,7.6494,7.6286,7.7997,8.0365,8.3423,8.4681,8.6017,8.7401,8.8556,8.8979,8.8709,8.9556,8.9517,8.8671,8.8671,8.8363,8.7632,8.4516,8.2054,8.0131,7.9015,7.7707,7.6361,0.0,0.0,0.0,0.0,0.0,0.0,0.0,0.0,0.0,0.0,0.0,0.0,0.0,0.0,0.0,0.0,0.0,0.0,0.0,0.0,0.0,0.0,0.0,0.0,0.0,0.0,0.0,0.0,0.0,0.0,0.0,0.0,0.0,0.0,8.8017,9.0902,9.348,9.5749,9.725,9.7519,9.9596,10.0904,10.0904,10.4097,10.6482,10.7598,10.8983,11.0598,11.2291,11.2099,11.2214,11.2791,11.2522,11.2099,11.1483,11.1483,11.0906,10.979,10.9918,10.9302,10.8183,10.7787,10.7122,10.6211,10.5482,10.3793,10.139,9.9638,9.8928,9.885,9.8714,9.8729,9.8799,0.0,0.0,0.0,0.0,0.0,0.0,0.0,6.6331,6.8136,7.0084,7.3121,7.64,7.9869,8.2308,8.4048,8.4933,8.3591,8.1961,8.0245,7.7995,7.7188,7.8281,8.137,8.3796,8.5332,8.7681,8.9282,9.0073,9.1766,9.2189,9.1364,9.221,9.2172,9.1364,9.1364,9.1364,9.1287,9.0402,8.7671,8.3747,8.2016,8.0746,7.9977,0.0,0.0,0.0,0.0,0.0,0.0,0.0,0.0,0.0,0.0,0.0,0.0,0.0,0.0,0.0,0.0,0.0,0.0,0.0,0.0,0.0,0.0,0.0,0.0,0.0,0.0,0.0,0.0,0.0,0.0,0.0,0.0,0.0,8.894,9.2556,9.6211,9.875,10.2097,10.4482,10.529,10.6905,10.7905,10.7905,10.9483,11.1098,11.2791,11.3714,11.4907,11.6484,11.5792,11.5407,11.5407,11.4484,11.4099,11.3984,11.3984,11.3176,11.1603,11.1799,11.1088,10.9508,10.9781,10.928,10.8502,10.7617,10.6895,10.6094,10.4221,10.3099,10.2499,10.1597,10.1497,10.1601,0.0,0.0,0.0,0.0,0.0,0.0,0.0,6.7832,6.9787,7.2791,7.5436,7.8668,8.2916,8.4774,8.6107,8.7153,8.568,8.3735,8.1394,7.9598,7.9344,8.0899,8.4617,8.7453,8.9071,9.1615,9.3243,9.3891,9.4936,9.5284,9.4903,9.5134,9.5134,9.4903,9.4903,9.4903,9.4788,9.3287,9.1979,9.0633,8.7094,8.4786,8.3516,0.0,0.0,0.0,0.0,0.0,0.0,0.0,0.0,0.0,0.0,0.0,0.0,0.0,0.0,0.0,0.0,0.0,0.0,0.0,0.0,0.0,0.0,0.0,0.0,0.0,0.0,0.0,0.0,0.0,0.0,0.0,9.1171,9.421,9.421,9.7865,10.1712,10.4905,10.7713,10.9713,11.0521,11.2214,11.3214,11.3214,11.4791,11.5907,11.6407,11.7215,11.7907,11.8407,11.8215,11.7792,11.71,11.6907,11.6099,11.4907,11.4907,11.4504,11.3613,11.3098,11.2714,11.2398,11.1194,11.0214,10.9407,10.8688,10.7989,10.708,10.5291,10.4698,10.4603,10.4408,10.3982,10.3281,0.0,0.0,0.0,0.0,0.0,0.0,0.0,6.8499,7.0342,7.3455,7.6253,7.9466,8.3575,8.5579,8.701,8.8014,8.6583,8.452,8.1987,8.1059,8.1678,8.4021,8.7459,9.0227,9.2182,9.4392,9.5914,9.6598,9.7342,9.761,9.7512,9.7512,9.7512,9.7529,9.7627,9.7678,9.7625,9.649,9.5792,9.5236,9.2644,8.9787,8.6978,8.6978,8.617,8.4978,8.5132,8.4863,8.4362,8.4016,0.0,0.0,0.0,0.0,0.0,0.0,0.0,0.0,0.0,0.0,0.0,0.0,0.0,0.0,0.0,0.0,0.0,0.0,0.0,0.0,0.0,0.0,0.0,0.0,9.5865,9.9558,10.1289,10.3712,10.6482,10.9906,11.2291,11.3907,11.4791,11.6099,11.6907,11.6907,11.7792,11.8484,11.8792,11.9498,11.9904,12.01,12.011,11.9512,11.8407,11.811,11.7321,11.5792,11.5895,11.561,11.4884,11.4318,11.4,11.3685,11.2482,11.1305,11.0101,10.9789,10.8911,10.77,0.0,0.0,0.0,0.0,10.5195,10.4101,0.0,0.0,0.0,0.0,0.0,0.0,0.0,6.8643,7.0286,7.3203,7.6139,7.9288,8.2854,8.5228,8.6927,8.7814,8.6545,8.4693,8.2312,8.2603,8.4209,8.7283,9.0079,9.2607,9.4832,9.6608,9.7878,9.8632,9.9274,9.9565,9.9524,9.9524,9.9524,9.9538,9.9801,9.9872,9.9853,9.9512,9.8995,9.8348,9.7958,9.4919,9.0633,9.0633,9.0133,8.9286,8.8402,8.8055,8.7825,8.6863,0.0,0.0,0.0,0.0,0.0,0.0,0.0,0.0,0.0,0.0,0.0,0.0,0.0,0.0,0.0,0.0,0.0,0.0,0.0,0.0,0.0,0.0,0.0,0.0,10.0596,10.4789,10.8983,10.9713,11.0906,11.3907,11.5792,11.7215,11.8023,11.8908,11.9408,11.9408,11.9408,11.9715,12.0408,12.0807,0.0,0.0,0.0,12.0694,11.9185,11.8695,11.7901,11.6624,11.6877,11.6592,11.5817,11.5516,11.4779,11.3984,11.3391,11.2187,11.0586,11.0586,10.9609,10.8008,10.8008,10.8008,10.789,10.6992,10.5781,10.4492,0.0,0.0,0.0,0.0,0.0,0.0,0.0,6.9156,7.0819,7.4883,7.6373,7.8692,8.3041,8.4437,8.5426,8.6468,8.5658,8.4567,8.3356,8.5088,8.7155,8.9332,9.3084,9.573,9.7057,9.948,10.0705,10.0604,10.151,10.1806,10.1494,10.1494,10.1494,10.1494,10.1584,10.1613,10.1604,10.0815,10.0805,10.1211,10.0208,9.7909,9.5057,9.5057,9.4518,9.3672,9.2787,9.2056,9.1287,8.971,8.8632,8.7825,8.7132,0.0,0.0,0.0,0.0,0.0,0.0,0.0,0.0,0.0,0.0,0.0,0.0,0.0,0.0,0.0,0.0,0.0,0.0,0.0,0.0,10.0596,10.4905,10.9213,11.3483,11.4599,11.5291,11.5907,11.81,11.96,11.9792,12.06,12.11,12.11,12.11,12.1177,12.1293,12.1676,12.1902,12.2004,12.2203,12.1507,11.9822,11.9694,11.88,11.7206,11.7323,0.0,11.6391,11.5603,11.4981,11.441,11.3593,11.2187,11.0586,11.0586,10.9609,10.8008,10.8008,10.8008,10.789,10.6992,10.6484,10.6015,0.0,0.0,0.0,0.0,0.0,0.0,0.0,6.8699,7.0039,7.3515,7.4601,7.6393,8.0,8.1085,8.2098,8.3476,8.3594,8.3789,8.4219,8.6554,8.9325,9.2461,9.5343,9.7765,9.9609,10.0898,10.1716,10.2085,10.239,10.2404,10.228,10.228,10.228,10.2288,10.2878,10.3188,10.3105,10.2991,10.3184,10.3481,10.2806,10.1699,10.0292,9.8797,9.7942,9.7326,9.5634,9.4749,9.4134,9.2402,9.1287,9.0517,9.0094,8.8517,8.6632,0.0,0.0,0.0,0.0,0.0,0.0,0.0,0.0,0.0,0.0,0.0,0.0,0.0,0.0,9.0979,9.4364,0.0,10.0289,10.4982,10.8983,11.2483,11.5484,11.7292,11.8407,11.8407,11.9485,12.0485,12.0908,12.1293,12.16,12.16,12.16,12.16,12.16,12.1997,12.2186,12.211,12.2708,12.1983,12.001,12.0117,11.9299,11.7403,11.7585,11.7303,11.6607,11.5813,11.5105,11.4492,11.3593,11.2187,11.0508,10.9687,10.8789,10.8008,10.8008,10.8008,10.789,10.75,10.7109,10.6601,0.0,0.0,0.0,0.0,0.0,0.0,0.0,0.0,6.9062,7.1445,7.25,7.3984,7.6445,7.7461,7.8594,8.0117,8.1367,8.2851,8.4765,8.7617,9.1054,9.5273,9.7226,9.9258,10.1601,10.1797,10.2187,10.289,10.2705,10.2593,10.2593,10.2593,10.2711,10.291,10.3783,10.4297,10.4492,10.5006,10.5287,10.5396,10.5087,10.5005,10.4678,10.2013,10.0915,10.0285,9.7781,9.6707,9.6288,9.4711,9.3557,9.2749,9.2941,9.1248,8.9017,8.8132,8.6709,0.0,0.0,0.0,0.0,0.0,0.0,0.0,0.0,9.0171,9.1518,9.2903,9.371,9.5518,9.975,10.1789,10.4405,10.929,11.2599,11.5099,11.6984,11.8908,12.01,12.0292,12.0408,12.0793,12.1485,12.16,12.16,12.16,12.16,12.157,12.1706,12.2186,12.2402,12.2294,12.3108,12.2392,12.0214,12.042,11.9484,11.7603,11.7689,11.7311,11.6413,11.5813,11.5,11.4218,11.3086,11.1914,11.0508,10.8711,10.8008,10.8008,10.8008,10.8008,10.8008,10.8008,10.7617,10.6914,0.0,0.0,0.0,0.0,0.0,0.0,0.0,0.0,0.0,7.0625,7.1601,7.2851,7.4687,7.5664,7.6562,7.7539,7.9765,8.2226,8.4726,8.8711,9.2617,9.6211,9.8711,10.0508,10.1601,10.2383,10.2812,10.289,10.289,10.2889,10.2889,10.2889,10.3319,10.3983,10.4101,10.4609,10.539,10.539,10.5897,10.6481,10.6216,10.6083,10.5987,10.4707,10.36,10.2314,9.9783,9.8235,9.725,9.6326,9.4903,9.371,9.448,9.2979,9.0748,8.9902,0.0,8.7094,8.7017,0.0,0.0,9.0094,9.0633,9.1556,0.0,9.5441,9.648,9.9558,10.0212,10.1597,10.5905,10.7405,10.9483,11.3907,11.5484,11.71,11.9485,11.9485,11.9485,12.0216,12.0985,12.1485,12.16,12.16,12.16,12.16,12.16,12.1695,12.2002,12.2295,12.261,12.2903,12.3299,12.2616,12.0814,12.0817,11.9997,11.8197,11.7497,11.66,11.5819,11.5,11.4218,11.3281,11.1601,11.0781,11.0508,10.8711,10.8008,10.8008,10.8008,10.8008,10.8008,10.8008,10.789,10.7695,0.0,0.0,0.0,0.0,0.0,0.0,0.0,0.0,0.0,0.0,6.8828,6.9687,7.1445,7.2812,7.3789,7.414,7.789,8.1133,8.3242,8.8359,9.2617,9.5625,9.8672,10.0703,10.1601,10.25,10.289,10.289,10.289,10.289,10.289,10.289,10.3086,10.3515,10.3984,10.4687,10.5508,10.6015,10.6406,10.6718,10.6592,10.631,10.5683,10.4202,10.2893,10.1603,9.8875,9.6875,0.0,0.0,9.3161,9.2558,9.3446,9.2569,9.1133,9.0748,8.9479,0.0,8.8748,0.0,0.0,0.0,9.3787,9.5365,9.7326,9.9288,10.1289,10.3097,10.4289,10.602,10.929,11.0598,11.1983,11.4791,11.6407,11.76,11.8715,11.8985,11.9215,11.96,11.9908,12.0292,12.0793,12.0793,12.1106,12.181,12.1907,12.1982,12.2305,12.26,12.2888,12.3002,12.2798,12.2187,12.0898,12.039,11.9492,11.8281,11.7383,11.6601,11.5703,11.4883,11.3711,11.2383,11.1093,11.0312,10.9687,10.8515,10.8008,10.8008,10.8008,10.8008,10.8008,10.8008,10.8008,10.789,0.0,0.0,0.0,0.0,0.0,0.0,0.0,0.0,0.0,0.0,0.0,6.7578,6.9297,7.0586,7.1289,7.1289,7.5351,7.8867,8.1094,8.6445,9.1015,9.4336,9.7539,9.9765,10.0898,10.1719,10.2304,10.25,10.25,10.2695,10.289,10.289,10.3008,10.3281,10.3906,10.4687,10.5508,10.6093,10.6406,10.6289,10.6093,10.539,10.4297,10.2812,10.0881,9.8836,9.7036,9.5097,0.0,0.0,9.0884,9.0727,9.1773,9.1406,9.0615,9.0783,8.9979,8.9171,8.9748,0.0,9.2672,9.4326,9.6673,9.8904,10.0212,10.2597,10.4982,10.6213,10.729,10.879,11.1406,11.2099,11.3099,11.5291,11.6599,11.76,11.81,11.8292,11.8407,11.8407,11.7984,11.809,11.9283,11.9806,12.0612,12.1797,12.1906,12.2111,12.261,12.2895,12.2907,12.279,12.2414,12.1718,12.0586,11.9883,11.8984,11.789,11.7109,11.6211,11.539,11.4492,11.3281,11.1914,11.1015,11.0117,10.9218,10.8398,10.8008,10.8008,10.8008,10.8008,10.8008,10.8008,10.8008,10.8008,0.0,0.0,0.0,0.0,0.0,0.0,0.0,0.0,0.0,0.0,0.0,0.0,0.0,6.9492,6.9492,6.9492,7.1953,7.4961,7.8398,8.2695,8.7344,9.2461,9.5195,9.7383,9.9023,9.9922,10.0781,10.1601,10.1601,10.2109,10.289,10.289,10.3398,10.4219,10.4219,10.4687,10.5508,10.5508,10.5508,10.5508,10.4609,10.3203,10.1601,10.0703,9.7602,9.3812,9.4588,0.0,0.0,0.0,8.8817,8.8342,8.981,8.9706,0.0,8.9773,8.9902,0.0,0.0,0.0,9.5288,9.698,9.9288,10.1789,10.4289,10.5597,10.7021,10.9483,10.9406,10.9598,11.2214,11.2022,11.2599,11.5907,11.6484,11.71,11.8792,11.76,11.6599,11.6599,11.5099,11.489,11.6891,11.859,12.0013,12.1091,12.1193,12.1714,12.2911,12.3002,12.2794,12.2187,12.2187,12.1406,11.9687,11.9609,11.8711,11.6992,11.6211,11.5312,11.4492,11.3593,11.2695,11.1914,11.1015,11.0117,10.9218,10.8398,10.8008,10.8008,10.8008,10.8008,10.8008,10.8008,10.8008,10.8008,0.0,0.0,0.0,0.0,0.0,0.0,0.0,0.0,0.0,0.0,0.0,0.0,0.0,0.0,0.0,0.0,7.0937,7.3437,7.5742,7.9922,8.3867,8.7344,9.1054,9.3594,9.4726,9.6172,9.7344,9.8203,9.8203,9.8945,10.0312,10.0312,10.0781,10.1601,10.1601,10.2109,10.289,10.289,10.2617,10.1992,10.1719,10.0195,9.8047,9.6601,9.4373,9.1786,0.0,0.0,0.0,0.0,0.0,0.0,8.6729,0.0,0.0,8.8705,0.0,0.0,0.0,9.4557,9.6519,9.9327,10.1096,10.2712,10.4713,10.6213,10.729,10.7598,10.7405,10.7521,10.8406,10.879,10.9713,11.1983,11.3291,11.4599,11.6292,11.5599,11.5099,11.5599,11.4876,11.4607,11.5483,11.6817,11.829,12.0313,12.0905,12.1501,12.211,12.2305,12.2416,12.2187,12.1093,12.0195,11.9609,11.8515,11.7617,11.6992,11.5586,11.4218,11.2812,11.25,11.1484,11.0195,10.9883,10.9218,10.8398,10.8086,10.8008,10.8008,10.8008,10.8008,10.8008,10.8008,10.7883,10.7687,0.0,0.0,0.0,0.0,0.0,0.0,0.0,0.0,0.0,0.0,0.0,0.0,0.0,0.0,0.0,0.0,0.0,7.0898,7.2617,7.6211,7.9531,8.25,8.582,8.8164,8.9375,9.1094,9.2422,9.3281,9.3867,9.5039,9.6719,9.7031,9.7656,9.8476,9.8476,9.8789,9.9297,9.9297,9.8984,9.8437,9.7812,9.6367,9.4453,9.2695,9.0781,0.0,0.0,0.0,0.0,0.0,0.0,0.0,0.0,0.0,0.0,0.0,0.0,0.0,9.3441,9.5634,9.7942,10.1019,10.2597,10.3905,10.5213,10.6405,10.7021,10.6097,10.4982,10.4097,10.4097,10.4405,10.529,10.7598,10.9906,11.2099,11.4099,11.3907,11.3714,11.4291,11.3911,11.3785,11.4423,11.5321,11.6903,11.9191,12.0094,12.0813,12.1396,12.1595,12.1601,12.1289,11.9883,11.8984,11.8711,11.7304,11.6211,11.5586,11.4218,11.2812,11.1406,11.1406,11.0703,10.9297,10.9297,10.8789,10.8008,10.8008,10.8008,10.8008,10.8008,10.7888,10.7917,10.7917,10.7516,10.7008,0.0,0.0,0.0,0.0,0.0,0.0,0.0,0.0,0.0,0.0,0.0,0.0,0.0,0.0,0.0,0.0,0.0,0.0,6.9101,7.1601,7.4531,7.7969,7.9805,8.1523,8.3242,8.4961,8.6289,8.7187,8.875,9.0469,9.2226,9.3047,9.3945,9.4804,9.4804,9.4804,9.4804,9.4804,9.4765,9.4609,9.2929,9.1719,9.0742,8.9062,0.0,0.0,0.0,0.0,0.0,0.0,0.0,0.0,0.0,0.0,0.0,0.0,8.8132,9.1556,9.2479,9.5788,9.9519,10.202,10.3789,10.5213,10.602,10.6213,10.5905,10.4905,10.2097,9.975,9.9635,9.9058,9.9712,10.3097,10.6597,10.9713,11.2291,11.2714,11.2714,11.2791,11.2287,11.251,11.3617,11.4506,11.5916,11.8085,11.8787,11.9705,12.0701,12.0781,12.039,11.9609,11.8711,11.7812,11.6914,11.6015,11.4687,11.3086,11.2187,11.1406,11.0508,11.0508,11.0117,10.9218,10.9218,10.8789,10.8008,10.8008,10.8008,10.8008,10.8007,10.7791,10.7593,10.7504,10.6809,10.5904,0.0,0.0,0.0,0.0,0.0,0.0,0.0,0.0,0.0,0.0,0.0,0.0,0.0,0.0,0.0,0.0,0.0,0.0,6.6484,6.8398,7.0469,7.2617,7.5586,7.7695,7.8828,8.0508,8.1797,8.2656,8.3086,8.4531,8.6875,8.7109,8.8008,8.9453,8.9453,8.9453,8.9453,8.9453,8.9101,8.8476,0.0,8.6914,8.5508,0.0,0.0,0.0,0.0,0.0,0.0,0.0,0.0,0.0,0.0,8.5482,8.6863,8.8979,9.1248,9.3518,9.5634,9.8404,10.1019,10.2289,10.3405,10.4097,10.3712,10.3097,10.202,9.9865,9.725,9.4941,9.371,9.4826,9.7096,10.0481,10.4405,10.8406,11.2214,11.2714,11.2906,11.3599,11.3916,11.4198,11.4512,11.5516,11.6511,11.7304,11.851,11.9192,11.9292,11.9695,11.9492,11.8711,11.7812,11.6914,11.6093,11.4609,11.3008,11.1289,11.1015,11.0508,10.9609,10.9609,10.9218,10.8281,10.8281,10.8203,10.8008,10.8008,10.8008,10.8007,10.7781,10.7699,10.7504,10.6591,10.6016,10.5397,0.0,0.0,0.0,0.0,0.0,0.0,0.0,0.0,0.0,0.0,0.0,0.0,0.0,0.0,0.0,0.0,0.0,0.0,0.0,6.5742,6.7265,6.8945,7.0898,7.2539,7.3789,7.4726,0.0,0.0,0.0,0.0,8.1523,8.1914,8.2812,8.4062,8.4062,8.4297,8.4648,8.4648,0.0,0.0,0.0,0.0,0.0,0.0,0.0,0.0,0.0,0.0,0.0,8.2139,8.2368,8.2814,8.4812,8.6786,8.8786,9.1095,9.3249,9.5326,9.748,9.9635,10.152,10.2404,10.2712,10.2212,10.0289,9.9173,9.7536,9.3957,9.1407,8.9338,8.7727,8.9751,9.2672,9.5711,10.0981,10.6097,11.0021,11.1522,11.2522,11.3291,11.4198,11.4707,11.4901,11.5784,11.6292,11.63,11.7706,11.8397,11.7982,11.8302,11.8086,11.7187,11.6289,11.5312,11.4101,11.2695,11.1406,11.0,11.0,10.9609,10.8711,10.8711,10.8515,10.8008,10.8008,10.8008,10.8008,10.8008,10.7887,10.7789,10.7309,10.6884,10.6586,10.561,10.4809,10.41,0.0,0.0,0.0,0.0,0.0,0.0,0.0,0.0,0.0,0.0,0.0,0.0,0.0,0.0,0.0,0.0,0.0,0.0,0.0,0.0,0.0,6.6328,6.6719,6.7617,6.9101,6.9375,7.0195,7.164,0.0,0.0,0.0,0.0,0.0,0.0,0.0,0.0,0.0,0.0,0.0,0.0,0.0,0.0,0.0,0.0,0.0,0.0,0.0,0.0,0.0,8.2017,8.2491,8.3093,8.5632,8.8709,9.1595,9.2672,9.4749,9.698,9.8557,10.0212,10.1597,10.2097,10.1597,10.0096,9.6596,9.4862,9.269,8.7975,8.5449,8.3687,8.2355,8.4725,8.7863,9.0864,9.7403,10.3405,10.7213,10.979,11.1714,11.2599,11.3795,11.4716,11.4996,11.5691,11.5891,11.5413,11.6696,11.7281,11.6793,11.6796,11.6406,11.539,11.4492,11.3203,11.1601,11.0781,10.9883,10.8984,10.8984,10.8515,10.7695,10.7695,10.7695,10.7695,10.7695,10.7695,10.7695,10.7616,10.7516,10.7197,10.6383,10.5788,10.5186,10.4404,10.3409,10.2597,0.0,0.0,0.0,0.0,0.0,0.0,0.0,0.0,0.0,0.0,0.0,0.0,0.0,0.0,0.0,0.0,0.0,0.0,0.0,0.0,0.0,0.0,6.5742,6.7031,6.7344,6.8711,6.957,6.9844,7.0078,0.0,0.0,0.0,0.0,0.0,0.0,0.0,0.0,0.0,0.0,0.0,0.0,0.0,0.0,0.0,0.0,0.0,0.0,0.0,0.0,0.0,8.2733,8.4901,8.744,9.0094,9.271,9.498,9.6942,9.8596,9.9596,10.1096,10.2097,10.0789,9.9865,9.8173,9.4095,9.0966,0.0,8.4224,8.1542,7.9789,7.9489,8.2101,8.6017,9.1402,9.6326,10.1404,10.6905,10.929,11.0983,11.2522,11.4316,11.5608,11.589,11.608,11.6087,11.5695,11.5692,11.5687,11.5584,11.5888,11.5312,11.3711,11.2109,11.0781,10.9804,10.9609,10.8711,10.7187,10.7187,10.6719,10.5898,10.5898,10.5898,10.5898,10.5898,10.5898,10.5898,10.5709,10.5587,10.5503,10.4905,10.458,10.4381,10.3321,10.279,10.252,0.0,0.0,0.0,0.0,0.0,0.0,0.0,0.0,0.0,0.0,0.0,0.0,0.0,0.0,0.0,0.0,0.0,0.0,0.0,0.0,0.0,0.0,0.0,0.0,6.5547,6.6328,6.7187,6.8086,0.0,6.8789,7.0039,7.0508,7.1133,7.1953,7.2383,0.0,0.0,0.0,0.0,0.0,0.0,0.0,0.0,0.0,0.0,0.0,0.0,0.0,0.0,0.0,8.1823,8.4209,8.8094,9.0787,9.3095,9.6057,9.7827,9.8981,9.9865,10.0981,10.1597,10.0404,9.8442,9.5496,9.0481,0.0,0.0,7.9217,7.7497,7.6742,7.6381,7.9211,8.2708,8.6017,9.0094,9.4941,10.0904,10.3597,10.6405,11.0291,11.2675,11.4513,11.54,11.5302,11.518,11.5115,11.441,11.3984,11.4191,11.3512,11.2695,11.1914,11.0586,10.9492,10.8593,10.8203,10.7304,10.6093,10.6093,10.5898,10.5508,10.5508,10.5508,10.5508,10.5508,10.5386,10.5285,10.5201,10.4882,10.4609,10.3909,10.3475,10.3279,10.2309,10.1904,10.1904,0.0,0.0,0.0,0.0,0.0,0.0,0.0,0.0,0.0,0.0,0.0,0.0,0.0,0.0,0.0,0.0,0.0,0.0,0.0,0.0,0.0,0.0,0.0,0.0,0.0,0.0,0.0,6.6601,6.6601,0.0,0.0,0.0,0.0,0.0,7.0625,7.1562,7.3047,0.0,0.0,0.0,0.0,7.5,0.0,0.0,0.0,0.0,0.0,0.0,7.7823,7.8707,7.9977,8.2016,8.6594,8.9825,9.2518,9.5326,9.7134,9.8442,9.9288,10.0096,10.0519,9.9519,9.6711,9.2738,8.7122,8.3629,8.0135,7.5065,7.4131,7.414,7.3783,7.6459,7.9246,8.0823,8.4324,8.8863,9.4672,9.7827,10.1597,10.7027,11.0007,11.2211,11.3689,11.3706,11.3615,11.3708,11.259,11.2191,11.2617,11.1211,11.0312,11.0312,10.9297,10.8398,10.7695,10.6914,10.6015,10.5195,10.5195,10.5117,10.4883,10.4883,10.4883,10.4883,10.488,10.4701,10.451,10.4402,10.4084,10.3675,10.2903,10.2486,10.2212,10.1597,10.1289,10.1289,0.0,0.0,0.0,0.0,0.0,0.0,0.0,0.0,0.0,0.0,0.0,0.0,0.0,0.0,0.0,0.0,0.0,0.0,0.0,0.0,0.0,0.0,0.0,0.0,0.0,0.0,0.0,6.5703,6.5703,0.0,0.0,0.0,0.0,0.0,0.0,7.1211,7.2187,7.2969,0.0,0.0,0.0,0.0,0.0,0.0,0.0,0.0,0.0,7.5154,7.5168,7.6053,7.6976,7.8246,8.1016,8.5709,9.0364,9.1479,9.4018,9.6711,9.7519,9.8365,9.8634,9.7057,9.4095,9.0257,8.5241,0.0,7.7268,7.3835,7.2435,7.204,7.2716,7.4099,7.6476,8.0439,8.3362,8.694,9.2133,9.5672,9.9186,10.3104,10.6294,10.878,11.0518,11.0807,11.101,11.1013,11.0117,10.9999,11.0781,10.9883,10.9414,10.9414,10.7812,10.6914,10.6797,10.6015,10.5195,10.4297,10.4297,10.3906,10.3086,10.3086,10.3086,10.3086,10.2888,10.2802,10.2694,10.2206,10.2004,10.1903,10.1609,10.1404,10.1404,10.1289,10.1289,10.1289,0.0,0.0,0.0,0.0,0.0,0.0,0.0,0.0,0.0,0.0,0.0,0.0,0.0,0.0,0.0,0.0,0.0,0.0,0.0,0.0,0.0,0.0,0.0,0.0,0.0,0.0,6.3672,6.4023,6.5078,0.0,0.0,0.0,0.0,0.0,0.0,6.9961,7.125,7.1601,0.0,0.0,0.0,0.0,0.0,0.0,0.0,0.0,0.0,0.0,7.4053,7.4399,7.5053,7.5822,7.6361,7.9515,8.3824,8.7748,9.0594,9.2864,9.4711,9.6211,9.6865,9.5172,9.2556,8.9051,8.3723,0.0,7.678,7.3132,7.192,7.1594,7.1906,7.264,7.3776,7.5633,7.6778,7.9391,8.4976,8.8243,9.231,9.8419,10.2515,10.5705,10.7704,10.8899,10.9387,10.91,10.8711,10.8203,10.7617,10.7695,10.7695,10.7695,10.6601,10.5703,10.5195,10.4883,10.4297,10.3398,10.3398,10.3203,10.289,10.2716,10.2699,10.2615,10.2413,10.2214,10.2006,10.1788,10.1587,10.1413,10.1289,10.1289,10.1289,10.1289,10.1289,10.1289,0.0,0.0,0.0,0.0,0.0,0.0,0.0,0.0,0.0,0.0,0.0,0.0,0.0,0.0,0.0,0.0,0.0,0.0,0.0,0.0,0.0,0.0,0.0,0.0,0.0,0.0,0.0,6.3008,6.4492,6.5351,0.0,0.0,6.7383,6.8203,0.0,0.0,0.0,0.0,0.0,0.0,0.0,0.0,0.0,0.0,0.0,0.0,0.0,0.0,0.0,0.0,0.0,7.3437,7.2629,0.0,0.0,8.3016,8.6517,8.8863,9.0902,9.271,9.3708,9.2288,8.9992,8.6858,8.2034,7.8985,7.6159,7.2729,7.1718,7.1478,7.1478,7.1706,7.1941,7.2109,7.2793,7.4935,7.954,8.2658,8.6758,9.2972,9.7691,10.1317,10.3514,10.631,10.7706,10.7304,10.7304,10.6719,10.5586,10.5781,10.6093,10.6289,10.5508,10.4804,10.4219,10.3906,10.3515,10.289,10.289,10.2889,10.2802,10.2593,10.2499,10.2407,10.211,10.1905,10.1686,10.1603,10.1487,10.1289,10.1289,10.1212,10.0904,10.0904,10.0904,10.0904,0.0,0.0,0.0,0.0,0.0,0.0,0.0,0.0,0.0,0.0,0.0,0.0,0.0,0.0,0.0,0.0,0.0,0.0,0.0,0.0,0.0,0.0,0.0,0.0,0.0,0.0,0.0,0.0,0.0,6.4765,6.5625,6.6484,6.7383,6.8203,0.0,0.0,0.0,0.0,0.0,0.0,0.0,0.0,0.0,0.0,0.0,0.0,0.0,0.0,0.0,0.0,0.0,0.0,0.0,0.0,0.0,0.0,8.1593,8.5132,8.5978,8.744,8.8617,8.795,8.5849,8.3175,8.0107,7.7445,7.4942,7.2498,7.1718,7.1478,7.1478,7.1344,7.1211,7.119,7.3514,7.5788,7.7318,8.067,8.3904,8.6591,9.1382,9.536,9.7576,10.25,10.5508,10.5508,10.5508,10.5508,10.5508,10.4687,10.4609,10.5508,10.4687,10.4219,10.4219,10.3281,10.289,10.289,10.289,10.28,10.248,10.2519,10.24,10.21,10.1789,10.17,10.171,10.138,10.1289,10.1289,10.1289,10.0789,10.0096,10.0096,10.0096,10.0096,0.0,0.0,0.0,0.0,0.0,0.0,0.0,0.0,0.0,0.0,0.0,0.0,0.0,0.0,0.0,0.0,0.0,0.0,0.0,0.0,0.0,0.0,0.0,0.0,0.0,0.0,0.0,0.0,0.0,0.0,0.0,6.5312,6.6172,6.6406,6.6406,6.7226,0.0,0.0,0.0,0.0,0.0,0.0,0.0,0.0,0.0,0.0,0.0,0.0,0.0,0.0,0.0,0.0,0.0,0.0,0.0,0.0,0.0,0.0,7.9554,8.0988,8.1877,8.1683,8.0683,7.9209,7.7204,7.569,7.42,7.2381,7.1718,7.1362,7.0917,7.0549,7.0388,7.0674,7.1921,7.3646,7.5878,8.0713,8.4964,8.7559,9.415,9.9197,10.1093,10.3281,10.4609,10.4609,10.4609,10.4101,10.289,10.2617,10.2812,10.3711,10.289,10.2109,10.1484,10.1914,10.1992,10.1992,10.24,10.2593,10.2514,10.209,10.1903,10.1815,10.149,10.1398,10.1398,10.1308,10.1019,10.0481,10.0481,9.9942,9.9211,9.9211,9.9211,9.9288,0.0,0.0,0.0,0.0,0.0,0.0,0.0,0.0,0.0,0.0,0.0,0.0,0.0,0.0,0.0,0.0,0.0,0.0,0.0,0.0,0.0,0.0,0.0,0.0,0.0,0.0,0.0,0.0,0.0,0.0,0.0,0.0,0.0,6.5117,6.5469,6.6211,0.0,0.0,0.0,0.0,0.0,0.0,0.0,0.0,0.0,0.0,0.0,0.0,0.0,0.0,0.0,0.0,0.0,0.0,0.0,0.0,0.0,0.0,0.0,7.6146,7.6992,7.7466,7.7019,7.6253,7.5371,7.4535,7.357,7.2265,7.151,7.1019,7.0586,7.0035,6.961,6.9522,7.0816,7.2581,7.4804,7.9789,8.4888,8.9425,9.4644,9.8945,10.1719,10.2695,10.3203,10.3203,10.3203,10.2617,10.1211,10.1094,10.121,10.1316,10.1209,10.0781,10.0312,10.0697,10.1004,10.1002,10.13,10.1384,10.118,10.0909,10.0697,10.0601,10.0382,10.0404,0.0,10.0404,10.0096,9.9596,9.9596,9.9058,9.8288,9.8288,9.8288,9.8442,0.0,0.0,0.0,0.0,0.0,0.0,0.0,0.0,0.0,0.0,0.0,0.0,0.0,0.0,0.0,0.0,0.0,0.0,0.0,0.0,0.0,0.0,0.0,0.0,0.0,0.0,0.0,0.0,6.4609,6.4961,6.414,0.0,0.0,0.0,0.0,0.0,0.0,0.0,0.0,0.0,0.0,0.0,0.0,0.0,0.0,0.0,0.0,0.0,0.0,0.0,0.0,0.0,0.0,0.0,0.0,0.0,0.0,0.0,0.0,0.0,0.0,0.0,7.4453,7.3933,7.4256,7.3633,0.0,7.207,7.1114,7.0402,7.033,6.9663,6.8837,6.8063,7.0145,7.2456,7.4002,7.8385,8.4297,9.1875,9.3672,9.582,9.9804,10.1015,10.1484,10.1484,10.1484,10.1094,10.0195,10.0117,9.9601,9.847,9.9401,9.996,10.0115,9.9872,9.9783,9.9778,9.9647,9.9424,9.9183,9.9169,9.9056,9.8788,9.8788,9.8788,9.8788,9.8788,9.875,9.8711,9.8711,9.8173,9.7403,9.7403,9.7403,9.7519,0.0,0.0,0.0,0.0,0.0,0.0,0.0,0.0,0.0,0.0,0.0,0.0,0.0,0.0,0.0,0.0,0.0,0.0,0.0,0.0,0.0,0.0,0.0,0.0,0.0,0.0,0.0,6.1992,6.3086,6.3164,6.2344,6.3398,0.0,0.0,0.0,0.0,0.0,0.0,0.0,0.0,0.0,0.0,0.0,0.0,0.0,0.0,0.0,0.0,0.0,0.0,0.0,0.0,0.0,0.0,0.0,0.0,0.0,0.0,0.0,0.0,0.0,0.0,6.9659,6.9996,0.0,7.0976,7.0508,7.0937,7.0214,6.9363,6.882,6.8447,6.8192,6.8157,6.9765,7.1601,7.3316,8.0702,8.8125,9.3906,9.6484,9.8203,9.9219,10.0117,10.0586,10.0586,10.0586,9.9922,9.8398,9.832,9.7491,9.5777,9.5953,9.6626,9.7752,9.8369,9.8665,9.8696,9.9091,9.928,9.9183,9.8974,9.8862,9.8788,9.8788,9.8788,9.8788,9.8788,9.8404,9.7827,9.7827,9.7288,9.6596,9.6596,9.6596,9.6616,0.0,0.0,0.0,0.0,0.0,0.0,0.0,0.0,0.0,0.0,0.0,0.0,0.0,0.0,0.0,0.0,0.0,0.0,0.0,0.0,0.0,0.0,0.0,0.0,0.0,0.0,0.0,0.0,0.0,6.3164,0.0,0.0,0.0,0.0,0.0,0.0,0.0,0.0,0.0,0.0,0.0,0.0,0.0,0.0,0.0,0.0,0.0,0.0,0.0,6.4551,6.4666,6.4666,0.0,0.0,0.0,0.0,0.0,0.0,0.0,0.0,0.0,6.7783,6.8121,6.8515,0.0,0.0,6.9492,6.9531,6.8783,6.7916,6.7148,6.6907,6.6862,6.6992,6.9062,7.2422,7.7344,8.3476,8.9414,9.4609,9.6406,9.7734,9.8906,9.9062,9.9101,9.9101,9.9101,9.8359,9.664,9.6438,9.5847,9.466,9.4536,9.4898,9.5854,9.6204,9.6372,9.6372,9.6982,9.7247,9.7285,9.7532,9.7634,9.7634,9.7634,9.7634,9.7634,9.7634,9.7134,9.6365,9.6365,9.6095,9.5654,9.5327,9.5455,9.5814,0.0,0.0,0.0,0.0,0.0,0.0,0.0,0.0,0.0,0.0,0.0,0.0,0.0,0.0,0.0,0.0,0.0,0.0,0.0,0.0,0.0,0.0,0.0,0.0,0.0,0.0,0.0,0.0,0.0,0.0,0.0,0.0,0.0,0.0,0.0,0.0,0.0,0.0,0.0,0.0,0.0,0.0,0.0,0.0,0.0,0.0,0.0,0.0,0.0,6.3281,6.3705,6.4243,6.4512,0.0,0.0,0.0,0.0,0.0,0.0,6.6618,6.7039,6.7807,6.789,6.8008,6.8828,0.0,6.8515,6.793,6.7109,6.6289,6.5547,6.5625,6.5859,6.5976,6.9219,7.4414,8.2304,8.5859,8.9414,9.4062,9.4961,9.6054,9.8203,9.7734,9.7304,9.7304,9.7304,9.6562,9.4842,9.4529,9.4178,9.358,9.341,9.3425,9.3609,9.3891,9.4041,9.4026,9.4557,9.4788,9.4826,9.5557,9.5903,9.5903,9.5903,9.5903,9.5903,9.5903,9.548,9.4788,9.4788,9.4751,9.46,9.4108,9.4281,9.4839,0.0,0.0,0.0,0.0,0.0,0.0,0.0,0.0,0.0,0.0,0.0,0.0,0.0,0.0,0.0,0.0,0.0,0.0,0.0,0.0,0.0,0.0,0.0,0.0,0.0,0.0,0.0,0.0,0.0,0.0,6.4101,6.4258,6.3359,0.0,0.0,0.0,0.0,0.0,0.0,0.0,6.5884,0.0,0.0,0.0,0.0,0.0,0.0,0.0,0.0,6.3089,6.2935,6.2743,6.4166,0.0,0.0,0.0,0.0,0.0,6.6533,6.7653,6.8496,6.738,6.6523,6.6211,6.7109,6.6133,6.5273,6.5859,6.5312,6.4648,6.4531,6.5703,6.6953,6.7695,7.2539,7.7695,8.1914,8.5976,8.9375,9.164,9.3867,9.5351,9.5742,9.5664,9.5586,9.5586,9.5586,9.4761,9.2837,9.2702,9.1795,8.9884,8.981,8.9704,8.9594,9.2365,9.374,9.374,9.3862,9.3903,9.3903,9.4018,9.4095,9.4095,9.4095,9.4095,9.4095,9.4095,9.4018,9.3903,9.3903,9.3543,9.3131,9.3686,9.3577,9.3278,0.0,0.0,0.0,0.0,0.0,0.0,0.0,0.0,0.0,0.0,0.0,0.0,0.0,0.0,0.0,0.0,0.0,0.0,0.0,0.0,0.0,0.0,0.0,0.0,0.0,0.0,0.0,0.0,0.0,6.5703,6.5664,6.4726,6.3359,6.1758,0.0,0.0,0.0,0.0,0.0,0.0,0.0,0.0,0.0,0.0,0.0,0.0,0.0,0.0,0.0,0.0,6.2039,6.2323,6.3096,0.0,0.0,0.0,0.0,0.0,6.5237,6.5902,6.6592,6.6835,6.7265,6.7383,6.6406,6.5586,6.5117,6.5508,6.4922,6.4453,6.4922,6.6055,6.8086,7.1758,7.5078,7.8906,8.3711,8.6523,8.9023,9.1679,9.3047,9.4179,9.5117,9.4765,9.4256,9.3691,9.3649,9.2798,9.0833,9.061,9.0052,8.9023,8.89,8.8807,8.8726,9.021,9.121,9.1672,9.2133,9.2595,9.3056,9.348,9.371,9.371,9.371,9.371,9.371,9.371,9.3441,9.3,9.2603,9.2282,9.207,9.2515,9.2517,9.238,0.0,0.0,0.0,0.0,0.0,0.0,0.0,0.0,0.0,0.0,0.0,0.0,0.0,0.0,0.0,0.0,0.0,0.0,0.0,0.0,0.0,0.0,0.0,0.0,0.0,0.0,0.0,6.4922,6.664,6.7265,6.6875,6.5312,6.3555,0.0,0.0,0.0,0.0,0.0,0.0,0.0,0.0,0.0,0.0,0.0,0.0,0.0,0.0,0.0,0.0,0.0,0.0,0.0,0.0,0.0,0.0,6.382,6.399,6.414,6.414,6.4521,6.5078,6.582,6.6953,6.7695,6.6953,6.6328,6.6055,6.668,6.6094,6.5586,6.5859,6.6953,6.9648,7.5273,7.7422,8.0234,8.5469,8.7304,8.8984,9.1406,9.2031,9.2734,9.3824,9.3316,9.2558,9.1686,9.1637,9.0833,8.9098,8.8805,8.8585,8.8312,8.8158,8.8094,8.8094,8.8094,8.8594,8.9633,9.0287,9.0979,9.1633,9.2441,9.2826,9.2826,9.3018,9.3095,9.3095,9.3095,9.2638,9.1893,9.1319,9.1119,9.1168,9.1185,9.1444,9.1913,0.0,0.0,0.0,0.0,0.0,0.0,0.0,0.0,0.0,0.0,0.0,0.0,0.0,0.0,0.0,0.0,0.0,0.0,0.0,0.0,0.0,0.0,0.0,0.0,0.0,6.164,6.3359,6.6719,6.8398,6.8437,6.6875,6.5937,6.414,6.1719,0.0,0.0,0.0,0.0,0.0,0.0,0.0,0.0,0.0,0.0,0.0,0.0,0.0,0.0,0.0,0.0,0.0,0.0,0.0,0.0,6.3016,6.3833,6.4195,6.4296,6.4296,6.5469,6.6172,6.3867,6.3359,6.4687,6.9297,6.8515,6.7461,6.9844,6.9648,6.8594,6.707,6.8789,7.1875,7.6367,7.9805,8.2929,8.5781,8.8281,8.9609,8.9062,9.039,9.105,9.0172,9.0047,8.9882,8.9637,8.9621,8.9089,8.7909,8.7795,8.7356,8.6351,8.6302,8.6286,8.6286,8.6286,8.7132,8.8786,8.8825,8.8902,8.8979,8.9825,9.0171,9.021,9.1018,9.1364,9.1364,9.1364,9.0935,9.0296,9.0215,9.0348,9.0485,8.9833,9.0481,9.1803,0.0,0.0,0.0,0.0,0.0,0.0,0.0,0.0,0.0,0.0,0.0,0.0,0.0,0.0,0.0,0.0,0.0,0.0,0.0,0.0,0.0,0.0,0.0,5.8281,6.0859,6.2461,6.4765,6.7695,6.8828,6.8555,6.6875,6.5469,0.0,0.0,0.0,0.0,0.0,0.0,0.0,0.0,0.0,0.0,0.0,0.0,0.0,0.0,0.0,0.0,0.0,0.0,6.1143,6.1379,6.1777,6.1981,6.2179,6.249,6.2654,6.2695,6.2695,6.3945,6.5039,6.4062,6.4219,6.5273,6.7773,6.8437,6.9258,7.1797,7.2031,7.1484,7.0273,7.2187,7.4805,7.75,8.0859,8.4219,8.7304,8.8594,8.9217,8.931,8.9891,9.0094,8.9573,8.9515,8.9201,8.8406,8.8345,8.7859,8.6746,8.6693,8.6539,8.6094,8.6094,8.6094,8.6094,8.6094,8.644,8.7094,8.7632,8.8171,8.8709,8.9017,8.8936,8.8538,8.8882,8.8777,8.8454,8.8949,8.898,8.8718,8.8817,8.8951,8.9095,8.9303,9.0115,9.1143,0.0,0.0,0.0,0.0,0.0,0.0,0.0,0.0,0.0,0.0,0.0,0.0,0.0,0.0,0.0,0.0,0.0,0.0,0.0,0.0,0.0,0.0,0.0,5.7656,5.9961,6.2578,6.5156,6.7773,6.8633,6.8008,6.6055,0.0,0.0,0.0,0.0,0.0,0.0,0.0,0.0,0.0,0.0,0.0,0.0,0.0,0.0,0.0,0.0,0.0,0.0,0.0,6.1227,6.1378,6.1515,6.1632,6.1719,6.1719,6.1523,6.1289,6.1289,6.2148,6.3125,6.3398,6.4531,6.6055,6.7734,6.9453,7.1562,7.4687,7.4687,7.3867,7.2969,7.4492,7.6523,7.8476,8.1484,8.4687,8.7767,8.843,8.8646,8.8784,8.8768,8.8592,8.8108,8.7817,8.7319,8.648,8.6647,8.6481,8.5764,8.5978,8.6094,8.6094,8.6094,8.6094,8.6094,8.5902,8.5793,8.5793,8.6368,8.7,8.7576,8.7845,8.7618,8.698,8.7246,8.7132,8.6719,8.7286,8.7573,8.7582,8.7413,8.7719,8.8316,8.9124,8.9931,9.0739,0.0,0.0,0.0,0.0,0.0,0.0,0.0,0.0,0.0,0.0,0.0,0.0,0.0,0.0,0.0,0.0,0.0,0.0,0.0,0.0,0.0,0.0,0.0,5.7383,5.914,6.164,6.4258,6.6875,6.7734,6.6836,6.4258,6.3398,0.0,0.0,0.0,0.0,0.0,0.0,0.0,0.0,0.0,0.0,0.0,0.0,0.0,0.0,0.0,0.0,0.0,0.0,6.1378,6.1515,6.1677,6.1719,6.1719,6.1719,6.1094,6.039,6.039,6.043,6.0664,6.1484,6.3711,6.6523,6.9922,7.207,7.4531,7.8828,7.7695,7.5664,7.4805,7.5351,7.6758,7.9297,8.1875,8.4409,8.6769,8.7807,8.7955,8.6919,8.6786,8.6349,8.5277,8.4401,8.3799,8.3587,8.4401,8.4901,8.4901,8.5632,8.6094,8.6094,8.6094,8.6094,8.6094,8.5418,8.5082,8.5082,8.5062,8.5062,8.51,8.5998,8.6039,8.5449,8.6304,8.6682,8.6657,8.6682,8.6728,8.6817,8.6078,8.6775,8.828,8.9087,8.9931,9.0702,0.0,0.0,0.0,0.0,0.0,0.0,0.0,0.0,0.0,0.0,0.0,0.0,0.0,0.0,0.0,0.0,0.0,0.0,0.0,0.0,0.0,0.0,0.0,0.0,0.0,0.0,6.1875,6.5078,6.5312,6.4414,0.0,0.0,0.0,6.1719,0.0,0.0,0.0,0.0,0.0,0.0,0.0,0.0,0.0,0.0,0.0,0.0,0.0,0.0,0.0,0.0,0.0,0.0,6.1677,6.1719,6.1719,6.1719,6.1523,6.1172,6.0586,6.2187,6.3828,6.2851,6.5937,6.9609,7.125,7.3437,7.6367,8.0625,7.9961,7.832,7.75,7.8008,7.8828,7.957,8.1784,8.3858,8.5161,8.5437,8.5331,8.4803,8.4781,8.458,8.4132,8.3817,8.3657,8.3609,8.3824,8.3978,8.3978,8.4209,8.4324,8.4324,8.4324,8.4324,8.4324,8.3715,8.3425,8.3425,8.3519,8.3861,8.4467,8.516,8.4878,8.389,8.4114,8.3955,8.3564,8.4126,8.4711,8.5304,8.5665,8.6077,8.6664,8.8059,8.9087,8.9895,0.0,0.0,0.0,0.0,0.0,0.0,0.0,0.0,0.0,0.0,0.0,0.0,0.0,0.0,0.0,0.0,0.0,0.0,0.0,0.0,0.0,0.0,0.0,0.0,0.0,5.789,5.9687,0.0,0.0,0.0,0.0,0.0,0.0,6.1719,0.0,6.1523,0.0,0.0,0.0,0.0,0.0,0.0,0.0,0.0,0.0,0.0,0.0,0.0,0.0,0.0,0.0,0.0,6.1559,6.1719,6.164,6.1289,6.0703,6.0156,5.9961,6.1445,6.3125,6.3437,6.6875,7.0976,7.3906,7.6055,7.8359,8.1601,8.1172,8.0078,7.957,7.9801,8.0222,8.0573,8.2078,8.3459,8.4214,8.4215,8.391,8.3321,8.2959,8.2607,8.2163,8.1785,8.1708,8.2054,8.2401,8.2747,8.3054,8.3401,8.3593,8.3593,8.3593,8.3593,8.3593,8.2759,8.2293,8.2293,8.2131,8.2178,8.2499,8.3778,8.3798,8.2793,8.2793,8.2554,8.2223,8.2737,8.3398,8.4168,8.4646,8.5233,8.5967,8.7252,8.8243,8.9087,0.0,0.0,0.0,0.0,0.0,0.0,0.0,0.0,0.0,0.0,0.0,0.0,0.0,0.0,0.0,0.0,0.0,0.0,0.0,0.0,0.0,0.0,0.0,0.0,0.0,0.0,0.0,0.0,0.0,0.0,0.0,0.0,6.1562,6.1601,0.0,6.1836,0.0,0.0,0.0,0.0,0.0,0.0,0.0,0.0,0.0,0.0,0.0,0.0,0.0,0.0,0.0,0.0,6.1208,6.1523,6.1406,6.0547,5.914,5.8086,5.8945,5.9297,6.0234,6.3594,6.7187,7.1367,7.707,7.9023,8.0117,8.1914,8.1679,8.1094,8.1093,8.0949,8.1051,8.1746,8.237,8.291,8.3363,8.3409,8.3051,8.2063,8.1323,8.0554,7.9746,7.8977,7.8823,7.9631,8.0369,8.1122,8.1853,8.2622,8.3045,8.3045,8.3115,8.3131,8.3131,8.1879,8.1273,8.1325,8.0768,8.02,7.9758,8.2023,8.2779,8.2186,8.2186,8.2186,8.2186,8.2186,8.2627,8.3324,8.3398,8.4278,8.5673,8.6591,8.7399,8.8316,0.0,0.0,0.0,0.0,0.0,0.0,0.0,0.0,0.0,0.0,0.0,0.0,0.0,0.0,0.0,0.0,0.0,0.0,0.0,0.0,0.0,0.0,0.0,0.0,0.0,0.0,0.0,0.0,0.0,0.0,0.0,0.0,0.0,6.0703,0.0,6.039,0.0,0.0,0.0,0.0,0.0,0.0,0.0,0.0,0.0,0.0,0.0,0.0,0.0,0.0,0.0,0.0,5.9883,6.0156,6.0508,5.9687,5.8711,5.8086,5.8945,6.0156,6.1836,6.4609,6.9414,7.418,7.6875,7.8125,7.9414,8.1797,8.2148,8.1951,8.1798,8.1734,8.1494,8.0838,8.0715,8.0528,7.9958,7.9765,7.9582,7.9338,7.9169,7.8977,7.8784,7.8592,7.8592,7.8746,7.8556,7.8517,7.867,7.8861,7.8976,7.8976,7.9396,7.9608,7.9608,7.8382,7.8081,7.8699,7.8286,7.837,7.8951,8.1207,8.226,8.2186,8.2186,8.2186,8.2186,8.2186,8.2296,8.2517,8.3177,8.3618,8.4095,8.5527,8.6554,8.7399,0.0,0.0,0.0,0.0,0.0,0.0,0.0,0.0,0.0,0.0,0.0,0.0,0.0,0.0,0.0,0.0,0.0,0.0,0.0,0.0,0.0,0.0,0.0,0.0,0.0,0.0,0.0,0.0,0.0,0.0,0.0,0.0,0.0,5.9844,0.0,5.9492,0.0,0.0,0.0,0.0,0.0,0.0,0.0,0.0,0.0,0.0,0.0,0.0,0.0,0.0,0.0,0.0,0.0,0.0,5.9648,5.8828,5.7969,5.7578,5.8867,6.0117,6.2187,6.6875,7.0703,7.3906,7.6094,7.6914,7.7851,7.991,8.0648,8.0873,8.0754,8.0608,8.0264,7.9717,7.9149,7.8593,7.8168,7.7607,7.713,7.6746,7.6669,7.6515,7.613,7.6232,7.6465,7.6848,7.6713,7.682,7.7237,7.7275,7.7396,7.7703,7.7702,7.7811,7.8113,7.6922,7.6528,7.6941,7.6392,7.679,7.8038,8.0043,8.0973,8.1048,8.1048,8.1269,8.1636,8.1636,8.1856,8.2223,8.2663,8.3067,8.3508,8.4352,8.5416,8.6449,0.0,0.0,0.0,0.0,0.0,0.0,0.0,0.0,0.0,0.0,0.0,0.0,0.0,0.0,0.0,0.0,0.0,0.0,0.0,0.0,0.0,0.0,0.0,0.0,0.0,0.0,0.0,0.0,0.0,0.0,0.0,0.0,0.0,5.8984,0.0,0.0,0.0,0.0,0.0,0.0,0.0,0.0,0.0,0.0,0.0,0.0,0.0,0.0,5.6519,5.738,0.0,0.0,0.0,0.0,5.8789,5.793,5.707,5.6797,5.8672,6.0234,6.2695,6.8594,7.0937,7.2344,7.4492,7.5234,7.5817,7.7059,7.8171,7.8983,7.9062,7.8698,7.8308,7.8135,7.7381,7.6784,7.6669,7.6015,7.5284,7.4591,7.4514,7.4178,7.3413,7.356,7.3911,7.4504,7.4657,7.505,7.5751,7.5788,7.6009,7.6539,7.6137,7.6159,7.6675,7.5596,7.5168,7.5466,7.5076,7.5616,7.6907,7.8332,7.925,7.98,7.98,8.0167,8.0791,8.0791,8.1269,8.2003,8.2003,8.2381,8.2944,8.3294,8.4003,8.4824,0.0,0.0,0.0,0.0,0.0,0.0,0.0,0.0,0.0,0.0,0.0,0.0,0.0,0.0,0.0,0.0,0.0,0.0,0.0,0.0,0.0,0.0,0.0,0.0,0.0,0.0,0.0,0.0,0.0,0.0,0.0,0.0,0.0,5.8086,0.0,0.0,0.0,0.0,0.0,0.0,0.0,0.0,0.0,0.0,0.0,0.0,0.0,0.0,0.0,5.6677,5.7265,0.0,0.0,0.0,5.789,5.7031,5.6172,5.6015,5.8515,6.1992,6.5312,6.6992,6.914,7.0976,7.1328,7.2578,7.367,7.3699,7.5599,7.7375,7.7757,7.7183,7.6316,7.5424,7.512,7.4822,7.413,7.3899,7.3783,7.3668,7.3654,7.3422,7.2788,7.274,7.2621,7.2273,7.1824,7.1661,7.1773,7.1773,7.1821,7.1892,7.2272,7.2511,7.2573,7.1972,7.2336,7.3727,7.456,7.5028,7.5249,7.5469,7.7121,7.98,7.98,7.9837,7.9947,7.9947,8.0424,8.1158,8.1158,8.1099,8.1165,8.2803,8.2359,8.118,0.0,0.0,0.0,0.0,0.0,0.0,0.0,0.0,0.0,0.0,0.0,0.0,0.0,0.0,0.0,0.0,0.0,0.0,0.0,0.0,0.0,0.0,0.0,0.0,0.0,0.0,0.0,0.0,0.0,0.0,0.0,5.6094,5.6719,0.0,0.0,0.0,0.0,0.0,0.0,0.0,0.0,0.0,0.0,0.0,0.0,0.0,0.0,0.0,0.0,5.535,5.5972,5.7031,5.6133,0.0,0.0,0.0,5.6328,5.6484,5.8633,6.0898,6.3125,6.4961,6.6289,6.7383,6.8359,6.9448,7.0355,7.0639,7.1575,7.2788,7.4431,7.4324,7.3678,7.2734,7.2206,7.1783,7.1437,7.0937,7.0508,7.0226,7.021,7.0151,7.008,7.0206,7.0369,7.0616,7.0537,7.0486,7.0486,7.0486,7.0631,7.0994,7.0884,7.1029,7.1343,7.0772,7.1078,7.2234,7.3117,7.378,7.4258,7.4698,7.5634,7.6898,7.6898,7.7103,7.7378,7.7378,7.8099,7.9215,7.9215,7.9389,7.9801,8.0614,8.0629,8.0222,0.0,0.0,0.0,0.0,0.0,0.0,0.0,0.0,0.0,0.0,0.0,0.0,0.0,0.0,0.0,0.0,0.0,0.0,0.0,0.0,0.0,0.0,0.0,0.0,0.0,0.0,0.0,0.0,0.0,0.0,5.4961,5.5195,5.5781,0.0,5.5703,0.0,0.0,0.0,0.0,0.0,0.0,0.0,0.0,0.0,0.0,0.0,0.0,0.0,0.0,0.0,5.4862,5.6052,5.5234,5.5703,0.0,0.0,0.0,5.6836,5.793,5.8984,6.0234,6.2187,6.3008,6.3633,6.4961,6.5961,6.6748,6.7184,6.7509,6.8239,6.9871,7.0734,7.1014,7.036,6.9744,6.9319,6.9198,6.8608,6.8004,6.7478,6.7427,6.7481,6.757,6.7763,6.8068,6.8531,6.8752,6.8862,6.8862,6.8862,6.9094,6.9534,6.9121,6.9094,6.9558,6.9526,6.9889,7.0697,7.1505,7.2312,7.312,7.3463,7.3638,7.3645,7.4134,7.4546,7.4914,7.4914,7.5835,7.7252,7.7429,7.7797,7.8336,7.8832,7.9011,7.8994,0.0,0.0,0.0,0.0,0.0,0.0,0.0,0.0,0.0,0.0,0.0,0.0,0.0,0.0,0.0,0.0,0.0,0.0,0.0,0.0,0.0,0.0,0.0,0.0,0.0,0.0,0.0,0.0,0.0,0.0,5.4101,5.4922,5.5781,5.6562,5.5703,5.4375,5.2773,0.0,0.0,0.0,0.0,0.0,0.0,0.0,0.0,0.0,0.0,0.0,0.0,0.0,5.4411,5.5047,5.4295,5.5234,5.6445,0.0,0.0,0.0,5.5703,5.6758,5.8047,5.8203,5.9414,6.0625,6.0703,6.194,6.301,6.2869,6.4023,6.4822,6.3943,6.641,6.859,6.8552,6.8513,6.8276,6.7767,6.7665,6.7478,6.6976,6.6957,6.6741,6.6247,6.6232,6.603,6.5551,6.5521,6.5558,6.5558,6.5558,6.5558,6.561,6.5558,6.5558,6.561,6.709,6.8238,6.9045,6.9853,7.066,7.1403,7.0526,7.0491,7.109,7.2817,7.347,7.3321,7.3321,7.4206,7.5694,7.6363,7.6543,7.6555,7.8336,7.7684,7.6088,0.0,0.0,0.0,0.0,0.0,0.0,0.0,0.0,0.0,0.0,0.0,0.0,0.0,0.0,0.0,0.0,0.0,0.0,0.0,0.0,0.0,0.0,0.0,0.0,0.0,0.0,0.0,0.0,0.0,5.1523,5.2344,5.3203,5.3789,5.4101,5.4287,5.4005,5.3339,5.2169,0.0,0.0,0.0,0.0,0.0,0.0,0.0,0.0,0.0,0.0,0.0,5.2494,5.301,0.0,0.0,0.0,0.0,5.453,5.4687,5.4844,5.4531,5.4488,5.4633,5.5142,5.5667,5.6068,5.6074,5.7702,5.905,5.8432,5.9559,6.0695,6.0843,6.3666,6.5782,6.5231,6.5128,6.496,6.4451,6.439,6.4284,6.4056,6.4029,6.4224,6.4757,6.4795,6.4955,6.5264,6.5301,6.5301,6.5301,6.5301,6.5301,6.5301,6.4767,6.4222,6.3687,6.4735,6.5669,6.649,6.7213,6.8004,6.8794,6.8434,6.8362,6.8446,6.9133,6.984,7.0581,7.1063,7.189,7.2888,7.3611,7.4415,7.5265,7.5911,7.5948,7.5723,0.0,0.0,0.0,0.0,0.0,0.0,0.0,0.0,0.0,0.0,0.0,0.0,0.0,0.0,0.0,0.0,0.0,0.0,0.0,0.0,0.0,0.0,0.0,0.0,0.0,0.0,0.0,0.0,0.0,0.0,0.0,5.1875,5.2422,5.2734,5.318,5.3247,0.0,0.0,0.0,5.1226,0.0,0.0,4.9252,0.0,0.0,0.0,5.1092,5.1871,5.2212,5.0927,5.1208,5.2036,0.0,0.0,0.0,0.0,0.0,5.3432,5.3159,5.2355,5.184,5.2698,5.2618,5.2416,5.2732,5.4005,5.494,5.4405,5.5518,5.6742,5.728,5.9935,6.2243,6.282,6.2772,6.2613,6.2405,6.2226,6.2032,6.1766,6.1708,6.2031,6.2781,6.2842,6.3062,6.3613,6.3686,6.3796,6.4053,6.4053,6.4061,6.4045,6.322,6.2677,6.2403,6.2903,6.3541,6.4353,6.5101,6.588,6.6624,6.6565,6.6598,6.6734,6.6665,6.7407,6.8741,6.9214,7.0026,7.1007,7.1751,7.28,7.3916,7.4424,7.4931,7.5371,0.0,0.0,0.0,0.0,0.0,0.0,0.0,0.0,0.0,0.0,0.0,0.0,0.0,0.0,0.0,0.0,0.0,0.0,0.0,0.0,0.0,0.0,0.0,0.0,0.0,0.0,0.0,0.0,0.0,0.0,0.0,0.0,5.1797,5.2578,5.244,5.2013,5.1367,0.0,5.1406,5.1248,0.0,4.9145,4.9767,0.0,0.0,4.9681,4.9495,4.9478,4.9543,4.9204,4.9103,4.9139,0.0,0.0,0.0,0.0,0.0,0.0,0.0,0.0,0.0,5.0778,5.032,4.9945,5.0758,5.088,5.0826,5.0787,5.1996,5.3087,5.3126,5.5164,5.7934,6.132,6.154,6.1377,6.1707,6.1332,6.0868,6.0344,6.0309,6.0346,6.0382,6.0382,6.0419,6.0419,6.0419,6.075,6.1496,6.1508,6.1511,6.1504,6.076,6.0755,6.1463,6.1498,6.1919,6.2694,6.3441,6.4188,6.4999,6.4775,6.5137,6.5934,6.571,6.6474,6.7827,6.7895,6.8774,7.0195,7.0973,7.1718,7.2563,7.4018,7.4593,7.4728,0.0,0.0,0.0,0.0,0.0,0.0,0.0,0.0,0.0,0.0,0.0,0.0,0.0,0.0,0.0,0.0,0.0,0.0,0.0,0.0,0.0,0.0,0.0,0.0,0.0,0.0,0.0,0.0,0.0,0.0,0.0,0.0,0.0,0.0,4.992,5.0116,5.0546,5.1001,0.0,5.1955,5.0762,5.0081,4.9676,4.9186,4.8508,4.7998,4.9264,4.9449,4.9174,4.922,4.9326,4.9467,0.0,0.0,0.0,0.0,0.0,0.0,5.0412,0.0,0.0,0.0,0.0,0.0,4.7225,4.802,4.8694,4.8116,4.9296,5.0625,5.1279,5.2198,5.3592,5.5823,5.7567,5.8471,5.794,5.7732,5.7674,5.7771,5.8327,5.8877,5.9478,6.0052,6.0419,6.0419,6.0419,6.0262,5.9953,5.9924,5.9662,5.9022,5.9292,5.9282,5.8907,5.9421,5.9833,6.0074,6.0794,6.1584,6.2373,6.2313,6.2979,6.4205,6.4125,6.4952,6.6373,6.7455,6.8132,6.8673,6.9992,7.0939,7.1785,7.3274,7.4153,7.4728,0.0,0.0,0.0,0.0,0.0,0.0,0.0,0.0,0.0,0.0,0.0,0.0,0.0,0.0,0.0,0.0,0.0,0.0,0.0,0.0,0.0,0.0,4.9952,4.9052,0.0,0.0,0.0,0.0,0.0,0.0,0.0,0.0,0.0,0.0,0.0,0.0,0.0,0.0,0.0,0.0,5.049,4.9804,4.954,4.8864,4.8157,4.7689,4.8918,4.8947,4.8409,4.8558,4.8694,4.8798,4.8984,0.0,0.0,0.0,0.0,0.0,0.0,0.0,0.0,0.0,0.0,0.0,4.571,4.6355,4.6817,4.6009,4.7163,4.8509,4.9009,5.0052,5.1066,5.1898,5.3707,5.5206,5.5716,5.5912,5.6092,5.6279,5.6712,5.7189,5.7666,5.8107,5.8547,5.8877,5.8604,5.8377,5.8294,5.8308,5.8202,5.8002,5.8083,5.808,5.7881,5.8321,5.8558,5.8558,5.9302,5.9911,6.0385,6.1028,6.1772,6.2618,6.326,6.4005,6.4884,6.6373,6.732,6.803,6.9248,7.0195,7.1075,7.2834,7.3747,7.4289,0.0,0.0,0.0,0.0,0.0,0.0,0.0,0.0,0.0,0.0,4.8662,4.8454,0.0,0.0,0.0,0.0,0.0,0.0,0.0,0.0,0.0,0.0,5.0397,4.9577,4.8803,4.8733,4.7804,4.6035,4.6818,4.6828,4.6116,0.0,0.0,0.0,0.0,0.0,0.0,0.0,5.0332,5.1057,4.9551,4.9182,4.9405,4.7756,4.7463,4.7962,4.8442,4.8147,4.7543,4.7729,4.769,4.7548,4.7542,4.841,0.0,0.0,4.9318,0.0,0.0,0.0,0.0,0.0,4.6701,0.0,4.5594,4.5594,4.5364,4.4586,4.574,4.6885,4.6857,4.8428,4.9594,4.9158,5.0198,5.1879,5.428,5.4884,5.506,5.506,5.5133,5.5265,5.5317,5.5346,5.5668,5.6511,5.5884,5.5768,5.648,5.6582,5.6969,5.7593,5.7087,5.7103,5.7746,5.7848,5.7881,5.7915,5.8558,5.893,5.9066,6.0419,6.1129,6.1366,6.2685,6.3362,6.3632,6.4918,6.6305,6.776,6.8577,6.9275,7.0074,7.2174,7.3003,7.3272,0.0,0.0,0.0,0.0,0.0,0.0,0.0,0.0,0.0,0.0,4.9757,5.0639,0.0,0.0,0.0,0.0,0.0,0.0,0.0,0.0,5.092,5.0953,5.0132,4.9582,4.9427,4.8847,4.8033,4.6964,4.712,4.6783,4.5952,4.6243,0.0,0.0,0.0,0.0,0.0,0.0,4.9635,5.1004,5.1408,5.0694,4.9364,4.876,4.7723,4.6702,4.7201,4.7466,4.7703,4.8069,4.7547,4.6993,4.8584,4.8397,4.7846,4.9125,0.0,0.0,0.0,0.0,0.0,4.6201,4.5825,0.0,4.5594,4.5594,4.5556,4.5364,4.6163,4.6791,4.6477,4.7086,4.749,4.713,4.81,4.9525,5.1386,5.1691,5.1756,5.1756,5.2307,5.2968,5.3628,5.3722,5.4097,5.4967,5.4347,5.3987,5.4152,5.4722,5.5111,5.5247,5.6262,5.6867,5.7002,5.7577,5.7881,5.7881,5.8051,5.8423,5.9032,5.9336,6.0148,6.1332,6.1603,6.2415,6.3531,6.3835,6.4816,6.6221,6.7067,6.7499,6.7771,6.8893,6.9626,7.0396,0.0,0.0,0.0,0.0,0.0,0.0,0.0,0.0,0.0,4.9666,5.0909,5.1642,0.0,0.0,0.0,0.0,0.0,0.0,0.0,0.0,5.0622,5.0882,5.0494,5.003,4.9604,4.922,4.8606,4.7668,4.7242,4.6823,4.6435,4.639,4.6209,0.0,0.0,0.0,0.0,4.8314,4.9125,5.0356,5.0763,5.0317,4.9346,4.8718,4.7832,4.6953,4.7424,4.7766,4.7978,4.7794,4.7718,4.7746,4.8144,4.7957,4.778,4.8506,4.8168,4.7471,0.0,0.0,4.6701,4.5825,4.5594,0.0,0.0,4.5159,4.5369,4.4607,4.527,4.5893,4.5527,4.5817,4.6053,4.5892,4.6555,4.7388,4.8233,4.9774,5.0802,5.0802,5.0869,5.1085,5.1464,5.1236,5.1447,5.2263,5.2396,5.255,5.2875,5.3242,5.3788,5.4566,5.531,5.6055,5.6799,5.6593,5.6705,5.7039,5.6509,5.6435,5.6836,5.7199,5.7793,5.8518,5.9243,5.9968,6.0736,6.1419,6.2342,6.3496,6.5264,6.5966,6.6193,6.7374,6.8432,6.9478,0.0,0.0,0.0,0.0,0.0,0.0,0.0,0.0,0.0,5.0789,5.1826,5.2217,0.0,0.0,0.0,0.0,0.0,0.0,0.0,0.0,5.0292,5.0717,5.0813,5.0527,4.983,4.983,4.9319,4.8355,4.7702,4.7251,4.6984,4.6934,4.6219,4.4987,0.0,0.0,0.0,4.7648,4.8414,4.9264,4.9211,4.9163,4.9081,4.8147,4.7694,4.7593,4.8068,4.8161,4.7993,4.748,4.7829,4.8327,4.7678,4.7603,4.7829,4.8238,4.7851,4.7258,4.7165,4.7078,4.6839,4.5985,4.5707,4.5331,0.0,0.0,0.0,4.4008,4.4433,4.4934,4.4761,4.4841,4.4972,4.4894,4.5252,4.5498,4.5498,4.7836,4.9606,4.987,4.9422,4.9189,4.9365,4.8865,4.8731,4.9343,5.0172,5.0944,5.1622,5.2063,5.2875,5.4126,5.4431,5.5072,5.6075,5.543,5.5297,5.566,5.4979,5.4589,5.4589,5.5239,5.5559,5.5751,5.7032,5.7684,5.7909,5.9306,6.0114,6.0786,6.3228,6.4368,6.4843,6.5877,6.7134,6.8432,0.0,4.8163,0.0,0.0,0.0,0.0,0.0,0.0,0.0,5.0867,5.2274,5.287,5.1777,0.0,0.0,0.0,0.0,5.0513,5.0186,5.0135,0.0,0.0,0.0,5.0673,5.0596,5.0596,5.0154,4.924,4.9163,4.8365,4.6929,4.6903,4.6787,4.6583,4.521,4.6062,4.843,4.7089,4.6986,4.7648,4.7665,4.7932,4.8229,4.7087,4.7093,4.7735,4.8143,4.7831,4.7333,4.7976,4.7533,4.7052,4.8708,4.7768,4.6493,4.8631,4.791,4.668,4.7674,4.7709,4.7281,4.6644,4.6112,4.5604,4.4856,0.0,4.489,4.5415,0.0,4.4748,4.5066,0.0,0.0,4.3761,4.3925,4.4147,4.4147,4.4591,4.5394,4.6576,4.6648,4.6974,4.7868,4.7337,4.7015,4.716,4.7882,4.8602,4.9323,5.1251,5.2367,5.257,5.389,5.4218,5.346,5.4529,5.4685,5.3905,5.4384,5.4589,5.4589,5.4685,5.5111,5.5751,5.6477,5.7192,5.7909,5.926,5.9554,5.9278,6.0865,6.2186,6.3158,6.2829,6.3475,6.4913,0.0,0.0,0.0,0.0,0.0,0.0,0.0,0.0,0.0,5.1517,5.2558,5.305,5.2405,5.3251,5.3314,0.0,5.133,5.0873,5.0458,5.0434,0.0,0.0,0.0,0.0,5.0358,5.0594,5.0519,5.0164,4.9125,4.8279,4.7586,4.6586,4.5893,4.5385,4.494,4.5141,4.5772,4.5612,4.552,4.5539,4.5791,4.5865,4.5901,4.6199,4.6914,4.7735,4.7785,4.7268,4.6702,4.7053,4.6731,4.6287,4.7077,4.6757,4.6301,4.7312,4.6982,4.6426,4.693,4.6608,4.6187,4.6233,4.5776,4.5372,4.5658,4.5873,4.5956,4.5866,0.0,0.0,0.0,0.0,0.0,0.0,4.3136,4.3064,4.2726,4.2761,4.3358,4.4842,4.472,4.4364,4.3981,4.4031,4.4334,4.4779,4.5538,4.6853,4.8883,4.9898,5.098,5.2266,5.2368,5.2582,5.3012,5.2771,5.2625,5.2607,5.2603,5.262,5.262,5.262,5.2819,5.3158,5.4206,5.4823,5.5271,5.7012,5.7756,5.7982,5.937,6.0684,6.1874,6.1627,6.257,6.4153,0.0,0.0,0.0,0.0,0.0,0.0,0.0,0.0,5.1174,5.152,5.2642,5.3237,5.2804,5.3437,5.337,5.2231,5.1714,5.1232,5.0642,5.0673,5.0327,4.9471,5.0151,0.0,0.0,5.0142,5.0413,5.013,4.9017,4.8241,4.7754,4.6417,4.5304,4.4413,4.4778,4.4612,4.4085,4.4581,4.4455,4.3882,4.4257,4.43,4.4311,4.5497,4.6502,4.7278,4.7166,4.6773,4.6275,4.6374,4.6186,4.589,4.6059,4.6226,4.636,4.6598,4.647,4.636,4.6598,4.6194,4.5772,4.6192,4.5781,4.5466,4.6187,4.6541,4.661,4.6267,4.6244,0.0,0.0,0.0,4.4343,4.2989,0.0,4.2228,4.1385,4.1126,4.1591,4.3092,4.2777,4.1984,4.0968,4.1172,4.1754,4.2682,4.326,4.4716,4.7254,4.8178,4.9249,5.0593,5.0749,5.1044,5.1572,5.0897,5.0777,5.1181,5.1015,5.1003,5.1229,5.1229,5.1229,5.1289,5.2606,5.3174,5.3354,5.5538,5.6675,5.7244,5.877,6.0086,6.1134,6.1313,6.2391,6.3767,0.0,4.9356,0.0,0.0,0.0,0.0,0.0,5.1356,5.1491,5.0406,5.2347,5.3559,5.2782,5.3463,5.3614,5.2758,5.2254,5.1511,5.0395,5.0542,5.0263,4.9247,4.9776,4.9348,4.7721,4.9268,4.9652,4.8646,4.9143,4.8553,4.7017,4.6525,4.5677,4.46,4.4535,4.4731,4.5106,4.4572,4.3824,4.3071,4.3255,4.3664,4.4182,4.5017,4.5716,4.626,4.6397,4.6342,4.6233,4.6351,4.6141,4.5936,4.6714,4.6666,4.647,4.7296,4.6947,4.647,4.7333,4.7276,4.6937,4.6958,4.6561,4.6179,4.6179,4.6076,4.614,4.6911,4.6434,4.5974,4.6117,4.5508,0.0,0.0,4.245,0.0,0.0,3.9373,3.9488,4.0865,4.0466,4.0079,4.0051,3.9411,3.9574,4.0955,4.1114,4.1724,4.3201,4.6127,4.7372,4.6512,4.9295,4.99,4.8,4.9213,4.9671,4.9404,4.9942,5.0554,5.1229,5.1229,5.1229,5.1289,5.2606,5.3174,5.3384,5.5987,5.7064,5.7304,5.9279,6.0475,6.1194,6.1822,6.251,6.3199,0.0,0.0,0.0,0.0,5.0712,5.0796,5.1052,5.077,5.0929,5.2108,5.299,5.3512,5.3562,5.3833,5.354,5.2469,5.2641,5.2006,5.0175,5.0688,5.0195,4.8223,4.8769,4.8509,4.7227,4.8458,4.8707,4.7941,4.7862,4.7324,4.6397,4.5555,4.4953,4.4599,4.429,4.4064,4.3832,4.3006,4.2257,4.1579,4.1312,4.2147,4.3687,4.4846,4.5664,4.6197,4.6351,4.5811,4.5045,4.5148,4.4768,4.4325,4.5147,4.53,4.5242,4.5536,4.5406,4.5242,4.5536,4.4759,4.4222,4.5628,4.514,4.4659,4.6018,4.5879,4.5678,4.6453,4.5552,4.4762,4.5404,4.4892,0.0,0.0,0.0,4.1636,0.0,3.9489,3.8898,3.9331,3.9679,3.9656,3.9125,3.8929,3.9179,4.0067,4.0229,4.1309,4.3647,4.475,4.5816,4.6917,4.7665,4.7987,4.7818,4.8462,4.8964,4.9329,4.9912,5.0524,5.1229,5.1229,5.1439,5.1917,5.2785,5.3443,5.4042,5.6196,5.7094,5.7334,5.9817,6.0894,6.1194,6.1852,6.251,6.3169,4.7949,0.0,0.0,5.0635,5.0604,5.0605,5.0873,5.075,5.1042,5.216,5.3047,5.3634,5.378,5.382,5.3528,5.2727,5.2794,5.2165,5.0479,5.0744,4.9971,4.7744,4.8134,4.7675,4.6177,4.7381,0.0,0.0,4.676,4.6343,4.5712,4.5088,4.4604,4.4236,4.4857,4.4432,4.3262,4.2823,4.211,4.1208,4.0973,4.2005,4.3826,4.4938,4.5774,4.623,4.5888,4.536,4.4759,4.4661,4.4248,4.391,4.4445,4.4615,4.4615,4.4615,4.4615,4.4615,4.4615,4.3648,4.3048,4.4631,4.4084,4.357,4.5161,4.5096,4.488,4.542,4.4841,4.4122,4.3623,4.3773,4.3491,0.0,0.0,0.0,0.0,3.9747,3.9082,3.8676,3.8485,3.8262,3.7879,3.7443,3.7656,3.88,3.8849,3.9949,4.2626,4.3318,4.4204,4.552,4.6043,4.6528,4.6915,4.7352,4.8147,4.9299,4.9673,5.0361,5.1182,5.0698,5.0862,5.1434,5.1608,5.2144,5.3105,5.5377,5.6444,5.6888,5.9926,6.1104,6.1224,6.2121,6.272,6.3169,0.0,4.9165,4.974,5.0577,5.0406,5.0214,5.0327,5.138,5.1824,5.0796,5.2658,5.3943,5.3528,5.3502,5.3543,5.3445,5.277,5.2008,5.1251,5.064,4.9559,4.7881,4.7881,4.6886,4.4637,4.6141,0.0,0.0,0.0,4.5696,4.4998,4.5122,4.4601,4.3735,4.6012,4.5718,4.3557,4.3954,4.3191,4.1679,4.2039,4.2995,4.43,4.5019,4.568,4.6101,4.5035,4.4988,4.5285,4.4714,4.4497,4.4502,4.4502,4.4536,4.4536,4.457,4.4541,4.4541,4.4541,4.3927,4.3443,4.4068,4.3531,4.3079,4.3732,4.3872,4.3872,4.39,4.4265,4.3772,4.1073,4.2228,4.2716,0.0,0.0,0.0,3.982,4.0086,3.995,3.8861,3.706,3.6034,3.648,3.5216,3.517,3.7189,3.7047,3.7878,4.0256,4.1918,4.2702,4.2509,4.4541,4.555,4.5251,4.598,4.7296,4.9119,4.9164,4.9851,5.0964,4.9708,4.9437,4.9918,4.9225,4.9609,5.0878,5.366,5.5154,5.6043,5.9599,6.1078,6.1373,6.26,6.3079,6.3169,4.8791,4.9684,5.0527,5.1056,5.0468,5.0505,5.2228,5.2348,5.2316,5.2631,5.4185,5.4816,5.3637,5.4004,5.3859,5.2725,5.2884,5.2523,5.1275,5.0867,4.982,4.7881,4.7179,4.6125,4.4643,4.5459,4.5527,4.4824,0.0,4.526,4.5129,4.491,4.4998,4.5296,4.592,4.5333,4.3771,4.345,4.1905,3.9706,4.028,4.1012,4.1744,4.1979,4.2804,4.3917,4.4898,4.464,4.3818,4.371,4.3199,4.2774,4.3262,4.3393,4.349,4.401,4.414,4.414,4.414,4.3557,4.3105,4.3881,4.3428,4.3009,4.3816,4.3456,4.319,4.3848,4.2031,4.0659,4.1596,4.07,4.0166,4.1309,0.0,0.0,4.1055,4.0279,3.9721,3.9377,3.7133,3.5965,3.6866,3.5781,3.5454,3.6447,3.7168,3.8245,3.9858,4.1569,4.2922,4.3778,4.483,4.518,4.4647,4.6251,4.6798,4.6325,4.7289,4.7875,4.8139,4.8182,4.8558,4.9172,4.9411,5.0216,5.143,5.2601,5.4177,5.6016,5.8377,6.0643,6.26,6.2959,6.3079,6.3109,4.9045,5.0121,5.1151,5.1764,5.1142,5.0987,5.2344,5.2402,5.2435,5.286,5.4244,5.4776,5.3617,5.3848,5.3766,5.2885,5.2528,5.2067,5.1251,5.0095,4.8834,4.743,4.6499,4.5382,4.4064,4.4367,4.4395,4.4035,4.3993,4.4105,4.4331,4.4345,4.4449,4.4634,4.5321,4.5014,4.3885,4.2612,4.123,3.9841,3.9895,4.0271,0.0,4.1211,4.185,4.2635,4.3627,4.3429,4.2772,4.3065,4.2847,4.2525,4.3227,4.3451,4.3515,4.3898,4.3992,4.3992,4.3992,4.34,4.2837,4.3315,4.2813,4.231,4.2749,4.209,4.1468,4.1992,4.0362,3.8939,3.9208,3.891,3.915,4.0799,4.238,4.2864,4.1292,4.0739,4.0114,3.9047,3.738,3.6224,3.6045,3.5027,3.4915,3.6411,3.6666,3.7582,3.9304,4.0342,4.1692,4.3502,4.338,4.3647,4.4394,4.4947,4.5086,4.4961,4.5922,4.649,4.6735,4.6939,4.7352,4.7947,4.8142,4.8895,5.0067,5.1363,5.2783,5.4438,5.7508,6.0063,6.2028,6.2817,6.3079,6.3109,4.9189,5.0217,5.1216,5.2129,5.1617,5.1195,5.1467,5.2102,5.2511,5.2465,5.3785,5.4385,5.3449,5.3449,5.3372,5.3153,5.1933,5.1151,5.1083,4.8931,4.7354,4.6641,4.5692,4.4517,4.3169,4.3139,4.3139,4.3139,4.2874,4.289,4.3197,4.3671,4.3683,4.3275,4.4559,4.4587,4.3477,4.169,4.0767,4.0518,4.0025,4.0165,4.0674,4.1372,4.1689,4.1784,4.1784,4.1882,4.2075,4.2648,4.2803,4.2893,4.3556,4.3778,4.3809,4.3904,4.3936,4.3936,4.3936,4.3372,4.2725,4.2579,4.1979,4.1394,4.124,4.0371,3.9624,3.9624,3.9145,3.8118,3.6194,3.7434,3.8933,3.9345,4.1808,4.2949,4.0802,4.0868,4.0376,3.8334,3.7472,0.0,3.5067,3.3947,3.4195,3.6346,3.6033,3.6609,3.8593,3.8901,4.0109,4.2381,4.1411,4.1865,4.4015,4.3101,4.3093,4.3977,4.4678,4.5308,4.5868,4.5767,4.6035,4.6525,4.6434,4.6979,4.8082,5.0078,5.1382,5.2651,5.6792,5.9119,6.0359,6.1851,6.2498,6.2646,4.8671,4.8947,4.937,5.0364,4.9596,4.9372,5.0906,5.228,5.3247,5.3277,5.4564,5.472,5.2735,5.3117,5.2963,5.1711,5.1363,5.0932,5.0316,4.857,4.699,4.5716,4.4164,4.2996,4.2236,4.2237,4.2237,4.2237,4.2727,4.3037,4.3144,4.3781,4.4365,4.4865,4.4533,4.3314,4.1519,4.1149,3.9894,3.8278,3.9275,3.9339,3.891,3.9607,4.0213,4.0698,4.0698,4.1132,4.1766,4.189,4.1797,4.1819,4.2455,4.2667,4.2789,4.3296,4.3408,4.3408,4.3408,4.3322,4.298,4.2045,4.168,4.1311,4.0393,4.0011,3.984,3.984,3.8646,3.7581,3.7651,3.7952,3.8282,3.8354,3.9656,4.0488,4.0077,3.9278,3.8532,3.8153,3.6753,3.5911,3.6078,3.5077,3.4407,3.4423,3.6027,3.7157,3.759,3.8924,4.036,4.1803,4.1633,4.1707,4.2091,4.291,4.2614,4.1207,4.2786,4.3572,4.3585,4.4452,4.5175,4.5783,4.6622,4.733,4.7958,4.8825,5.0905,5.3668,5.5792,5.7361,5.8509,5.8759,5.913,5.9767,4.8809,4.9135,4.9412,4.9481,4.8888,4.8673,4.9487,4.9949,5.0745,5.2131,5.321,5.3104,5.1229,5.0894,5.0527,4.9758,4.9057,4.8482,4.8108,4.6294,4.4933,4.424,4.3057,4.2077,4.133,4.133,4.133,4.133,4.1551,4.1997,4.2645,4.286,4.3444,4.4291,4.3546,4.2605,4.1424,4.0301,3.9566,3.9201,3.9039,3.8822,3.8604,3.8927,3.9082,3.9097,3.9097,3.9584,4.0441,4.1663,4.201,4.1906,4.1981,4.1997,4.1935,4.1612,4.1532,4.1532,4.1532,4.1532,4.1407,4.0873,4.0703,4.0575,4.0043,3.9404,3.8961,3.8961,3.7806,3.6908,3.7191,3.8004,3.8496,3.816,3.9383,4.0041,3.9104,3.7847,3.6836,3.6232,3.4799,3.3861,3.3837,3.3576,3.3933,3.5086,3.5282,3.5785,3.6759,3.7639,3.8937,4.0734,4.0133,4.0513,4.1989,4.1966,4.162,4.0953,4.2404,4.3067,4.3037,4.4443,4.5372,4.5974,4.7054,4.7857,4.841,4.9264,5.0763,5.2711,5.4597,5.5878,5.6763,5.7687,5.8328,5.8944,4.8591,4.891,4.906,4.8354,4.7977,4.78,4.7803,4.7513,4.8126,5.0293,5.1028,5.076,4.9411,4.8476,4.7848,4.7665,4.6567,4.5785,4.5537,4.3847,4.2843,4.2879,4.1944,4.1198,4.0724,4.0519,4.0416,4.0416,4.0441,4.0893,4.1675,4.1697,4.2011,4.2607,4.2356,4.1869,4.1182,3.9747,3.957,4.0132,3.8942,3.8575,3.8716,3.8557,3.8383,3.8103,3.8103,3.8558,3.9395,4.1262,4.1852,4.1792,4.136,4.1253,4.1042,4.0145,3.9913,3.9913,3.9913,3.9913,3.9869,3.9579,3.9492,3.9448,3.9183,3.8424,3.7769,3.7769,3.701,3.643,3.6556,3.7736,3.8548,3.8141,3.92,3.9409,3.7722,3.6492,3.5255,3.3952,3.2845,3.1995,3.1453,3.1584,3.2773,3.5231,3.4054,3.391,3.5426,3.5909,3.7006,3.9006,3.8586,3.9524,4.1954,4.1228,4.1078,4.153,4.2635,4.3212,4.3363,4.4819,4.5849,4.6552,4.7481,4.836,4.9188,5.0067,5.082,5.1632,5.3398,5.4419,5.5075,5.6536,5.7423,5.8019,4.685,4.6618,4.6522,4.6157,4.5725,4.5596,4.6127,4.686,4.763,4.8554,4.872,4.8458,4.7637,4.6924,4.6218,4.5548,4.4805,4.4099,4.3427,4.2467,4.1983,4.2077,4.0512,3.9955,4.069,3.992,3.9517,3.9517,4.0286,4.0444,4.006,4.0697,4.0696,4.0184,4.1467,4.0896,3.8987,4.0073,3.9784,3.8642,3.8652,3.8649,3.8628,3.8168,3.8338,3.8821,3.8821,3.9235,3.9846,4.0062,4.0105,4.0133,4.0102,4.0059,4.0015,3.9956,3.9913,3.9913,3.9913,3.9913,3.9623,3.8559,3.8289,3.7971,3.6989,3.6615,3.6546,3.6546,3.6452,3.6556,3.7059,3.7232,3.7505,3.796,3.7754,3.7063,3.5695,3.4942,3.3928,3.2143,3.1829,3.16,3.1083,3.0355,3.0536,3.2026,3.2289,3.2487,3.2682,3.4319,3.5663,3.6317,3.8435,3.9899,4.0658,4.1559,4.2087,4.2137,4.3187,4.3991,4.4493,4.5171,4.6075,4.7079,4.7657,4.8812,5.0268,5.0368,5.1046,5.2026,5.2279,5.2699,5.3229,5.3847,5.4448,5.5101,4.6231,4.6076,4.5808,4.5178,4.4908,4.491,4.5246,4.5048,4.5239,4.6127,4.6648,4.6648,4.5882,4.4676,4.4068,4.4266,4.2838,4.2023,4.2231,4.1093,4.037,4.0443,3.9773,3.9589,3.992,3.9589,3.9373,3.9373,3.9737,4.0067,4.0316,4.0223,4.0003,3.9784,4.035,4.0042,3.9057,3.8943,3.8767,3.8556,3.8309,3.802,3.7709,3.7483,3.7396,3.7429,3.7429,3.7586,3.7769,3.7769,3.8765,3.9754,3.905,3.8827,3.8693,3.7997,3.7769,3.7632,3.6841,3.6582,3.6301,3.4944,3.4655,3.451,3.4021,3.3946,3.3946,3.3946,3.4132,3.4507,3.4973,3.5067,3.5137,3.5348,3.5207,3.4746,3.3986,3.3016,3.19,3.0629,2.9787,2.9238,2.9051,2.8931,2.9161,2.9983,3.066,3.1549,3.2654,3.347,3.4257,3.5008,3.6503,3.8224,4.0178,4.1112,4.2274,4.3639,4.4443,4.5095,4.5648,4.6225,4.7079,4.8159,4.8686,4.949,5.0444,5.0795,5.1398,5.2126,5.2477,5.2929,5.3406,5.3632,5.4285,5.5089,4.5724,4.5766,4.5666,4.4805,4.465,4.4692,4.4794,4.3966,4.3536,4.4243,4.468,4.4649,4.4151,4.2894,4.2402,4.3055,4.1504,4.0761,4.1365,4.0405,3.9773,3.9773,3.9553,3.9517,3.9773,3.9553,3.9373,3.9373,3.9373,3.9723,4.0347,3.9915,3.9751,3.9879,3.9573,3.9439,3.9394,3.8236,3.8036,3.8411,3.7854,3.7434,3.7085,3.6981,3.6678,3.6405,3.6405,3.6168,3.581,3.581,3.6633,3.7639,3.7606,3.733,3.6866,3.6023,3.5499,3.4993,3.4019,3.3773,3.3552,3.2532,3.228,3.228,3.228,3.228,3.2325,3.2482,3.2833,3.3324,3.3763,3.3852,3.3897,3.4053,3.3941,3.3568,3.2735,3.1667,3.0527,2.925,2.8381,2.7806,2.75,2.7969,2.8359,2.8535,2.9366,3.0516,3.1911,3.2616,3.3341,3.4021,3.5533,3.7336,3.9393,4.0444,4.209,4.4304,4.4932,4.5743,4.6803,4.7355,4.8033,4.8812,4.9515,5.0142,5.072,5.1297,5.185,5.2402,5.2955,5.3381,5.3733,5.4084,5.4712,5.5415,4.5005,4.5566,4.5925,4.4968,4.4812,4.4812,4.4812,4.3966,4.329,4.3329,4.283,4.2449,4.241,4.1811,4.1526,4.1696,4.109,4.069,4.069,4.069,4.069,4.069,3.9849,3.9809,4.0656,3.9844,3.9373,3.9373,3.9373,3.9476,3.963,3.9599,3.986,4.033,3.9226,3.9042,3.9527,3.8365,3.791,3.784,3.735,3.713,3.7048,3.6574,3.6405,3.6405,3.6405,3.5571,3.4434,3.4434,3.3502,3.2883,3.5547,3.5523,3.4434,3.4434,3.3453,3.2331,3.2331,3.2331,3.2331,3.228,3.228,3.228,3.228,3.228,3.2415,3.2929,3.3295,3.3785,3.4276,3.4419,3.4575,3.5199,3.4786,3.381,3.2081,3.1347,3.0158,2.7963,2.808,2.7949,2.7109,2.7793,2.8125,2.7767,2.8437,2.9156,2.9643,3.1845,3.3113,3.3113,3.6297,3.8,3.8022,3.9534,4.1462,4.3707,4.4317,4.575,4.7908,4.8485,4.8761,4.8837,4.9941,5.0745,5.1322,5.1875,5.2427,5.298,5.3482,5.3683,5.3833,5.4963,5.539,5.5465,4.3849,4.4013,4.4128,4.3849,4.3771,4.4004,4.4699,4.3966,4.3386,4.3601,4.2924,4.2051,4.1115,4.0846,4.0975,4.1635,4.0562,4.006,4.0656,4.0135,3.9809,3.9809,3.9553,3.9199,3.8715,3.8479,3.7927,3.7214,3.7927,3.8288,3.8304,3.8409,3.8307,3.802,3.8122,3.8239,3.8421,3.7655,3.734,3.7333,3.6819,3.6616,3.6595,3.6471,3.6405,3.6263,3.5379,3.4775,3.4239,3.3304,3.2682,3.2431,3.333,3.3304,3.2955,3.2955,3.2632,3.2079,3.1162,3.0927,3.0721,2.9807,2.9565,2.9565,2.9565,2.979,3.0166,3.0921,3.1187,3.1431,3.1901,3.2003,3.2101,3.2244,3.1164,2.991,2.8897,2.852,2.7806,2.6289,2.7424,2.8184,2.791,2.8652,2.9219,2.9375,2.9941,3.0176,3.0,3.0988,3.1874,3.2475,3.4308,3.5936,3.7071,3.8423,4.0213,4.2385,4.2609,4.4044,4.665,4.8526,4.9339,4.9364,5.0092,5.0745,5.1322,5.1875,5.2427,5.298,5.3507,5.3934,5.4386,5.5114,5.5616,5.5968,4.329,4.3576,4.3849,4.3849,4.3476,4.3407,4.4037,4.3079,4.2337,4.256,4.2054,4.1362,4.0487,4.0187,4.0408,4.1237,4.0414,4.013,4.0656,3.9824,3.9139,3.8804,3.8405,3.789,3.7214,3.7214,3.6978,3.6531,3.7417,3.7805,3.7794,3.7867,3.7813,3.7634,3.7597,3.7768,3.7898,3.7153,3.6839,3.6773,3.5993,3.5667,3.5619,3.5041,3.4848,3.4751,3.392,3.3304,3.2705,3.1847,3.1214,3.0824,3.0824,3.0824,3.0927,3.1367,3.1184,3.0618,2.9755,2.9565,2.9355,2.8495,2.8301,2.834,2.8496,2.8984,2.9551,3.0078,3.0332,3.0547,3.084,3.0392,2.9962,2.9962,2.8605,2.7285,2.6656,2.6867,2.6852,2.6098,2.7687,2.8828,2.8984,2.9048,2.9451,3.0372,3.0255,3.0388,3.0937,3.1211,3.1758,3.2617,3.373,3.4958,3.6172,3.7131,3.88,4.1198,4.2149,4.3575,4.5352,4.6836,4.763,4.778,4.8334,4.8932,4.9394,4.9924,5.0478,5.0983,5.1513,5.2115,5.2573,5.3176,5.3586,5.3876,4.329,4.4043,4.4699,4.4699,4.3706,4.2882,4.2852,4.1492,4.0445,4.0359,4.0246,4.0182,4.0122,3.9549,3.9493,4.0317,4.0519,4.0622,4.0622,3.9597,3.8663,3.7901,3.6844,3.6255,3.6203,3.6203,3.6466,3.7043,3.7482,3.7783,3.7867,3.7811,3.8139,3.8687,3.7555,3.7382,3.788,3.673,3.6263,3.6168,3.4824,3.4239,3.4117,3.2805,3.228,3.228,3.218,3.1367,3.0276,3.0172,2.9303,2.8301,2.8301,2.8301,2.8548,2.9807,2.925,2.8301,2.8301,2.8301,2.8301,2.8301,2.832,2.8437,2.8867,2.9609,3.0215,3.0234,3.0528,3.0704,3.0704,2.9353,2.823,2.823,2.6893,2.5671,2.5191,2.6097,2.6814,2.6778,2.8276,2.9466,2.9852,2.8796,2.8815,3.0488,2.9481,2.9745,3.1924,3.2105,3.2494,3.3437,3.4297,3.4961,3.5391,3.584,3.7357,3.9977,4.2642,4.391,4.391,4.407,4.4338,4.4715,4.5393,4.5814,4.6262,4.6754,4.7246,4.7761,4.8328,4.8745,4.9138,4.9807,4.9986,4.9986,4.329,4.3488,4.3684,4.3684,4.2691,4.1797,4.1383,4.0203,3.9033,3.8112,3.799,3.7783,3.7236,3.7039,3.707,3.7244,3.8782,3.9702,3.9702,3.8708,3.8243,3.8496,3.745,3.6702,3.6284,3.6269,3.6322,3.6481,3.6215,3.6501,3.7272,3.6942,3.6816,3.6991,3.6692,3.6629,3.6709,3.5403,3.4872,3.4727,3.3353,3.2805,3.2733,3.2431,3.228,3.218,3.1133,3.0566,3.0172,2.9112,2.8548,2.8301,2.8301,2.8301,2.8335,2.8708,2.8548,2.8301,2.8301,2.8301,2.8301,2.8301,2.8535,2.8887,2.9316,2.9824,3.0293,3.0644,2.9827,2.8979,2.8979,2.7692,2.6591,2.6591,2.5208,2.4055,2.3657,2.3776,2.3816,2.361,2.5449,2.673,2.6799,2.7064,2.7407,2.7781,2.7554,2.8323,3.0552,3.0991,3.1971,3.3906,3.4766,3.5293,3.5391,3.6133,3.7143,3.8465,4.0863,4.1961,4.2031,4.3779,4.4651,4.4738,4.568,4.6128,4.6262,4.6754,4.7246,4.7761,4.8328,4.8745,4.9138,4.9807,4.9986,4.9986,4.329,4.29,4.2508,4.2508,4.0912,3.9547,3.9256,3.8182,3.7145,3.6495,3.6619,3.661,3.6239,3.6212,3.6212,3.6212,3.7291,3.7927,3.7927,3.7186,3.6872,3.7204,3.6434,3.586,3.5587,3.5543,3.5672,3.5929,3.5907,3.6231,3.6779,3.6535,3.6405,3.6405,3.6405,3.6073,3.5427,3.4727,3.4019,3.3304,3.1927,3.1367,3.1338,3.0721,3.0463,3.038,2.967,2.9408,2.925,2.8548,2.8301,2.8301,2.8301,2.8301,2.8301,2.8301,2.8301,2.8301,2.8301,2.778,2.7152,2.661,2.788,2.915,2.8823,2.9661,3.0335,2.9846,2.9039,2.817,2.7434,2.5984,2.4901,2.4901,2.3497,2.2409,2.2238,2.269,2.3106,2.3214,2.484,2.6117,2.6507,2.6216,2.6374,2.744,2.6744,2.7214,2.934,3.0722,3.2292,3.429,3.5039,3.5488,3.5684,3.6523,3.7285,3.793,3.9401,4.0105,4.0105,4.1543,4.2289,4.2541,4.3257,4.3679,4.391,4.4217,4.4723,4.5279,4.5609,4.6116,4.6648,4.7002,4.7086,4.7086,4.282,4.1988,4.1337,4.1337,3.9102,3.7254,3.7175,3.6104,3.5224,3.5162,3.5451,3.5734,3.5734,3.5816,3.5871,3.5871,3.5912,3.6073,3.631,3.5894,3.5663,3.5742,3.513,3.4876,3.4951,3.4794,3.4856,3.5329,3.5635,3.581,3.581,3.581,3.581,3.581,3.581,3.5162,3.4068,3.3871,3.3105,3.1876,3.0514,3.0016,2.9859,2.8741,2.8301,2.8301,2.8301,2.8301,2.8301,2.8301,2.8301,2.8301,2.8301,2.8121,2.796,2.796,2.778,2.7672,2.7887,2.6935,2.5602,2.4584,2.6644,2.871,2.7643,2.8821,2.9785,2.8307,2.7871,2.7271,2.5863,2.4286,2.3201,2.3201,2.2027,2.1122,2.1162,2.2223,2.3204,2.3652,2.4839,2.5914,2.6663,2.5464,2.5381,2.7302,2.6063,2.6065,2.8151,3.0224,3.2137,3.3908,3.4968,3.5723,3.6211,3.6992,3.7598,3.8027,3.8398,3.8574,3.8594,3.9082,3.9512,3.9922,4.041,4.084,4.1172,4.1172,4.166,4.2422,4.2422,4.2949,4.3711,4.3711,4.3711,4.3711,4.0618,4.0275,4.0145,4.0145,3.8607,3.7122,3.669,3.5218,3.3983,3.3546,3.3522,3.3598,3.3598,3.3964,3.4244,3.4244,3.4678,3.5487,3.6878,3.6469,3.6384,3.684,3.5876,3.5629,3.6153,3.5039,3.4486,3.4558,3.3456,3.2932,3.2932,3.2932,3.2932,3.2932,3.2932,3.2833,3.2532,3.144,3.0824,3.0463,2.9144,2.8601,2.8601,2.8388,2.8301,2.8301,2.8301,2.8301,2.8301,2.8301,2.8301,2.8301,2.8301,2.7438,2.6427,2.6427,2.5498,2.4765,2.61,2.5506,2.4528,2.435,2.5152,2.589,2.572,2.626,2.6712,2.6409,2.5269,2.424,2.3993,2.2591,2.1475,2.1475,2.1299,2.1203,2.1443,2.174,2.1964,2.2263,2.2706,2.3032,2.3195,2.3174,2.3461,2.4039,2.3789,2.4525,2.6608,2.7415,2.8637,3.0392,3.3997,3.6309,3.709,3.7578,3.8047,3.8476,3.8555,3.8574,3.8613,3.9414,3.9824,3.9941,4.0723,4.1113,4.1172,4.1172,4.166,4.2422,4.2422,4.2949,4.3711,4.3711,4.3711,4.3711,3.9972,3.936,3.8853,3.8529,3.7051,3.5704,3.5182,3.4165,3.337,3.3119,3.3111,3.3111,3.3111,3.3571,3.3897,3.3897,3.3991,3.4357,3.5118,3.5603,3.6,3.6211,3.6084,3.5752,3.5307,3.397,3.3254,3.3254,3.2632,3.228,3.228,3.228,3.228,3.228,3.228,3.1876,3.1162,3.0566,2.9859,2.9144,2.8548,2.8301,2.8301,2.8301,2.8301,2.8301,2.8301,2.778,2.7114,2.7114,2.6554,2.5882,2.5882,2.5443,2.4875,2.4875,2.4378,2.3815,2.3884,2.4121,2.4007,2.2705,2.3844,2.518,2.4731,2.5413,2.6006,2.5282,2.4525,2.3779,2.29,2.2079,2.1577,2.1577,2.1577,2.163,2.1764,2.1924,2.2071,2.2205,2.2485,2.2726,2.2886,2.3033,2.3233,2.3541,2.3567,2.4029,2.5157,2.6339,2.7484,2.8451,3.2631,3.5163,3.5987,3.7292,3.8144,3.8574,3.8574,3.8574,3.8613,3.9492,3.9259,3.8195,3.9018,3.9453,3.9471,3.9678,4.0785,4.2461,4.2695,4.3164,4.3711,4.3711,4.3711,4.3526,3.9139,3.8227,3.7384,3.694,3.5558,3.4399,3.3972,3.342,3.3111,3.3111,3.3111,3.3162,3.3244,3.3482,3.3677,3.3801,3.3456,3.3213,3.3213,3.4198,3.4744,3.4744,3.5182,3.4969,3.392,3.2555,3.1825,3.1825,3.152,3.1367,3.1367,3.1367,3.1367,3.1367,3.1367,3.0824,2.9807,2.9807,2.925,2.8301,2.8301,2.8301,2.8301,2.8301,2.8067,2.778,2.778,2.6825,2.5553,2.5553,2.4765,2.3822,2.3822,2.3608,2.3376,2.3376,2.3158,2.2772,2.1832,2.2478,2.3043,2.1245,2.2631,2.4285,2.3657,2.4475,2.5091,2.4034,2.3833,2.3457,2.2241,2.1991,2.1991,2.1991,2.1991,2.2004,2.2071,2.2271,2.2445,2.2512,2.2726,2.2979,2.33,2.3327,2.3474,2.3848,2.3875,2.3995,2.4289,2.5624,2.6648,2.6998,3.1054,3.3552,3.4168,3.5851,3.6805,3.7198,3.7198,3.7181,3.7294,3.8047,3.7564,3.6033,3.6782,3.7215,3.7241,3.7622,3.9005,4.1003,4.1323,4.1699,4.2076,4.2076,4.2076,4.1825,3.6849,3.6142,3.5672,3.5646,3.4695,3.3947,3.3897,3.342,3.3111,3.3111,3.3111,3.3269,3.3796,3.3238,3.2982,3.3458,3.2814,3.2387,3.2387,3.2487,3.2537,3.2537,3.256,3.2532,3.2431,3.1133,3.0463,3.0463,2.9197,2.8601,2.8601,2.8601,2.8601,2.8601,2.8601,2.8548,2.8441,2.8441,2.8388,2.8301,2.8301,2.8301,2.8301,2.8301,2.7457,2.6264,2.6264,2.5261,2.3989,2.3989,2.3877,2.3822,2.3822,2.3035,2.215,2.215,2.1331,2.0462,2.0369,2.0632,2.0991,2.1065,2.1474,2.1951,2.2133,2.2266,2.2279,2.2175,2.2175,2.2109,2.2057,2.1991,2.1991,2.1991,2.1991,2.2084,2.2352,2.2405,2.2525,2.2792,2.2846,2.2979,2.33,2.3327,2.3567,2.4128,2.4168,2.4302,2.4596,2.467,2.4999,2.5653,2.9505,3.1695,3.2019,3.2592,3.2927,3.2961,3.2961,3.3052,3.3309,3.3865,3.4075,3.4249,3.4728,3.5094,3.5311,3.5344,3.5842,3.6659,3.6676,3.6927,3.7347,3.7347,3.7347,3.7311,3.5999,3.5633,3.5282,3.465,3.4173,3.3796,3.3445,3.3219,3.3111,3.3111,3.3111,3.3009,3.2706,3.2667,3.2559,3.2302,3.1488,3.1081,3.1081,3.0255,3.0566,3.223,3.1469,3.1081,3.1081,2.9755,2.9059,2.9059,2.8548,2.8301,2.8301,2.8301,2.8301,2.8301,2.8301,2.778,2.6933,2.6933,2.6391,2.5498,2.5498,2.5498,2.5498,2.5498,2.5151,2.4654,2.4654,2.371,2.242,2.242,2.1949,2.1336,2.1336,2.1144,2.0727,1.985,1.931,1.8833,1.7896,1.9257,2.1015,2.1309,2.1603,2.1897,2.2191,2.2258,2.2311,2.2498,2.2525,2.2525,2.2525,2.2525,2.2525,2.2525,2.2525,2.2565,2.2672,2.2699,2.2739,2.2846,2.2928,2.2979,2.33,2.3487,2.3768,2.4168,2.4369,2.4516,2.4549,2.4636,2.4903,2.5491,2.6985,2.8565,3.0314,3.1739,3.2604,3.2759,3.2759,3.294,3.3224,3.3664,3.3194,3.205,3.2472,3.2814,3.3057,3.3374,3.4562,3.6201,3.6431,3.6698,3.683,3.683,3.58,3.4365,3.5583,3.5232,3.464,3.3509,3.3192,3.2813,3.2069,3.1933,3.1933,3.1933,3.1933,3.1865,3.1622,3.1527,3.1363,3.1124,3.0242,2.965,2.965,2.8794,2.8933,3.0296,2.9484,2.8747,2.8251,2.7346,2.6898,2.6898,2.6898,2.6898,2.6898,2.6898,2.6898,2.6898,2.6898,2.6318,2.5371,2.5371,2.4765,2.3822,2.3822,2.3822,2.3822,2.3822,2.3487,2.3095,2.3095,2.2153,2.0931,2.1032,2.0478,1.9813,1.9907,1.9758,1.9248,1.7886,1.7527,1.738,1.643,1.795,1.9772,2.0022,2.0684,2.1312,2.1594,2.1658,2.171,2.1984,2.1527,2.1101,2.1101,2.1101,2.1101,2.1101,2.1101,2.1101,2.1101,2.1101,2.1101,2.1101,2.1101,2.1433,2.2351,2.2718,2.3216,2.4109,2.4476,2.4636,2.4636,2.473,2.4997,2.5491,2.4893,2.5528,2.7393,2.9601,3.0794,3.1027,3.1057,3.1289,3.1613,3.1926,3.1284,2.9957,3.0357,3.0675,3.0993,3.141,3.258,3.4164,3.3653,3.3481,3.3378,3.2646,3.1254,2.9571,3.5483,3.4605,3.3474,3.2304,3.1579,3.0754,2.9579,2.9396,2.9396,2.9396,2.9396,2.9777,3.0785,2.9661,2.9199,3.0192,2.9059,2.8301,2.8301,2.8247,2.7618,2.6155,2.61,2.5371,2.3822,2.3822,2.3822,2.3822,2.3822,2.3822,2.3822,2.3822,2.3822,2.3822,2.3822,2.3766,2.3766,2.3766,2.3766,2.3766,2.3766,2.3766,2.3766,2.3766,2.287,2.1586,2.1586,2.0644,1.9412,1.9706,1.98,1.9853,2.0087,1.9186,1.7851,1.6454,1.6058,1.6108,1.6318,1.6528,1.6766,1.6766,1.8219,1.9665,1.9992,2.0063,2.0063,2.0063,1.8508,1.7178,1.7178,1.7178,1.7178,1.7178,1.7178,1.7178,1.7178,1.7178,1.7178,1.7178,1.7188,1.8044,2.0274,2.0745,2.1811,2.3964,2.4402,2.4562,2.4562,2.4842,2.5135,2.5428,2.3651,2.2803,2.306,2.5519,2.6747,2.6747,2.7121,2.7415,2.7709,2.7709,2.7869,2.8248,2.847,2.8778,2.9058,2.9366,2.9659,2.9631,2.7148,2.6139,2.5866,2.3381,2.2464,2.2534,3.3177,3.2153,3.1066,3.0331,3.0057,2.9806,2.9442,2.9396,2.9396,2.9396,2.9396,2.9404,2.9406,2.9021,2.8817,2.8873,2.758,2.6318,2.5223,2.5151,2.4488,2.3039,2.4986,2.5371,2.3822,2.3822,2.3822,2.3822,2.3822,2.3822,2.3822,2.3822,2.3822,2.3822,2.3822,2.3207,2.2251,2.2251,2.1643,2.0702,2.0702,2.0702,2.0702,2.0702,2.0429,2.004,2.004,1.9887,1.9679,1.9773,1.927,1.8444,1.7501,1.6969,1.6412,1.476,1.4458,1.4345,1.3237,1.3029,1.3766,1.6185,1.7372,1.7934,1.8008,1.8089,1.8089,1.8089,1.7599,1.7178,1.7178,1.7178,1.7178,1.7178,1.7178,1.7178,1.7178,1.7178,1.7178,1.7178,1.7319,1.7643,1.8357,1.8716,1.9201,1.9867,2.0173,2.0458,2.0559,2.0637,2.0869,2.1267,2.0723,2.0554,2.0878,2.1671,2.2206,2.2455,2.2626,2.3714,2.5604,2.5604,2.6512,2.8248,2.847,2.8778,2.8884,2.746,2.7096,2.7057,2.458,2.3656,2.3575,2.2831,2.1455,2.0131,3.1437,3.0536,2.9615,2.8817,2.868,2.8541,2.7981,2.7934,2.7725,2.7212,2.7164,2.6939,2.6422,2.6417,2.6399,2.6534,2.5717,2.4765,2.3877,2.3822,2.3151,2.1643,2.3359,2.3599,2.2096,2.204,2.204,2.204,2.204,2.204,2.204,2.204,2.204,2.204,2.204,2.1544,2.0759,2.0759,2.0199,1.943,1.943,1.943,1.943,1.943,1.901,1.8473,1.8529,1.8195,1.7877,1.8022,1.7688,1.6977,1.5463,1.5026,1.4767,1.311,1.282,1.2717,1.174,1.1552,1.2087,1.4226,1.5395,1.6122,1.6122,1.6122,1.6122,1.6122,1.5495,1.5,1.5,1.5061,1.5042,1.5042,1.5104,1.5156,1.5156,1.5156,1.5156,1.5156,1.5261,1.5686,1.6402,1.6776,1.7413,1.8341,1.8557,1.8728,1.8862,1.8962,1.9212,1.9473,1.8763,1.8465,1.8598,1.798,1.8588,2.0637,2.0877,2.1786,2.3298,2.3298,2.4069,2.547,2.5771,2.6025,2.6118,2.4946,2.4629,2.4489,2.2004,2.1083,2.0991,1.9983,1.8811,1.7686,2.9811,2.9316,2.8519,2.7274,2.7084,2.6675,2.5509,2.5333,2.4922,2.3683,2.3534,2.3316,2.2772,2.2695,2.2975,2.3756,2.3654,2.3543,2.3431,2.3431,2.2814,2.1472,2.1415,2.0759,1.943,1.943,1.943,1.943,1.943,1.943,1.943,1.9243,1.9185,1.9185,1.9068,1.8952,1.8952,1.8952,1.8952,1.8952,1.8952,1.8952,1.8952,1.8952,1.8052,1.682,1.6957,1.6035,1.4891,1.5216,1.5441,1.5398,1.3744,1.3293,1.3054,1.1797,1.1402,1.1443,1.1579,1.1619,1.1619,1.1619,1.2896,1.4173,1.4156,1.4148,1.4156,1.4173,1.2839,1.164,1.1653,1.1762,1.185,1.185,1.1972,1.2135,1.2135,1.2135,1.2135,1.2135,1.2074,1.282,1.4522,1.4919,1.6004,1.8135,1.8241,1.8329,1.8455,1.8728,1.8925,1.8945,1.7223,1.6344,1.6344,1.4626,1.5879,1.9977,2.0409,2.0702,2.0875,2.0875,2.0972,2.1272,2.1706,2.1898,2.1949,2.211,2.2188,2.2004,1.952,1.8592,1.8313,1.6011,1.5289,1.5452,2.6744,2.5673,2.4534,2.3231,2.2982,2.29,2.2617,2.2567,2.2466,2.2165,2.2148,2.2298,2.2666,2.2695,2.2975,2.3756,2.2758,2.1586,2.0429,2.0371,2.0213,1.9866,1.9866,1.9707,1.943,1.943,1.943,1.943,1.943,1.943,1.9372,1.8098,1.7501,1.7443,1.6197,1.5618,1.5618,1.5618,1.5618,1.5618,1.5618,1.5618,1.5618,1.5618,1.5429,1.5165,1.5264,1.5278,1.506,1.4097,1.391,1.3753,1.2,1.1646,1.179,1.1509,1.1477,1.1579,1.1613,1.1619,1.1619,1.1619,1.199,1.2322,1.2208,1.218,1.2215,1.2329,1.2074,1.1823,1.1945,1.1993,1.2013,1.2013,1.204,1.2135,1.2135,1.2135,1.2135,1.2135,1.2169,1.2436,1.2998,1.3347,1.3699,1.4241,1.4249,1.4316,1.4473,1.4518,1.4593,1.4728,1.4401,1.4237,1.4237,1.4129,1.447,1.5275,1.5613,1.6729,1.854,1.854,1.9581,2.1417,2.1777,2.1989,2.1891,2.0336,1.9697,1.9427,1.6939,1.6011,1.5924,1.5368,1.5357,1.5628,2.3839,2.3182,2.2517,2.1794,2.1693,2.1693,2.1693,2.1693,2.144,2.0794,2.0834,2.0888,2.0732,2.0818,2.1118,2.1669,2.0988,2.0199,1.9417,1.943,1.9068,1.8286,1.8286,1.7923,1.7103,1.7103,1.7513,1.8286,1.7513,1.7103,1.7103,1.6267,1.5843,1.5843,1.4955,1.4599,1.4599,1.4599,1.4599,1.4599,1.4599,1.4599,1.4599,1.4599,1.4123,1.3504,1.3741,1.3483,1.2998,1.2285,1.1526,1.0711,0.9918,0.9173,0.8621,0.8678,0.8806,0.8853,0.8853,0.8822,0.8863,0.8863,0.8867,0.944,1.1239,1.0967,1.0296,1.0429,0.962,0.8963,0.9099,0.9156,0.9213,0.9193,0.9244,0.93,0.9351,1.0219,1.0922,1.0922,1.1927,1.2637,1.2712,1.2868,1.307,1.3057,1.3064,1.3125,1.3275,1.3349,1.3424,1.3505,1.3654,1.3729,1.3729,1.396,1.4034,1.3953,1.419,1.4911,1.6122,1.6198,1.6896,1.8148,1.8428,1.8698,1.8609,1.7606,1.7118,1.7025,1.5737,1.5181,1.5181,1.5181,1.5377,1.5669,2.1389,2.1338,2.1288,2.1033,2.0982,2.0982,2.0982,2.1046,2.0632,1.9457,1.9647,1.9499,1.8642,1.8824,1.8977,1.8984,1.8997,1.8881,1.859,1.859,1.7994,1.6668,1.6609,1.5961,1.4599,1.4302,1.4955,1.6609,1.5252,1.4599,1.4599,1.4302,1.4202,1.4182,1.3942,1.3842,1.387,1.3842,1.3822,1.3813,1.3784,1.3765,1.3765,1.3457,1.2517,1.1384,1.1385,1.069,0.9782,0.9806,0.8817,0.7629,0.7807,0.6852,0.5655,0.5791,0.5808,0.5812,0.5825,0.58,0.5776,0.5789,0.5843,0.6709,1.0019,0.9526,0.8375,0.8408,0.705,0.5846,0.5869,0.6002,0.6062,0.6046,0.6188,0.6327,0.6304,0.7851,0.9064,0.9064,1.0706,1.1857,1.1857,1.2285,1.2511,1.2621,1.307,1.3308,1.3431,1.3587,1.3668,1.3668,1.3804,1.3878,1.3878,1.4034,1.4109,1.4109,1.3817,1.3705,1.3712,1.3822,1.363,1.3319,1.3554,1.3666,1.379,1.4377,1.4516,1.461,1.4993,1.5181,1.5187,1.5215,1.5398,1.5662,2.0128,1.9886,1.9524,1.8342,1.8146,1.8146,1.8146,1.8328,1.8453,1.8238,1.851,1.8752,1.8838,1.9132,1.8784,1.7443,1.7325,1.6738,1.5311,1.5252,1.5133,1.4955,1.4896,1.4837,1.4599,1.3228,1.3287,1.4896,1.4718,1.4599,1.454,1.3168,1.2604,1.2646,1.1241,1.071,1.0895,1.0688,1.0631,1.0616,1.0479,1.0422,1.0293,0.8878,0.8211,0.7894,0.6561,0.6145,0.6109,0.6115,0.6058,0.5928,0.5937,0.5876,0.5794,0.5808,0.5808,0.5822,0.5816,0.5766,0.5789,0.5771,0.5919,0.6138,0.666,0.6496,0.6215,0.6351,0.6146,0.6027,0.6231,0.6261,0.6271,0.6281,0.6291,0.6301,0.6311,0.6553,0.6714,0.6714,0.7103,0.7393,0.7393,0.9196,1.0423,1.0439,1.2393,1.3573,1.36,1.3736,1.381,1.381,1.396,1.4041,1.4041,1.419,1.4272,1.4272,1.2163,1.1225,1.1225,1.1241,1.0163,0.8381,0.8404,0.8454,0.881,1.0998,1.1956,1.2145,1.4328,1.5181,1.5201,1.533,1.5493,1.5662,1.7528,1.7266,1.6831,1.5411,1.5271,1.5309,1.5309,1.5473,1.5578,1.5578,1.5908,1.6172,1.6276,1.6529,1.6444,1.5725,1.5666,1.537,1.4658,1.4599,1.4183,1.3287,1.3228,1.2808,1.1916,1.1294,1.134,1.2012,1.1966,1.1916,1.1916,1.1301,1.1018,1.1031,1.0447,1.0215,1.0276,1.0209,0.9556,0.8658,0.86,0.7977,0.7001,0.6253,0.599,0.5918,0.5347,0.5231,0.543,0.5396,0.4791,0.3961,0.3985,0.3311,0.2551,0.2569,0.2575,0.2582,0.2541,0.2561,0.2581,0.2536,0.2567,0.2678,0.263,0.2616,0.2919,0.4141,0.3434,0.2646,0.2753,0.2758,0.2764,0.2782,0.2785,0.2791,0.281,0.3884,0.5119,0.6354,0.6549,0.6586,0.6627,0.7585,0.8724,1.0053,1.113,1.2368,1.3664,1.3892,1.4007,1.4095,1.4238,1.3636,1.2359,1.2327,1.1719,1.0268,0.9221,0.9394,1.062,0.9456,0.8343,0.739,0.7524,0.7561,0.769,0.8826,0.9299,0.9496,1.2121,1.4058,1.5316,1.5384,1.5506,1.5649]}]]